[[[{"header":{"parameterUnit":"kt","parameterCategory":2,"dx":1,"dy":1,"la1":29.285339999999998,"la2":30.599998999999997,"lo1":-89.70041500000002,"lo2":-87.6738589999976,"nx":112,"ny":82,"refTime":"2022-10-22T18:00:00:Z","depth":0,"parameterNumber":1,"parameterNumberName":"U-component_of_WINDS"},"data":[-9.3746,-9.4542,0.0,-8.9559,-8.8453,0.0,-8.0635,0.0,-7.5076,0.0,0.0,0.0,0.0,0.0,0.0,0.0,0.0,0.0,0.0,0.0,0.0,0.0,0.0,0.0,0.0,0.0,0.0,0.0,0.0,0.0,0.0,0.0,-8.6731,-8.6731,-8.8879,-9.0001,-9.0001,-9.0001,-9.0001,-9.0001,-9.0001,-9.0001,-8.9884,-8.866,-8.802,-8.802,-8.623,-8.4902,-8.4097,-8.3608,-8.2995,-8.2176,-8.2176,-8.2176,-8.2176,-8.2176,-8.2547,-8.2995,-8.4219,-8.344,-8.184,-7.9009,-7.6263,-7.3599,-7.0801,-7.0009,-7.0009,-7.0009,-7.0009,-7.0009,-7.0009,-7.0009,-7.0009,-7.0009,-6.8946,-6.7845,-6.7503,-6.6364,-6.5339,-6.5035,-6.4959,-6.5491,-6.7161,-6.7465,-6.7845,-6.9059,-6.9667,-7.0009,-7.0009,-7.0009,-7.0009,-7.0009,-7.0009,-6.9895,-6.9591,-6.8262,-6.7313,-6.7047,-6.5718,-6.4959,-6.4959,-6.4959,-6.4959,-6.4959,-6.4959,-6.4959,-6.4959,-6.4959,-6.4959,-6.4836,-6.3642,-6.2277,0.0,0.0,-8.911,-8.3985,0.0,0.0,0.0,0.0,0.0,0.0,0.0,0.0,0.0,0.0,0.0,0.0,0.0,0.0,0.0,0.0,0.0,0.0,0.0,0.0,0.0,0.0,0.0,0.0,0.0,0.0,0.0,-8.5901,-8.7854,-8.7854,-8.9269,-9.0001,-9.0001,-9.0001,-9.0001,-9.0001,-9.0001,-9.0001,-9.0001,-8.9131,-8.8778,-8.866,-8.7307,-8.623,-8.5387,-8.4584,-8.3608,-8.2917,-8.2424,-8.2176,-8.2176,-8.2176,-8.2424,-8.267,-8.3853,-8.3975,-8.295,-7.9303,-7.6859,-7.4723,-7.1026,-7.0009,-7.0009,-7.0009,-7.0009,-7.0009,-7.0009,-7.0009,-6.9971,-6.9667,-6.849,-6.7389,-6.7085,-6.5946,-6.4959,-6.4959,-6.4959,-6.5415,-6.682,-6.7047,-6.7427,-6.8604,-6.9249,-6.9705,-6.9971,-7.0009,-7.0009,-7.0009,-7.0009,-7.0009,-7.0009,-6.8718,-6.7655,-6.7085,-6.5756,-6.4959,-6.4959,-6.4959,-6.4959,-6.4959,-6.4959,-6.4959,-6.4959,-6.4959,-6.4959,-6.4836,-6.311,-6.1867,0.0,0.0,0.0,-7.5758,0.0,0.0,0.0,0.0,-6.8335,0.0,0.0,0.0,0.0,0.0,0.0,0.0,0.0,0.0,0.0,0.0,0.0,0.0,0.0,0.0,0.0,0.0,0.0,0.0,0.0,0.0,-8.6487,-8.883,-9.0001,-9.0001,-9.0001,-9.0001,-9.0001,-9.0001,-9.0001,-9.0001,-9.0001,-9.0001,-9.0001,-9.0001,-9.0001,-8.9884,-8.866,-8.8139,-8.7901,-8.5266,-8.4219,-8.4097,-8.2794,-8.23,-8.2176,-8.2176,-8.267,-8.324,-8.3975,-8.4948,-8.5191,-7.9886,-7.8127,-7.7113,-7.1682,-7.0009,-7.0009,-7.0009,-7.0009,-7.0009,-7.0009,-7.0009,-6.9819,-6.8984,-6.811,-6.7237,-6.6402,-6.5567,-6.4959,-6.4959,-6.4959,-6.5225,-6.6098,-6.625,-6.682,-6.849,-6.8794,-6.9097,-6.9933,-7.0009,-7.0009,-7.0009,-7.0009,-7.0009,-7.0009,-6.9249,-6.8072,-6.6364,-6.5453,-6.4959,-6.4959,-6.4959,-6.4959,-6.4959,-6.4959,-6.4959,-6.4959,-6.4959,-6.4959,-6.4836,-6.2241,-6.0993,-7.705,0.0,0.0,0.0,0.0,0.0,0.0,0.0,0.0,0.0,0.0,0.0,0.0,0.0,0.0,0.0,0.0,0.0,0.0,0.0,0.0,0.0,0.0,0.0,0.0,0.0,0.0,0.0,0.0,-8.3559,-8.6585,-8.883,-9.0001,-9.0001,-9.0001,-9.0001,-9.0001,-9.0001,-9.0001,-9.0001,-9.0001,-9.0001,-9.0001,-9.0001,-9.0001,-9.0001,-8.965,-8.8896,-8.802,-8.7307,-8.5869,-8.4097,-8.373,-8.2995,-8.2176,-8.2176,-8.23,-8.267,-8.373,-8.4462,-8.3929,-7.9554,-7.8127,-7.7113,-7.1682,-7.0009,-7.0009,-7.0009,-7.0009,-7.0009,-7.0009,-7.0009,-6.9819,-6.8984,-6.811,-6.7237,-6.6402,-6.5567,-6.4959,-6.4959,-6.4959,-6.5225,-6.6098,-6.625,-6.6592,-6.7655,-6.8376,-6.9097,-6.9933,-7.0009,-7.0009,-7.0009,-7.0009,-7.0009,-7.0009,-6.9249,-6.83,-6.7199,-6.5756,-6.4959,-6.4959,-6.4959,-6.4959,-6.4959,-6.4959,-6.4959,-6.4959,-6.4959,-6.4959,-6.4836,-6.2241,-6.0993,0.0,0.0,0.0,0.0,0.0,0.0,-7.3112,0.0,-6.7884,0.0,0.0,0.0,0.0,0.0,0.0,0.0,-6.9162,0.0,0.0,0.0,0.0,0.0,0.0,0.0,0.0,0.0,0.0,0.0,-8.5706,-8.5365,-8.7951,-8.9318,-9.0001,-9.0001,-9.0001,-9.0001,-9.0001,-9.0001,-9.0001,-9.0001,-9.0001,-9.0001,-9.0001,-9.0001,-9.0001,-9.0001,-9.0001,-8.9532,-8.8778,-8.7664,-8.635,-8.4902,-8.4462,-8.3363,-8.2176,-8.2176,-8.2176,-8.2424,-8.3363,-8.3975,-8.3807,-8.1796,-7.9761,-7.7367,-7.3079,-7.0894,-7.0273,-7.142,-7.0932,-7.0009,-7.0009,-7.0009,-6.9705,-6.8528,-6.7845,-6.7123,-6.5946,-6.5301,-6.4959,-6.4959,-6.4959,-6.5111,-6.5605,-6.5718,-6.5984,-6.682,-6.7389,-6.8148,-6.9363,-6.9515,-6.9629,-6.9971,-7.0009,-7.0009,-7.0009,-6.9249,-6.8566,-6.8034,-6.644,-6.5491,-6.5491,-6.5149,-6.4959,-6.4959,-6.4959,-6.4959,-6.4959,-6.4959,-6.4959,-6.4836,-6.2862,-6.1867,0.0,0.0,0.0,0.0,-7.1603,0.0,0.0,0.0,-6.9282,-6.7789,0.0,0.0,0.0,0.0,0.0,0.0,0.0,0.0,-7.533,-7.9495,0.0,0.0,0.0,0.0,0.0,-8.4779,-8.6146,-8.9757,-8.7317,-8.6975,-8.9855,-9.0001,-9.0001,-9.0001,-9.0001,-9.0001,-9.0001,-9.0001,-9.0001,-9.0001,-9.0001,-9.0001,-9.0001,-9.0001,-9.0001,-9.0001,-9.0001,-9.0001,-8.9767,-8.7354,-8.623,-8.5989,-8.4584,-8.324,-8.2176,-8.2176,-8.2176,-8.23,-8.2995,-8.373,-8.4341,-8.507,-8.2289,-7.8169,-7.5751,-7.2819,-7.0894,-7.33,-7.2075,-7.0009,-7.0009,-7.0009,-6.9591,-6.7845,-6.7465,-6.7009,-6.5339,-6.4959,-6.4959,-6.4959,-6.4959,-6.4959,-6.4959,-6.4959,-6.5263,-6.6098,-6.625,-6.682,-6.8452,-6.8642,-6.8984,-6.9781,-6.9781,-6.9819,-7.0009,-6.9173,-6.868,-6.8794,-6.7275,-6.6326,-6.625,-6.5491,-6.5073,-6.4959,-6.4959,-6.4959,-6.4959,-6.4959,-6.4959,-6.4836,-6.3642,-6.3022,0.0,0.0,0.0,0.0,0.0,-7.0833,0.0,0.0,0.0,0.0,-7.9671,0.0,0.0,0.0,0.0,-7.6408,0.0,0.0,0.0,-8.5204,0.0,-9.2738,-9.3905,0.0,-9.3955,-9.2344,-9.0929,-9.0099,-8.9416,-8.9367,-9.0001,-9.0001,-9.0001,-9.0001,-9.0001,-9.0001,-9.0001,-9.0001,-9.0001,-9.0001,-9.0001,-9.0001,-9.0001,-9.0001,-9.0001,-9.0001,-9.0001,-9.0001,-8.9884,-8.8305,-8.7068,-8.5869,-8.3485,-8.2424,-8.2176,-8.2176,-8.2176,-8.2424,-8.3608,-8.4097,-8.4341,-8.56,-8.3929,-8.13,-8.0803,-7.724,-7.33,-7.3948,-7.2075,-7.0009,-7.0009,-7.0009,-6.9591,-6.7845,-6.7465,-6.7009,-6.5339,-6.4959,-6.4959,-6.4959,-6.4959,-6.4959,-6.4959,-6.4959,-6.5263,-6.6098,-6.625,-6.6592,-6.7579,-6.7693,-6.8034,-6.8946,-6.8376,-6.8528,-6.9895,-6.8604,-6.8034,-6.8756,-6.7807,-6.6933,-6.625,-6.606,-6.5681,-6.4997,-6.4959,-6.4959,-6.4959,-6.4959,-6.4959,-6.4836,-6.3642,-6.3022,0.0,0.0,0.0,-6.9975,0.0,0.0,0.0,-7.2775,-7.4009,-7.8519,-7.8539,-7.8376,-8.0426,-8.0468,-7.9742,-7.8372,-8.1809,-8.4292,-8.3474,-8.8982,-9.3292,-9.393,-9.5419,-9.62,-9.5663,-9.4101,-9.2491,-9.0929,-9.0343,-9.0001,-9.0001,-9.0001,-9.0001,-9.0001,-9.0001,-9.0001,-9.0001,-9.0001,-9.0001,-9.0001,-9.0001,-9.0001,-9.0001,-9.0001,-9.0001,-9.0001,-9.0001,-9.0001,-8.9884,-8.7901,-8.671,-8.5869,-8.3975,-8.2794,-8.2176,-8.2176,-8.2176,-8.2424,-8.3363,-8.3853,-8.4341,-8.5312,-8.4051,-8.2211,-8.2211,-8.0305,-7.7874,-7.6518,-7.4077,-7.1682,-7.0273,-7.0009,-6.9591,-6.7845,-6.7465,-6.7009,-6.5339,-6.4959,-6.4959,-6.4959,-6.4959,-6.4959,-6.4959,-6.4959,-6.5111,-6.5529,-6.5605,-6.5908,-6.6744,-6.6857,-6.7351,-6.8642,-6.8376,-6.849,-6.9325,-6.8604,-6.811,-6.811,-6.7693,-6.7085,-6.625,-6.625,-6.5832,-6.4997,-6.4959,-6.4959,-6.4959,-6.4959,-6.4959,-6.4959,-6.4259,-6.3975,0.0,0.0,0.0,0.0,0.0,0.0,-7.1862,-7.2053,-7.3751,-7.885,-7.8347,-7.8128,-8.2477,-8.2804,-8.1784,-8.0097,-8.3653,-8.7307,-8.916,-9.171,-9.3223,-9.2637,-9.4833,-9.6005,-9.4931,-9.376,-9.2686,-9.159,-9.0636,-9.0001,-9.0001,-9.0001,-9.0001,-9.0001,-9.0001,-9.0001,-9.0001,-9.0001,-9.0001,-9.0001,-9.0001,-9.0001,-9.0001,-9.0001,-9.0001,-9.0001,-9.0001,-9.0001,-8.9767,-8.7426,-8.635,-8.5989,-8.466,-8.3363,-8.2176,-8.2176,-8.2176,-8.23,-8.3118,-8.373,-8.4341,-8.507,-8.4295,-8.295,-8.295,-8.295,-8.2334,-7.9009,-7.5751,-7.2819,-7.0537,-6.9895,-6.9363,-6.7807,-6.7313,-6.682,-6.5301,-6.4959,-6.4959,-6.4959,-6.4959,-6.4959,-6.4959,-6.4959,-6.4959,-6.4959,-6.4959,-6.5225,-6.5908,-6.5984,-6.6592,-6.8148,-6.83,-6.8376,-6.8528,-6.8528,-6.8224,-6.7503,-6.7465,-6.7161,-6.6516,-6.6326,-6.5908,-6.5225,-6.5035,-6.4959,-6.4959,-6.4959,-6.4959,-6.4959,-6.4959,-6.4959,0.0,0.0,0.0,0.0,0.0,0.0,-7.7605,-8.1914,-8.5403,-8.8446,-9.3396,-9.6136,-9.2618,-9.1835,-9.1048,-8.8818,-8.8901,-9.0162,-9.2312,-9.376,-9.4931,-9.5761,-9.62,-9.6005,-9.4931,-9.376,-9.2686,-9.159,-9.0636,-9.0001,-9.0001,-9.0001,-9.0001,-9.0001,-9.0001,-9.0001,-9.0001,-9.0001,-9.0001,-9.0001,-9.0001,-9.0001,-9.0001,-9.0001,-9.0001,-9.0001,-9.0001,-9.0001,-8.9884,-8.8423,-8.7188,-8.5989,-8.466,-8.3363,-8.2176,-8.2176,-8.2176,-8.2424,-8.3608,-8.4097,-8.4341,-8.56,-8.5842,-8.5721,-8.5721,-8.5721,-8.4584,-7.9511,-7.4465,-7.0405,-7.0009,-6.9477,-6.868,-6.7693,-6.6895,-6.6098,-6.5187,-6.4959,-6.4959,-6.4959,-6.4959,-6.4959,-6.4959,-6.4959,-6.4959,-6.4959,-6.4959,-6.4997,-6.5111,-6.5111,-6.5453,-6.6402,-6.6516,-6.682,-6.7541,-6.7579,-6.7579,-6.7465,-6.7465,-6.7389,-6.7313,-6.663,-6.6174,-6.6098,-6.5339,-6.4959,-6.4959,-6.4959,-6.4959,-6.4959,-6.4959,-6.4959,0.0,0.0,0.0,0.0,0.0,0.0,-7.6107,-7.8688,-8.1711,-8.7169,-8.9593,-9.1206,-9.2938,-9.2242,-9.1044,-9.0074,-9.0391,-9.1279,-9.2904,-9.4101,-9.5224,-9.6298,-9.6395,-9.5712,-9.4004,-9.3418,-9.2442,-9.0831,-8.9074,-8.8684,-8.9953,-9.0001,-9.0001,-9.0001,-9.0001,-9.0001,-9.0001,-9.0001,-9.0001,-9.0001,-9.0001,-9.0001,-9.0001,-9.0001,-9.0001,-9.0001,-9.0001,-9.0001,-8.9884,-8.9415,-8.7949,-8.611,-8.5507,-8.4097,-8.2176,-8.2176,-8.2176,-8.2424,-8.324,-8.3608,-8.3853,-8.507,-8.5554,-8.5674,-8.5962,-8.6083,-8.5312,-8.1548,-7.7747,-7.3948,-7.0801,-6.9401,-6.8566,-6.7655,-6.682,-6.5984,-6.5149,-6.4959,-6.4959,-6.4959,-6.4959,-6.4959,-6.4959,-6.4959,-6.4959,-6.4959,-6.4959,-6.4959,-6.4959,-6.4959,-6.5301,-6.6136,-6.625,-6.6364,-6.6706,-6.7161,-6.7047,-6.606,-6.6895,-6.7009,-6.6022,-6.6592,-6.6478,-6.5529,-6.5643,-6.5453,-6.4959,-6.4959,-6.4959,-6.4959,-6.4959,-6.4959,-6.9451,0.0,0.0,0.0,0.0,0.0,-7.6381,-7.7716,-7.995,-8.5606,-8.6503,-8.756,-9.1625,-9.1055,-9.0099,-9.0441,-9.1368,-9.2393,-9.3467,-9.454,-9.5565,-9.6298,-9.6395,-9.5517,-9.332,-9.3125,-9.2246,0.0,-8.8537,-8.8342,-8.9953,-9.0001,-9.0001,-9.0001,-9.0001,-9.0001,-9.0001,-9.0001,-9.0001,-9.0001,-9.0001,-9.0001,-9.0001,-9.0001,-9.0001,-9.0001,-9.0001,-9.0001,-9.0001,-8.965,-8.8186,-8.611,-8.5749,-8.4219,-8.2176,-8.2176,-8.2176,-8.23,-8.2995,-8.324,-8.3363,-8.4538,-8.4902,-8.5024,-8.5674,-8.5795,-8.5191,-8.1964,-7.968,-7.6859,-7.142,-6.9401,-6.8566,-6.7655,-6.682,-6.5984,-6.5149,-6.4959,-6.4959,-6.4959,-6.4959,-6.4959,-6.4959,-6.4959,-6.4959,-6.4959,-6.4959,-6.4959,-6.4959,-6.4959,-6.5187,-6.5832,-6.6098,-6.6136,-6.5908,-6.663,-6.6478,-6.5073,-6.6098,-6.6326,-6.5339,-6.625,-6.6402,-6.5681,-6.5794,-6.5681,-6.5301,-6.5301,-6.5187,-6.4959,-6.4959,-6.4959,0.0,0.0,0.0,0.0,0.0,0.0,-8.1386,-8.405,-8.5609,-8.6806,-9.0341,-9.2603,-9.0438,-9.0069,-9.0343,-9.1417,-9.2442,-9.3467,-9.4589,-9.5663,-9.6346,-9.6395,-9.6395,-9.5517,-9.332,-9.3125,-9.2246,-9.0197,-8.9953,-8.9953,-9.0001,-9.0001,-9.0001,-9.0001,-9.0001,-9.0001,-9.0001,-9.0001,-9.0001,-9.0001,-9.0001,-9.0001,-9.0001,-9.0001,-9.0001,-9.0001,-9.0001,-9.0001,-8.9884,-8.866,-8.7307,-8.5989,-8.466,-8.3363,-8.2176,-8.2176,-8.2176,-8.23,-8.2995,-8.324,-8.3363,-8.3975,-8.4219,-8.4341,-8.4902,-8.5145,-8.4173,-7.9511,-7.8127,-7.6859,-7.142,-6.9401,-6.8566,-6.7655,-6.682,-6.5984,-6.5149,-6.4959,-6.4959,-6.4959,-6.4959,-6.4959,-6.4959,-6.4959,-6.4959,-6.4959,-6.4959,-6.4959,-6.4959,-6.4959,-6.4997,-6.4997,-6.5756,-6.5908,-6.5073,-6.5794,-6.5908,-6.5035,-6.4997,-6.5377,-6.6174,-6.5453,-6.5794,-6.7351,-6.5794,-6.5377,-6.6212,-6.6212,-6.5756,-6.4959,-6.4959,-6.4959,-7.4332,0.0,0.0,0.0,-8.1506,-7.9743,-8.5171,-8.6456,-8.6729,-8.7287,-8.9408,-9.0852,-9.0092,-8.9898,-9.0392,-9.1347,-9.2491,-9.3515,-9.4638,-9.5712,-9.6395,-9.6395,-9.6395,-9.5858,-9.4394,-9.3564,-9.2539,-9.1173,-8.9074,0.0,-8.9953,-8.8635,-8.8537,-8.9953,-9.0001,-9.0001,-9.0001,-9.0001,-9.0001,-9.0001,-9.0001,-9.0001,-9.0001,-9.0001,-9.0001,-9.0001,-9.0001,-8.9532,-8.866,-8.8257,-8.6829,-8.4902,-8.5266,-8.4097,-8.23,-8.324,-8.184,-7.9554,-7.9805,-7.9805,-7.993,-8.0635,-8.2043,-8.373,-8.4781,-8.3929,-8.1919,-7.9009,-7.6859,-7.4594,-7.0894,-6.9819,-6.9249,-6.7807,-6.6402,-6.5301,-6.5035,-6.4959,-6.4959,-6.4959,-6.4959,-6.4959,-6.4959,-6.4959,-6.4959,-6.4959,-6.4959,-6.4959,-6.4959,-6.4959,-6.4959,-6.4959,-6.5225,-6.5263,-6.4997,-6.5225,-6.5263,-6.4997,-6.4959,-6.5111,-6.5377,-6.5643,-6.606,-6.663,-6.663,-6.6478,-6.625,-6.625,-6.5794,-6.4959,-6.4959,-6.4959,0.0,0.0,0.0,-8.5826,-8.4945,-8.2886,-8.6766,-8.7341,-8.7306,-8.8242,-8.9277,-9.0027,-8.9917,-9.0293,-9.0929,-9.2002,-9.3027,-9.4101,-9.5224,-9.5956,-9.6395,-9.6395,-9.6395,-9.6005,-9.4931,-9.376,-9.2686,-9.159,-8.9318,-8.8537,-8.9953,-8.8684,-8.8537,-8.9953,-9.0001,-9.0001,-9.0001,-9.0001,-9.0001,-9.0001,-9.0001,-9.0001,-9.0001,-9.0001,-9.0001,-9.0001,-9.0001,-8.9532,-8.866,-8.7783,-8.635,-8.4902,-8.5266,-8.4097,-8.2424,-8.373,-8.1548,-7.8296,-7.9303,-7.8926,-7.8379,-7.9805,-8.1468,-8.2872,-8.3318,-8.2166,-8.0305,-7.7494,-7.5366,-7.3469,-7.0669,-7.0009,-6.9667,-6.8262,-6.6857,-6.5794,-6.5491,-6.5187,-6.4959,-6.4959,-6.4959,-6.4959,-6.4959,-6.4959,-6.4959,-6.4959,-6.4959,-6.4959,-6.4959,-6.4959,-6.4959,-6.4959,-6.4959,-6.4959,-6.4959,-6.4959,-6.4959,-6.4959,-6.4959,-6.4959,-6.4959,-6.5491,-6.5908,-6.6212,-6.6744,-6.7047,-6.7161,-6.6516,-6.5946,-6.5415,-6.5111,-6.4959,0.0,-7.9281,0.0,-8.6045,-8.6041,-8.4656,-8.6973,-8.7306,-8.7777,-8.9458,-8.9911,-9.005,-9.0099,-9.0929,-9.1954,-9.3027,-9.4101,-9.5175,-9.6249,-9.6395,-9.6395,-9.6395,-9.6395,-9.6005,-9.498,-9.3857,-9.2783,-9.1639,-9.0685,-9.0099,-9.0001,-9.0001,-9.0001,-9.0001,-9.0001,-9.0001,-9.0001,-9.0001,-9.0001,-9.0001,-9.0001,-9.0001,-9.0001,-9.0001,-9.0001,-9.0001,-9.0001,-8.9884,-8.965,-8.7188,-8.611,-8.5749,-8.466,-8.3485,-8.2424,-8.3485,-8.1424,-7.8253,-8.0891,-8.0098,-7.8379,-8.114,-8.2053,-8.1929,-8.0723,-8.018,-7.9178,-7.5237,-7.3948,-7.3209,-7.0669,-7.0009,-6.9781,-6.8946,-6.811,-6.7275,-6.6364,-6.5567,-6.5035,-6.4959,-6.4959,-6.4959,-6.4959,-6.4959,-6.4959,-6.4959,-6.4959,-6.4959,-6.4959,-6.4959,-6.4959,-6.4959,-6.4959,-6.4959,-6.4959,-6.4959,-6.4959,-6.4959,-6.4959,-6.4959,-6.4959,-6.4959,-6.5377,-6.6288,-6.625,-6.7047,-6.868,-6.7085,-6.6288,-6.6212,-6.5415,-6.4997,-8.1897,-8.3205,-8.4319,-9.249,-9.1087,-8.828,0.0,-9.0409,-8.9299,-8.9896,-8.996,-9.0245,-9.1075,-9.1347,-9.2198,-9.4101,-9.4638,-9.5175,-9.6249,-9.6395,-9.6395,-9.6395,-9.6395,-9.6298,-9.6005,-9.5029,-9.3906,-9.2832,-9.1807,-9.088,-9.005,-9.0001,-9.0001,-9.0001,-9.0001,-9.0001,-9.0001,-9.0001,-9.0001,-9.0001,-9.0001,-9.0001,-9.0001,-9.0001,-9.0001,-9.0001,-9.0001,-8.8944,-8.7068,-8.7426,-8.5869,-8.3363,-8.5024,-8.4219,-8.2132,-8.138,-7.8546,-7.5156,-7.5924,-7.5668,-7.554,-7.8253,-8.0598,-8.1929,-8.0723,-7.88,-7.6773,-7.4723,-7.2558,-7.0894,-7.0141,-7.0009,-6.9629,-6.8148,-6.8148,-6.7883,-6.5756,-6.5605,-6.5718,-6.5111,-6.4959,-6.4959,-6.4959,-6.4959,-6.4959,-6.4959,-6.4959,-6.4959,-6.4959,-6.4959,-6.4959,-6.4959,-6.4959,-6.4959,-6.4959,-6.4959,-6.4959,-6.4959,-6.4959,-6.4959,-6.4959,-6.4959,-6.5643,-6.7123,-6.6554,-6.644,-6.6895,-6.7047,-6.682,-6.625,-6.6022,-6.5567,-8.0296,-8.2055,-8.5113,0.0,-9.1621,-8.8586,-9.1282,-9.0804,-8.985,-9.0027,-9.0001,-9.0343,-9.1298,-9.2002,-9.2832,-9.454,-9.5224,-9.5712,-9.6346,-9.6395,-9.6249,-9.5761,-9.6102,-9.62,-9.5761,-9.5175,-9.4345,-9.3223,-9.2198,-9.1173,-9.0099,-9.0001,-9.0001,-9.0001,-9.0001,-9.0001,-9.0001,-9.0001,-9.0001,-9.0001,-9.0001,-9.0001,-9.0001,-9.0001,-9.0001,-9.0001,-8.9415,-8.8305,-8.6949,-8.647,-8.5024,-8.324,-8.4706,-8.3975,-8.2008,-8.0591,-7.7536,-7.3997,-7.3997,-7.3997,-7.4513,-7.724,-7.9973,-8.1761,-7.9221,-7.7409,-7.5623,-7.2949,-7.1157,-7.0009,-7.0009,-7.0009,-6.9591,-6.7845,-6.8148,-6.8186,-6.5984,-6.6174,-6.6402,-6.5187,-6.4959,-6.4959,-6.4959,-6.4959,-6.4959,-6.4959,-6.4959,-6.4959,-6.4959,-6.4959,-6.4959,-6.4959,-6.4959,-6.4959,-6.4959,-6.4959,-6.4959,-6.4959,-6.4959,-6.4959,-6.4959,-6.4959,-6.5415,-6.6326,-6.5908,-6.6022,-6.6744,-6.6857,-6.6668,-6.625,-6.625,-6.5756,-7.8396,-7.983,-8.3677,-9.068,-8.9665,-8.7472,-8.9127,-8.9776,-8.9867,-8.996,-9.0148,-9.0587,-9.1612,-9.2637,-9.3711,-9.4833,-9.5809,-9.6395,-9.6395,-9.6395,-9.6053,-9.5126,-9.5858,-9.6053,-9.5126,-9.4882,-9.4345,-9.3223,-9.2198,-9.1173,-9.0099,-9.0001,-9.0001,-9.0001,-9.0001,-9.0001,-9.0001,-9.0001,-9.0001,-9.0001,-9.0001,-9.0001,-9.0001,-9.0001,-9.0001,-8.9884,-8.8778,-8.8139,-8.7664,-8.5507,-8.4462,-8.3853,-8.3685,-8.2827,-8.1389,-7.9468,-7.6521,-7.3479,-7.3479,-7.3738,-7.4513,-7.724,-7.9723,-8.1016,-7.7155,-7.5751,-7.4723,-7.0894,-6.9876,-6.9876,-7.0009,-7.0009,-6.9629,-6.7996,-6.83,-6.8452,-6.663,-6.6857,-6.6971,-6.5301,-6.4959,-6.4959,-6.4959,-6.4959,-6.4959,-6.4959,-6.4959,-6.4959,-6.4959,-6.4959,-6.4959,-6.4959,-6.4959,-6.4959,-6.4959,-6.4959,-6.4959,-6.4959,-6.4959,-6.4959,-6.4959,-6.4959,-6.4959,-6.4959,-6.4959,-6.5718,-6.7275,-6.6668,-6.6402,-6.6402,-6.6516,-6.606,-8.4696,-8.5301,-8.5508,-8.7386,-8.8601,-8.9046,-8.7561,-8.862,-9.0027,-8.9953,-9.0733,-9.1661,-9.2686,-9.376,-9.4882,-9.5956,-9.6298,-9.6395,-9.6395,-9.6395,-9.6346,-9.6151,-9.6298,-9.6346,-9.6151,-9.5321,-9.4345,-9.3223,-9.2198,-9.1173,-9.0099,-9.0001,-9.0001,-9.0001,-9.0001,-9.0001,-9.0001,-9.0001,-9.0001,-9.0001,-9.0001,-9.0001,-9.0001,-9.0001,-9.0001,-9.0001,-8.9767,-8.8423,-8.647,-8.7188,-8.5507,-8.2379,-8.1256,-7.9968,-7.8253,-7.335,-7.1172,-7.0516,-7.0516,-7.2088,-7.4513,-7.724,-7.8422,-7.8422,-7.5966,-7.3649,-7.1512,-6.9744,-6.9251,-6.9346,-6.9876,-7.0009,-6.9781,-6.8794,-6.9211,-6.9135,-6.6744,-6.6857,-6.6971,-6.5301,-6.4959,-6.4959,-6.4959,-6.4959,-6.4959,-6.4959,-6.4959,-6.4959,-6.4959,-6.4959,-6.4959,-6.4959,-6.4959,-6.4959,-6.4959,-6.4959,-6.4959,-6.4959,-6.4959,-6.4959,-6.4959,-6.4959,-6.4959,-6.4959,-6.4959,-6.5453,-6.644,-6.6971,-6.7237,-6.7275,-6.7996,-6.7503,-8.2147,-8.3567,-8.4256,-8.2254,-8.3355,-8.5609,-8.7903,-8.8391,-8.8293,-8.8293,-8.9172,-9.0587,-9.2735,-9.4052,-9.5175,-9.6249,-9.6395,-9.6395,-9.6395,-9.6395,-9.62,-9.5663,-9.6053,-9.5956,-9.4833,-9.4784,-9.4101,-9.2442,-9.1905,-9.1173,-9.0099,-9.0001,-9.0001,-9.0001,-9.0001,-9.0001,-9.0001,-9.0001,-9.0001,-9.0001,-9.0001,-9.0001,-9.0001,-9.0001,-9.0001,-8.9884,-8.7093,-8.5896,-8.5869,-8.2278,-8.0467,-7.9848,-7.7832,-7.6521,-7.554,-7.1304,-7.0779,-7.1565,-6.8703,-7.0516,-7.3997,-7.3867,-7.477,-7.571,-7.3519,-7.2258,-7.1118,-6.9479,-6.9213,-6.9611,-6.9876,-7.0009,-6.9819,-6.8984,-6.9439,-6.9591,-6.7921,-6.7503,-6.7085,-6.587,-6.5263,-6.4959,-6.4959,-6.4959,-6.4959,-6.4959,-6.4959,-6.4959,-6.4959,-6.4959,-6.4959,-6.4959,-6.4959,-6.4959,-6.4959,-6.4959,-6.4959,-6.4959,-6.4959,-6.4959,-6.4959,-6.4959,-6.4959,-6.4959,-6.4959,-6.5377,-6.625,-6.7047,-6.7465,-6.7465,-6.8376,-6.7883,-7.9433,-8.1216,-8.2999,-8.0234,-7.9795,-8.1305,-8.6731,-8.6975,-8.639,-8.7561,-8.8098,-8.9464,-9.2881,-9.3808,-9.4638,-9.6151,-9.6395,-9.6346,-9.6102,-9.6053,-9.5663,-9.4589,-9.5175,-9.5029,-9.3271,-9.3711,-9.3418,-9.1639,-9.1298,-9.0929,-9.005,-9.0001,-9.0001,-9.0001,-9.0001,-9.0001,-9.0001,-9.0001,-9.0001,-9.0001,-9.0001,-9.0001,-9.0001,-8.9415,-8.8896,-8.802,-8.3458,-8.3014,-8.4735,-7.741,-7.5924,-7.7747,-7.4384,-7.309,-7.2831,-7.0647,-7.1172,-7.244,-6.8075,-6.9857,-7.3609,-7.0779,-7.1304,-7.2831,-7.1211,-7.0592,-7.0329,-6.9081,-6.9081,-6.9611,-6.9876,-7.0009,-6.9857,-6.9211,-6.9553,-6.9781,-6.8984,-6.8072,-6.7199,-6.6402,-6.5529,-6.5082,-6.5694,-6.5327,-6.5082,-6.5694,-6.5327,-6.4959,-6.4959,-6.4959,-6.4959,-6.4959,-6.4959,-6.4959,-6.4959,-6.4959,-6.4959,-6.4959,-6.4959,-6.4959,-6.4959,-6.4959,-6.4959,-6.4959,-6.4959,-6.5377,-6.625,-6.7047,-6.7541,-6.7769,-6.8642,-6.8224,-8.2793,-8.3411,-8.4052,-8.6577,-8.2983,-7.9312,-8.0769,-8.2583,-8.5218,-9.0148,-8.9708,-8.9708,-9.3906,-9.3174,-9.2881,-9.5907,-9.6395,-9.6053,-9.5077,-9.4931,-9.454,-9.3418,-9.3369,-9.332,-9.3125,-9.2393,-9.1807,-9.1542,-9.0733,-9.0099,-9.0001,-9.0001,-9.0001,-9.0001,-9.0001,-9.0001,-9.0001,-9.0001,-9.0001,-9.0001,-9.0001,-9.0001,-8.9884,-8.7497,-8.5127,-8.2647,-8.0876,-8.1044,-8.2166,-7.7663,-7.6817,-7.7621,-7.2219,-7.0121,-7.0121,-6.9895,-7.0027,-7.0159,-6.963,-7.1435,-7.3609,-7.0779,-7.0027,-7.0159,-6.9895,-6.8208,-6.6506,-6.7614,-6.8015,-6.8282,-6.9611,-7.0009,-7.0009,-6.9933,-6.9971,-6.9781,-6.8984,-6.8072,-6.7199,-6.6402,-6.5529,-6.5694,-6.8044,-6.6509,-6.5656,-6.8044,-6.6388,-6.4959,-6.4959,-6.4959,-6.4959,-6.4959,-6.4959,-6.4959,-6.4959,-6.4959,-6.4959,-6.4959,-6.4959,-6.4959,-6.4959,-6.4959,-6.4959,-6.4959,-6.4959,-6.5377,-6.625,-6.7047,-6.7883,-6.8718,-6.9515,-6.9439,-7.3655,-7.4879,-7.6334,-7.6651,-7.7321,-7.7897,-7.8336,-7.9068,-8.1021,-8.5804,-8.7122,-8.7512,-8.7951,-9.0489,-9.2295,-9.171,-9.376,-9.5077,-9.3955,-9.4394,-9.4394,-9.3271,-9.3125,-9.2881,-9.2295,-9.1856,-9.1368,-9.0685,-9.0245,-9.0001,-9.0001,-9.0001,-9.0001,-9.0001,-9.0001,-9.0001,-9.0001,-9.0001,-9.0001,-9.0001,-9.0001,-8.9131,-8.7664,-8.6615,-8.4643,-8.2032,-8.1415,-7.9675,-7.6775,-7.1919,-7.1172,-7.274,-6.8836,-6.7274,-6.7274,-6.7274,-6.8341,-6.9498,-6.7941,-6.9101,-7.1041,-6.8208,-6.7274,-6.7274,-6.7274,-6.7176,-6.7079,-6.7748,-6.8415,-6.9213,-6.9876,-7.0009,-7.0009,-7.0009,-7.0009,-6.9933,-6.9591,-6.887,-6.7996,-6.7123,-6.6288,-6.5938,-6.6343,-6.5572,-6.5327,-6.6266,-6.5572,-6.4959,-6.4959,-6.4959,-6.4959,-6.4959,-6.4959,-6.4959,-6.4959,-6.4959,-6.4959,-6.4959,-6.4959,-6.4959,-6.4959,-6.4959,-6.4959,-6.4959,-6.4959,-6.5377,-6.625,-6.6554,-6.7427,-6.8794,-6.9135,-6.9097,-6.8531,-6.9808,-7.167,-7.1322,-7.2938,-7.5359,-7.7604,-7.7116,0.0,0.0,-8.5706,-8.639,-8.5218,-8.7903,-8.9855,-8.8635,-9.1222,-9.3223,-9.2735,-9.3369,-9.3467,-9.2344,-9.2198,-9.1905,-9.1222,-9.1124,-9.0831,-9.0099,-9.0001,-9.0001,-9.0001,-9.0001,-9.0001,-9.0001,-9.0001,-9.0001,-9.0001,-9.0001,-9.0001,-9.0001,-9.0001,-8.7783,-8.3792,-8.3792,-8.2032,-7.9049,-7.9049,-7.6393,-7.1788,-6.8836,-6.8437,-6.9498,-6.6774,-6.5734,-6.5869,-6.664,-6.8075,-6.9498,-6.7541,-6.8208,-6.9366,-6.664,-6.5734,-6.5734,-6.5734,-6.6542,-6.7614,-6.7748,-6.8682,-6.9744,-6.9876,-7.0009,-7.0009,-7.0009,-7.0009,-7.0009,-7.0009,-6.9363,-6.8604,-6.7958,-6.7161,-6.6576,-6.644,-6.5832,-6.5509,-6.5939,-6.5449,-6.4959,-6.4959,-6.4959,-6.4959,-6.4959,-6.4959,-6.4959,-6.4959,-6.4959,-6.4959,-6.4959,-6.4959,-6.4959,-6.4959,-6.4959,-6.4959,-6.4959,-6.4959,-6.5377,-6.625,-6.625,-6.7123,-6.8794,-6.8794,-6.8946,-7.1376,-7.1697,-7.2757,-7.5296,-7.2479,-7.102,-7.8527,-7.7019,-7.6335,-8.4925,-8.6731,-8.7073,-8.8195,-8.5755,-8.4681,-8.7903,-8.9367,-9.0441,-9.1347,-9.1542,-9.127,-9.0197,-9.005,-9.005,-9.005,-9.005,-9.005,-9.0001,-9.0001,-9.0001,-9.0001,-9.0001,-9.0001,-9.0001,-9.0001,-9.0001,-9.0001,-9.0001,-9.0001,-9.0001,-9.0001,-8.5822,-7.8253,-7.8253,-7.6007,-7.2206,-7.2206,-7.0499,-6.8112,-7.0817,-7.1041,-6.9498,-6.6774,-6.5734,-6.6004,-6.8703,-6.9763,-6.9763,-6.9763,-6.9763,-6.9366,-6.664,-6.5734,-6.5734,-6.5734,-6.6273,-6.6945,-6.7614,-6.8415,-6.9081,-6.9744,-7.0009,-7.0009,-7.0009,-7.0009,-7.0009,-7.0009,-6.9363,-6.8794,-6.8794,-6.8072,-6.8047,-6.96,-6.7878,-6.6902,-6.8525,-6.6631,-6.4959,-6.4959,-6.4959,-6.4959,-6.4959,-6.4959,-6.4959,-6.4959,-6.4959,-6.4959,-6.4959,-6.4959,-6.4959,-6.4959,-6.4959,-6.4959,-6.4959,-6.4959,-6.5377,-6.625,-6.625,-6.7123,-6.8794,-6.8794,-6.9211,-6.9586,-7.0432,-7.1785,-7.4648,-7.1593,-7.0094,-7.8381,-7.8141,-7.7946,-8.434,-8.3315,-8.1167,-8.0777,-8.3461,-8.5853,-8.6146,-8.8976,-9.0977,-9.0587,-9.1173,-9.1222,-9.0148,-9.0001,-9.0001,-9.0001,-9.0001,-9.0001,-9.0001,-9.0001,-9.0001,-9.0001,-9.0001,-9.0001,-9.0001,-9.0001,-9.0001,-9.0001,-9.0001,-8.9131,-8.7379,-8.7379,-8.4082,-7.8127,-7.8127,-7.6007,-7.2075,-7.2075,-7.0499,-6.7882,-6.8777,-6.8208,-6.6908,-6.5968,-6.5734,-6.5869,-6.664,-6.7042,-6.7042,-6.7042,-6.7042,-6.6908,-6.5968,-6.5734,-6.5734,-6.5734,-6.6542,-6.7614,-6.7748,-6.8682,-6.9744,-6.9876,-7.0009,-7.0009,-7.0009,-7.0009,-7.0009,-7.0009,-6.9819,-6.9477,-6.8908,-6.8566,-6.8329,-6.83,-6.722,-6.6511,-6.6949,-6.5832,-6.4959,-6.4959,-6.4959,-6.4959,-6.4959,-6.4959,-6.4959,-6.4959,-6.4959,-6.4959,-6.4959,-6.4959,-6.4959,-6.4959,-6.4959,-6.4959,-6.4959,-6.4959,-6.5111,-6.5377,-6.5377,-6.625,-6.7883,-6.7883,-6.8642,-7.0135,-7.0812,-7.1859,-7.4308,-7.1196,-6.9551,-7.736,-7.6238,-7.5359,-8.1997,-8.1216,-7.941,-7.9556,-8.2485,-8.4974,-8.5121,-8.7756,-8.9855,-9.0001,-9.0587,-9.0782,-9.0099,-9.0001,-9.0001,-9.0001,-9.0001,-9.0001,-9.0001,-9.0001,-9.0001,-9.0001,-9.0001,-9.0001,-9.0001,-9.0001,-9.0001,-9.0001,-9.0001,-8.8139,-8.4522,-8.4522,-8.183,-7.6687,-7.6135,-7.4206,-7.1288,-7.0762,-6.9176,-6.7079,-6.7079,-6.6542,-6.5734,-6.5734,-6.5734,-6.5734,-6.5734,-6.5734,-6.5734,-6.5734,-6.5734,-6.5734,-6.5734,-6.5734,-6.5734,-6.5734,-6.6676,-6.7882,-6.7882,-6.8815,-7.0009,-7.0009,-7.0009,-7.0009,-7.0009,-7.0009,-7.0009,-7.0009,-7.0009,-6.9857,-6.9363,-6.9249,-6.8984,-6.811,-6.7541,-6.6971,-6.6326,-6.5794,-6.5339,-6.4997,-6.4959,-6.4959,-6.4959,-6.4959,-6.4959,-6.4959,-6.4959,-6.4959,-6.4959,-6.4959,-6.4959,-6.4959,-6.4959,-6.4959,-6.4959,-6.4959,-6.4959,-6.4959,-6.4959,-6.5832,-6.7465,-6.7465,-6.8376,-7.275,-7.2861,-7.2986,-7.4614,-7.1455,-6.9746,-7.614,-7.2675,-7.0429,-7.8673,-8.0135,-8.0679,-8.2827,-8.2494,-8.2543,-8.4681,-8.6097,-8.761,-8.9513,-8.9806,-8.9806,-8.9806,-8.9806,-8.9806,-8.9806,-8.9904,-9.0001,-9.0001,-9.0001,-9.0001,-9.0001,-9.0001,-9.0001,-9.0001,-9.0001,-9.0001,-9.0001,-9.0001,-8.7331,-8.2099,-8.1741,-7.9049,-7.4166,-7.2689,-7.1157,-6.9801,-6.8496,-6.7237,-6.5698,-6.586,-6.5896,-6.5734,-6.5734,-6.5734,-6.5734,-6.5734,-6.5734,-6.5734,-6.5734,-6.5734,-6.5734,-6.5734,-6.5734,-6.5734,-6.5734,-6.681,-6.7882,-6.7882,-6.8948,-7.0009,-7.0009,-7.0009,-7.0009,-7.0009,-7.0009,-7.0009,-7.0009,-7.0009,-7.0009,-7.0009,-7.0009,-6.9781,-6.9022,-6.8832,-6.8262,-6.6668,-6.6364,-6.6022,-6.5149,-6.5073,-6.5035,-6.4959,-6.4959,-6.4959,-6.4959,-6.4959,-6.4959,-6.4959,-6.4959,-6.4959,-6.4959,-6.4959,-6.4959,-6.4959,-6.4959,-6.4959,-6.4959,-6.5035,-6.587,-6.7465,-6.7503,-6.8452,-7.599,-7.5145,-7.4645,-7.7401,-7.5866,-7.5115,-8.0777,-7.7702,-7.5164,-8.0484,-7.8971,0.0,0.0,-7.9654,-8.0484,-8.3412,-8.6926,-8.883,-8.7659,-8.7512,-8.7512,-8.7512,-8.7512,-8.7512,-8.7512,-8.9025,-9.0001,-9.0001,-9.0001,-9.0001,-9.0001,-9.0001,-9.0001,-9.0001,-9.0001,-9.0001,-9.0001,-9.0001,-8.7443,-8.2623,-7.9062,-7.5939,-7.311,-7.1281,-6.9706,-6.8437,-6.9561,-6.842,-6.5762,-6.7285,-6.7023,-6.5734,-6.5734,-6.5734,-6.5734,-6.5734,-6.5734,-6.5734,-6.5734,-6.5734,-6.5734,-6.5734,-6.6138,-6.6542,-6.6542,-6.7614,-6.8682,-6.8682,-6.9346,-7.0009,-7.0009,-7.0009,-7.0009,-7.0009,-7.0009,-7.0009,-7.0009,-7.0009,-7.0009,-7.0009,-7.0009,-6.9971,-6.9781,-6.9211,-6.868,-6.8262,-6.7617,-6.6857,-6.606,-6.5946,-6.5681,-6.5035,-6.4959,-6.4959,-6.4959,-6.4959,-6.4959,-6.4959,-6.4959,-6.4959,-6.4959,-6.4959,-6.4959,-6.4959,-6.4959,-6.4959,-6.4959,-6.5605,-6.644,-6.7465,-6.8148,-6.9022,-7.6739,-7.6772,-7.6503,-7.5228,-7.4523,-7.4773,-7.7167,-7.5506,-7.4626,0.0,0.0,0.0,0.0,-8.1948,-8.351,-8.229,-8.4877,-8.6634,-8.5413,-8.6097,-8.639,-8.5365,-8.7024,-8.7854,-8.6829,-8.8732,-9.0001,-9.0001,-9.0001,-9.0001,-9.0001,-9.0001,-9.0245,-9.0733,-9.0294,-9.0245,-9.0782,-8.9019,-8.6334,-8.2746,-7.8226,-7.4933,-7.2829,-7.0178,-6.8511,-6.7808,-6.8293,-6.7356,-6.5797,-6.6814,-6.6734,-6.5734,-6.5734,-6.5734,-6.5734,-6.5734,-6.5734,-6.5734,-6.5734,-6.6004,-6.6273,-6.6273,-6.6676,-6.7347,-6.7347,-6.8149,-6.8985,-6.8985,-6.9479,-7.0009,-7.0009,-7.0009,-7.0009,-7.0009,-7.0009,-7.0009,-7.0009,-7.0009,-7.0009,-7.0009,-7.0009,-7.0009,-7.0009,-6.9667,-6.9211,-6.887,-6.8376,-6.7769,-6.6895,-6.6478,-6.606,-6.5605,-6.5187,-6.4959,-6.4959,-6.4959,-6.4959,-6.4959,-6.4959,-6.4959,-6.4959,-6.4959,-6.4959,-6.4959,-6.4959,-6.4959,-6.4959,-6.5832,-6.6668,-6.7465,-6.8376,-6.9249,-7.6046,-7.7186,-7.7208,-7.1705,-7.1265,-7.1991,-7.1841,-7.1498,0.0,0.0,0.0,0.0,0.0,-8.4486,-8.6682,-8.0915,-8.1753,-8.3168,-8.351,-8.5121,-8.556,-8.3754,-8.678,-8.8439,-8.6878,-8.8732,-9.0001,-9.0001,-9.0001,-9.0001,-9.0001,-9.0197,-9.0685,-9.1612,-9.0733,-9.0546,-9.1209,-8.6986,-8.4035,-8.2164,-7.7357,-7.4216,-7.2457,-6.9043,-6.7481,-6.7444,-6.6521,-6.6021,-6.5698,-6.5949,-6.6021,-6.5734,-6.5734,-6.5734,-6.5734,-6.5734,-6.5734,-6.5734,-6.5734,-6.6273,-6.6945,-6.6945,-6.7481,-6.8015,-6.8015,-6.8549,-6.9081,-6.9081,-6.9479,-7.0009,-7.0009,-7.0009,-7.0009,-7.0009,-7.0009,-7.0009,-7.0009,-7.0009,-7.0009,-7.0009,-7.0009,-7.0009,-7.0009,-7.0009,-6.9781,-6.9097,-6.8984,-6.868,-6.7769,-6.7047,-6.6516,-6.625,-6.5605,-6.5111,-6.4997,-6.4959,-6.4959,-6.4959,-6.4959,-6.4959,-6.4959,-6.4959,-6.4959,-6.4959,-6.4959,-6.4959,-6.4959,-6.5946,-6.6782,-6.7465,-6.849,-6.9363,-7.44,-7.4214,-7.3988,-7.2379,-7.1488,-7.1938,-7.5359,0.0,-7.409,-7.6628,-7.8873,-7.9404,-7.6774,-7.9312,-8.111,-7.9312,-8.0045,-8.146,-8.3266,-8.3803,-8.39,-8.3559,-8.4144,-8.5121,-8.6585,-8.8732,-9.0001,-9.0001,-9.0001,-9.0001,-9.0001,-9.088,-9.1466,-9.1493,-9.1347,-9.0729,-8.961,-8.272,-7.9425,-7.9458,-7.3662,-7.0929,-7.1007,-6.7562,-6.6004,-6.6031,-6.7562,-6.7229,-6.5896,-6.7524,-6.7136,-6.5734,-6.5734,-6.5734,-6.5734,-6.5734,-6.5734,-6.5734,-6.5734,-6.6273,-6.6945,-6.7481,-6.8149,-6.8852,-6.8852,-6.9346,-6.9876,-6.9876,-6.9876,-7.0009,-7.0009,-7.0009,-7.0009,-7.0009,-7.0009,-7.0009,-7.0009,-7.0009,-7.0009,-7.0009,-7.0009,-7.0009,-7.0009,-7.0009,-6.9971,-6.9857,-6.9819,-6.9515,-6.8718,-6.849,-6.7845,-6.6402,-6.6136,-6.5756,-6.5035,-6.4959,-6.4959,-6.4959,-6.4959,-6.4959,-6.4959,-6.4959,-6.4959,-6.4959,-6.4959,-6.4959,-6.4959,-6.6516,-6.7313,-6.7503,-6.9097,-6.9895,-7.3556,-7.2071,-7.0828,-6.9878,-7.1064,-7.2772,-7.4188,-7.5115,-7.6286,-7.8434,-7.9551,-7.9794,-7.8434,-8.0289,-8.1558,-7.9794,-8.1021,-8.2436,-8.3412,-8.4535,-8.4828,-8.3705,-8.5609,-8.6975,-8.678,-8.8732,-9.0001,-9.0001,-9.0001,-9.0001,-9.0001,-9.1026,-9.1737,-9.2393,-9.0488,-8.8687,-8.688,-8.1574,-7.858,-7.7699,-7.2512,-7.0422,-7.0946,-6.7378,-6.6267,-6.7322,-6.708,-6.658,-6.5797,-6.6698,-6.6447,-6.5734,-6.5734,-6.5734,-6.5734,-6.5734,-6.6004,-6.6273,-6.6273,-6.681,-6.7481,-6.8282,-6.8948,-6.9479,-6.9479,-6.9744,-7.0009,-7.0009,-7.0009,-7.0009,-7.0009,-7.0009,-7.0009,-7.0009,-7.0009,-7.0009,-7.0009,-7.0009,-7.0009,-7.0009,-7.0009,-7.0009,-7.0009,-7.0009,-7.0009,-7.0009,-7.0009,-6.9895,-6.9515,-6.9059,-6.849,-6.7693,-6.6782,-6.606,-6.5681,-6.5225,-6.4959,-6.4959,-6.4959,-6.4959,-6.4959,-6.4959,-6.4959,-6.4959,-6.4959,-6.5187,-6.5643,-6.6857,-6.7693,-6.8224,-6.9439,-7.0141,-7.3458,0.0,-7.0777,-7.0192,-7.2235,-7.4188,0.0,-7.5359,-7.7311,-7.9215,-7.9892,-8.0087,-7.9599,-8.1362,-8.2094,-7.9947,-8.1802,-8.3363,-8.2875,-8.4633,-8.5365,-8.3754,-8.6926,-8.8781,-8.761,-8.9025,-9.0001,-9.0001,-8.9415,-8.9131,-8.9131,-8.9623,-9.0314,-9.1201,-8.8045,-8.5625,-8.4127,-8.0124,-7.7323,-7.5673,-7.1462,-7.006,-7.1053,-6.7452,-6.6756,-6.8493,-6.6543,-6.5734,-6.5734,-6.5734,-6.5734,-6.5734,-6.5734,-6.5734,-6.5734,-6.5734,-6.6138,-6.681,-6.681,-6.7347,-6.8149,-6.8815,-6.9479,-7.0009,-7.0009,-7.0009,-7.0009,-7.0009,-7.0009,-7.0009,-7.0009,-7.0009,-7.0009,-7.0009,-7.0009,-7.0009,-7.0009,-7.0009,-7.0009,-7.0009,-7.0009,-7.0009,-7.0009,-7.0009,-7.0009,-7.0009,-7.0009,-7.0009,-7.0009,-6.9477,-6.9022,-6.8832,-6.7427,-6.644,-6.625,-6.5643,-6.5263,-6.5263,-6.5073,-6.4959,-6.4959,-6.4959,-6.4959,-6.4959,-6.4959,-6.5301,-6.5946,-6.6971,-6.7921,-6.8832,-6.9629,-7.0367,0.0,-7.5575,-7.6823,-7.7751,-7.6677,-7.5945,-7.7848,-7.6921,0.0,-7.7165,-7.8971,-7.9648,-7.7751,-7.9117,-7.9794,-7.7751,-8.0874,-8.2875,-8.0769,-8.2436,-8.3705,-8.3559,-8.556,-8.7707,-8.9611,-8.9904,-9.0001,-9.0001,-8.7783,-8.6376,-8.6376,-8.574,-8.5443,-8.5487,-8.3795,-8.2307,-8.1321,-7.6417,-7.3386,-7.2401,-6.9366,-6.8946,-7.0682,-6.7262,-6.6756,-6.8493,-6.6543,-6.5734,-6.5734,-6.5734,-6.5734,-6.5734,-6.5734,-6.5734,-6.5734,-6.5734,-6.6138,-6.681,-6.681,-6.7748,-6.8948,-6.8948,-6.9479,-7.0009,-7.0009,-7.0009,-7.0009,-7.0009,-7.0009,-7.0009,-7.0009,-7.0009,-7.0009,-7.0009,-7.0009,-7.0009,-7.0009,-7.0009,-7.0009,-7.0009,-7.0009,-7.0009,-7.0009,-7.0009,-7.0009,-7.0009,-7.0009,-7.0009,-7.0009,-6.9971,-6.9629,-6.887,-6.7921,-6.7047,-6.6288,-6.6174,-6.6136,-6.6136,-6.5415,-6.4959,-6.4959,-6.4959,-6.4959,-6.4959,-6.4959,-6.4997,-6.5073,-6.6668,-6.7921,-6.8832,-6.9629,-7.0367,-7.6669,-7.7565,-7.8239,-7.8678,-7.9166,-7.9513,-7.8873,-7.8629,-7.8288,-7.736,-7.7799,-7.8141,-7.7311,-7.7799,-7.8532,-7.9068,-8.0484,-8.2192,-8.3986,-8.5023,-8.6048,-8.7415,-8.8293,-8.8494,-8.7687,-8.7806,-8.7217,-8.5201,-8.4492,-8.3949,-8.358,-8.441,-8.2536,-7.732,-7.7984,-7.7523,-7.5833,-7.3355,-7.1207,-6.9441,-6.8415,-6.8368,-6.9338,-6.6903,-6.6756,-6.8493,-6.6543,-6.6424,0.0,-6.6206,-6.6424,-6.734,-6.6242,-6.5734,-6.5734,-6.6273,-6.681,-6.7481,-6.8015,-6.8815,-6.9611,-6.9611,-6.9744,-7.0009,-7.0009,-7.0009,-7.0009,-7.0009,-7.0009,-7.0009,-7.0009,-7.0009,-7.0009,-7.0009,-7.0009,-7.0009,-7.0009,-7.0009,-7.0009,-7.0009,-7.0009,-7.0009,-7.0009,-7.0009,-7.0009,-7.0009,-7.0009,-7.0009,-7.0009,-7.0009,-6.9895,-6.9591,-6.8794,-6.8148,-6.7845,-6.7313,-6.6782,-6.625,-6.5946,-6.5529,-6.4997,-6.4959,-6.4959,-6.4959,-6.4959,-6.4959,-6.4959,-6.663,-6.8186,-6.9553,-6.9857,-7.0367,-7.8797,-8.0092,-8.1265,-8.1265,-8.2387,-8.2924,-8.0777,-8.0337,-7.9648,-7.7604,-7.7165,-7.7165,-7.7165,-7.7165,-7.7848,-7.9892,-8.0233,0.0,0.0,0.0,-8.6536,-8.8732,-8.828,-8.7656,-8.7331,-8.6799,-8.5227,-8.2312,-8.1146,-8.0483,-8.0087,-8.1111,-7.8921,-7.3048,-7.4267,-7.4032,-7.2097,-7.1121,-6.9733,-6.7882,-6.7347,-6.7713,-6.8581,-6.6639,-6.6756,-6.8493,-6.6543,-6.6851,-6.8532,-6.6447,-6.6814,-6.8444,-6.6484,-6.5869,-6.6138,-6.6676,-6.7481,-6.8282,-6.8815,-6.9479,-7.0009,-7.0009,-7.0009,-7.0009,-7.0009,-7.0009,-7.0009,-7.0009,-7.0009,-7.0009,-7.0009,-7.0009,-7.0009,-7.0009,-7.0009,-7.0009,-7.0009,-7.0009,-7.0009,-7.0009,-7.0009,-7.0009,-7.0009,-7.0009,-7.0009,-7.0009,-7.0009,-7.0009,-7.0009,-7.0009,-7.0009,-7.0009,-6.9287,-6.8908,-6.9173,-6.8376,-6.7617,-6.7085,-6.6516,-6.5984,-6.5377,-6.5111,-6.4959,-6.4959,-6.4959,-6.4959,-6.4959,-6.663,-6.8201,-6.9473,-6.9913,-7.0367,-8.046,-8.3401,-8.6731,-8.6731,-8.678,-8.6194,-8.4047,-8.1899,-7.9697,-7.7604,-7.7165,-7.7165,-7.7165,-7.7165,-7.7848,-7.9892,0.0,0.0,-8.3266,-8.3559,-8.4388,-8.6536,-8.4408,-8.4752,-8.9524,-8.7616,-8.4839,-8.2155,-7.8252,-7.5969,-7.6011,-7.5065,-7.4226,-7.3405,-7.2971,-7.2195,-7.1358,-6.9874,-6.8692,-6.7748,-6.6407,-6.6661,-6.8454,-6.6507,-6.6756,-6.8493,-6.6543,-6.6814,-6.8493,-6.658,-6.6909,-6.8405,-6.6484,-6.6138,-6.681,-6.6945,-6.7748,-6.8985,-6.8985,-6.9479,-7.0009,-7.0009,-7.0009,-7.0009,-7.0009,-7.0009,-7.0009,-7.0009,-7.0009,-7.0009,-7.0009,-7.0009,-7.0009,-7.0009,-7.0009,-7.0009,-7.0009,-7.0009,-7.0009,-7.0009,-7.0009,-7.0009,-7.0009,-7.0009,-7.0009,-7.0009,-7.0009,-7.0009,-7.0009,-7.0009,-7.0009,-7.0009,-6.9287,-6.9135,-6.9971,-6.9287,-6.8794,-6.8794,-6.7199,-6.625,-6.625,-6.5415,-6.4997,-6.4997,-6.4959,-6.4959,-6.4959,-6.663,-6.7847,-6.8686,-6.9473,-7.0367,-8.0149,-8.3401,-8.6731,-8.6731,-8.7903,-8.8098,-8.4388,-8.3071,-8.1558,-7.7897,-7.7165,-7.7165,-7.7165,-7.7165,-7.7848,0.0,0.0,-8.15,-8.5267,-8.5804,-8.6585,-8.8781,-8.6712,-8.5745,-8.7576,-8.3631,-7.9543,-7.5885,-7.4523,-7.3595,-7.322,-7.2693,-7.1181,-6.8924,-6.9726,-6.959,-6.8206,-6.7155,-6.6623,-6.6273,-6.5869,-6.5985,-6.6543,-6.6021,-6.5985,-6.658,-6.5887,-6.7541,-7.0257,-6.6986,-6.7982,-7.1063,-6.7714,-6.6945,-6.7614,-6.8149,-6.8682,-6.9081,-6.9479,-6.9876,-7.0009,-7.0009,-7.0009,-7.0009,-7.0009,-7.0009,-7.0009,-7.0009,-7.0009,-7.0009,-7.0009,-7.0009,-7.0009,-7.0009,-7.0009,-7.0009,-7.0009,-7.0009,-7.0009,-7.0009,-7.0009,-7.0009,-7.0009,-7.0009,-7.0009,-7.0009,-7.0009,-7.0009,-7.0009,-7.0009,-7.0009,-7.0009,-6.9781,-6.9743,-7.0009,-6.9781,-6.9401,-6.8832,-6.8338,-6.7769,-6.7123,-6.6288,-6.587,-6.587,-6.5263,-6.4959,-6.4959,-6.663,-6.7592,-6.7885,-6.9342,-7.0141,-8.185,-8.4437,-8.6829,-8.7317,-8.8732,-8.9123,-8.5609,-8.4144,-8.2583,-7.9166,-7.7751,-7.7409,-7.8288,-7.8434,-7.9117,0.0,0.0,0.0,-8.4974,-8.4522,-8.4729,-8.6888,-8.4801,-8.3665,-8.478,-7.9861,-7.5866,-7.4232,-7.268,-7.1544,-7.1211,-7.0426,-6.912,-6.7363,-6.7634,-6.7399,-6.6411,-6.5948,-6.5734,-6.5734,-6.5734,-6.5734,-6.5734,-6.5734,-6.5869,-6.6138,-6.5869,-6.7654,-7.038,-6.7453,-6.8224,-7.1108,-6.8311,-6.7748,-6.8415,-6.8815,-6.9081,-6.9479,-6.9876,-7.0009,-7.0009,-7.0009,-7.0009,-7.0009,-7.0009,-7.0009,-7.0009,-7.0009,-7.0009,-7.0273,-7.1288,-7.1682,-7.1944,-7.2949,-7.1551,-7.0273,-7.142,-7.0801,-7.0009,-7.0009,-7.0009,-7.0009,-7.0009,-7.0009,-7.0009,-7.0009,-7.0009,-7.0009,-7.0009,-7.0009,-7.0009,-7.0009,-7.0009,-7.0009,-7.0009,-7.0009,-6.9819,-6.9325,-6.8984,-6.8376,-6.7503,-6.6668,-6.606,-6.5718,-6.5225,-6.4959,-6.4959,-6.663,-6.7592,-6.8012,-6.9342,-7.0141,-8.4437,-8.5853,-8.7024,-8.8147,-8.922,-8.9416,-8.6975,-8.4925,-8.2875,-8.0533,-7.8532,-7.7751,-7.9599,-7.994,-8.072,0.0,0.0,-8.0939,-8.3184,-8.1446,-8.0648,-8.2513,0.0,0.0,-8.1341,-7.6259,-7.3528,-7.5257,-7.2113,-7.0044,-6.9801,-6.8511,-6.7748,-6.7614,-6.6407,-6.5734,-6.5734,-6.5734,-6.5734,-6.5734,-6.5734,-6.5734,-6.5734,-6.5734,-6.6138,-6.681,-6.6138,-6.7339,-6.9542,-6.7673,-6.8125,-6.9707,-6.8463,-6.8415,-6.9118,-6.9118,-6.9479,-7.0009,-7.0009,-7.0009,-7.0009,-7.0009,-7.0009,-7.0009,-7.0009,-7.0009,-7.0009,-7.0273,-7.0405,-7.1026,-7.3689,-7.4206,-7.4723,-7.7113,-7.3818,-7.0669,-7.3209,-7.1682,-7.0009,-7.0009,-7.0009,-7.0009,-7.0009,-7.0009,-7.0009,-7.0009,-7.0009,-7.0009,-7.0009,-7.0009,-7.0009,-7.0009,-7.0009,-7.0009,-7.0009,-7.0009,-7.0009,-7.0009,-6.9325,-6.849,-6.7617,-6.6782,-6.5946,-6.5111,-6.4997,-6.4959,-6.4959,-6.6554,-6.7771,-6.8559,-6.9396,-7.0159,-8.351,-8.5267,-8.7024,-8.8147,-8.922,-8.8976,-8.5121,-8.3852,-8.2436,-7.8629,-7.7458,-7.7311,-7.7751,-7.7848,-7.845,-8.0214,-8.0119,-8.0543,-8.2728,-8.2438,-8.2233,-8.2815,-8.0523,-7.8638,-7.7983,-7.4883,-7.2125,-7.0274,-7.0518,-6.987,-6.8437,-6.8015,-6.7347,-6.6138,-6.5869,-6.5734,-6.5734,-6.5734,-6.5734,-6.5734,-6.5734,-6.5734,-6.5734,-6.6273,-6.6676,-6.6945,-6.7213,-6.8554,-7.0336,-6.8463,-6.9038,-7.1127,-6.9418,-6.9213,-6.9744,-6.9744,-6.9876,-7.0009,-7.0009,-7.0009,-7.0009,-7.0009,-7.0009,-7.0009,-7.0009,-7.0009,-7.0405,-7.2558,-7.3209,-7.3818,-7.6476,-7.5751,-7.4206,-7.4851,-7.2428,-7.0141,-7.0762,-7.0405,-7.0009,-7.0009,-7.0009,-7.0009,-7.0009,-7.0009,-7.0009,-7.0009,-7.0009,-7.0009,-7.0009,-7.0009,-7.0009,-7.0009,-7.0009,-7.0009,-7.0009,-7.0009,-7.0009,-7.0009,-6.9857,-6.9363,-6.8528,-6.7655,-6.682,-6.5984,-6.5301,-6.4959,-6.4959,-6.5984,-6.6946,-6.7758,-6.8695,-6.9532,-8.3998,-8.5511,-8.7122,-8.8781,-8.9611,-8.9416,-8.717,-8.5853,-8.4144,-8.0874,-7.941,-7.8678,-7.8678,-7.8678,-7.8871,-7.9646,-8.0718,-8.1161,-7.9874,-8.0455,-8.0629,-7.9509,-7.8004,-7.6397,-7.4688,-7.2865,-7.0825,-6.8361,-6.8954,-6.8592,-6.6872,-6.7481,-6.7359,-6.6269,-6.6269,-6.6447,-6.6875,-6.6875,-6.6661,-6.6269,-6.6269,-6.6091,-6.5734,-6.6542,-6.7297,-6.8066,-6.8336,-6.9251,-7.0423,-6.9401,-6.9517,-7.036,-6.9799,-6.9611,-7.0009,-7.0009,-7.0009,-7.0009,-7.0009,-7.0009,-7.0009,-7.0009,-7.0009,-7.0009,-7.0009,-7.0009,-7.0537,-7.33,-7.4077,-7.498,-7.9052,-7.8,-7.6007,-7.6007,-7.498,-7.3209,-7.0537,-7.0009,-7.0009,-7.0009,-7.0009,-7.0009,-7.0009,-7.0009,-7.0009,-7.0009,-7.0009,-7.0009,-7.0009,-7.0009,-7.0009,-7.0009,-7.0009,-7.0009,-7.0009,-7.0009,-6.9857,-6.9439,-6.9439,-6.887,-6.7617,-6.7123,-6.6478,-6.5643,-6.5187,-6.4959,-6.4959,-6.5832,-6.6668,-6.7465,-6.8376,-6.9249,-8.5023,-8.6048,-8.7268,-8.9464,-9.0001,-8.9904,-8.9562,-8.8049,-8.6146,-8.3998,-8.2143,-8.0672,-8.033,-8.0233,-8.0175,-7.9787,-8.1492,-8.1672,-7.8022,-7.8735,-7.8949,-7.706,-7.6022,-7.4812,-7.3011,-7.1691,-7.0177,-6.8038,-6.7986,-6.7403,-6.6206,-6.7403,-6.7578,-6.6625,-6.6804,-6.7267,-6.8087,-6.8087,-6.7766,-6.7089,-6.7089,-6.6768,-6.6126,-6.7074,-6.8164,-6.9464,-6.964,-7.0144,-7.0672,-7.0587,-7.0189,-6.9439,-6.9971,-7.016,-7.0009,-7.0009,-7.0009,-7.0009,-7.0009,-7.0009,-7.0047,-7.0198,-7.035,-7.0464,-7.0464,-7.0464,-7.0958,-7.3777,-7.456,-7.5687,-8.0659,-7.9774,-7.7619,-7.7619,-7.7111,-7.5494,-7.0894,-7.0009,-7.0009,-7.0009,-7.0009,-7.0009,-7.0009,-7.0009,-7.0009,-7.0009,-7.0009,-7.0009,-7.0009,-7.0009,-7.0009,-7.0009,-7.0009,-7.0009,-7.0009,-7.0009,-6.9667,-6.887,-6.8794,-6.8034,-6.6288,-6.625,-6.5832,-6.4997,-6.4959,-6.4959,-6.4959,-6.5681,-6.6516,-6.7465,-6.8224,-6.9097,-8.5755,-8.6634,-8.7268,-8.9464,-9.0001,-8.9513,-8.761,-8.6975,-8.6146,-8.3998,-8.3315,-8.2534,-8.0574,-8.0233,-8.0175,-7.9787,-8.0004,-8.0678,-8.1835,-8.2142,-8.2142,-8.191,-7.9752,-7.7637,-7.5718,-7.3319,-7.0756,-6.7978,-6.8231,-6.8382,-6.8255,-6.8343,-6.7729,-6.5976,-6.6518,-6.7267,-6.8087,-6.8087,-6.8051,-6.7944,-6.7944,-6.7873,-6.7766,-6.929,-7.0114,-7.0632,-7.1569,-7.2372,-7.272,-7.2317,-7.1733,-7.0975,-7.111,-7.0654,-7.0009,-7.0009,-7.0009,-7.0009,-7.0009,-7.0009,-7.016,-7.0882,-7.1603,-7.2173,-7.2173,-7.2173,-7.2679,-7.5435,-7.6237,-7.6996,-8.0025,-7.8264,-7.5597,-7.5597,-7.3202,-7.0932,-7.0141,-7.0009,-7.0009,-7.0009,-7.0009,-7.0009,-7.0009,-7.0009,-7.0009,-7.0009,-7.0009,-7.0009,-7.0009,-7.0009,-7.0009,-7.0009,-7.0009,-7.0009,-7.0009,-7.0009,-6.9667,-6.887,-6.8794,-6.8034,-6.6288,-6.625,-6.5832,-6.4997,-6.4959,-6.4959,-6.4959,-6.5073,-6.5946,-6.7465,-6.7579,-6.849,-8.351,-8.4925,-8.639,-8.8586,-8.9123,-8.9025,-8.8684,-8.8586,-8.7951,-8.5804,-8.4388,-8.2875,-8.0623,-7.9258,-7.8252,-7.7547,-7.8911,-7.9616,-7.8448,-7.999,-8.0363,-7.8522,-7.7382,-7.5923,-7.4005,-7.2036,-7.0563,-6.9561,-6.8642,-6.7844,-6.706,-6.6929,-6.6858,-6.634,-6.716,-6.7944,-6.8729,-6.9156,-6.9156,-6.8729,-6.8729,-6.8515,-6.8087,-6.9582,-7.073,-7.1316,-7.2529,-7.3198,-7.3411,-7.3253,-7.2704,-7.1983,-7.1983,-7.1451,-7.0768,-7.1224,-7.111,-7.073,-7.073,-7.1034,-7.1489,-7.1831,-7.2211,-7.2514,-7.2514,-7.2514,-7.3023,-7.5793,-7.6599,-7.7227,-8.0011,-7.8401,-7.5876,-7.5354,-7.292,-7.0578,-7.0123,-7.0009,-7.0009,-7.0009,-7.0009,-7.0009,-7.0009,-7.0009,-7.0009,-7.0009,-7.0009,-7.0009,-7.0009,-7.0009,-7.0009,-7.0009,-7.0009,-7.0009,-7.0009,-7.0009,-6.9439,-6.811,-6.8034,-6.7275,-6.5605,-6.5529,-6.5339,-6.4959,-6.4959,-6.4959,-6.4959,-6.4959,-6.5832,-6.7465,-6.7465,-6.7432,-8.2006,-8.351,-8.5267,-8.7463,-8.8,-8.8293,-8.9367,-8.9611,-8.922,-8.7854,-8.6292,-8.4412,-8.1709,-8.0011,-7.862,-7.7328,-7.9003,-7.9751,-7.7386,-7.8879,-7.9266,-7.7131,-7.6011,-7.5051,-7.4103,-7.2088,-7.0785,-7.0797,-6.9045,-6.769,-6.6812,-6.6715,-6.6857,-6.716,-6.798,-6.8657,-6.9228,-7.0012,-7.0083,-6.9513,-6.9691,-6.9511,-6.8975,-7.0481,-7.156,-7.2355,-7.345,-7.407,-7.4186,-7.4046,-7.3539,-7.2818,-7.2818,-7.2325,-7.1679,-7.2287,-7.2097,-7.1641,-7.1831,-7.2438,-7.3084,-7.2894,-7.297,-7.3122,-7.3122,-7.3122,-7.3536,-7.5652,-7.6197,-7.674,-7.8723,-7.762,-7.5682,-7.5009,-7.3009,-7.111,-7.0464,-7.016,-7.0009,-7.0009,-7.0009,-7.0009,-7.0009,-7.0009,-7.0009,-7.0009,-7.0009,-7.0009,-7.0009,-7.0009,-7.0009,-7.0009,-7.0009,-6.9933,-6.9743,-6.9705,-6.8984,-6.7237,-6.7123,-6.6478,-6.5035,-6.4959,-6.4959,-6.4959,-6.4959,-6.4959,-6.4959,-6.4959,-6.5718,-6.7123,-6.7123,-6.6449,-8.2631,-8.3559,-8.4144,-8.6292,-8.6829,-8.7122,-8.8244,-8.8488,-8.8781,-8.966,-8.9757,-8.8503,-8.4686,-8.3935,-8.327,-8.1419,-8.1262,-8.1741,-8.2773,-8.1851,-8.1415,-8.2325,-7.8968,-7.731,-7.912,-7.535,-7.2209,-7.0842,-6.9377,-6.8879,-6.9471,-6.9509,-6.9121,-6.7944,-6.8764,-6.9192,-6.9228,-7.0012,-7.0368,-7.0333,-7.1053,-7.1341,-7.1448,-7.3022,-7.3956,-7.4282,-7.4818,-7.5162,-7.5514,-7.5134,-7.4413,-7.3653,-7.3653,-7.316,-7.2438,-7.2476,-7.2476,-7.2552,-7.3312,-7.4147,-7.4716,-7.3919,-7.4185,-7.4868,-7.4868,-7.4868,-7.501,-7.5151,-7.5151,-7.5113,-7.5254,-7.4541,-7.3754,-7.3716,-7.2537,-7.1261,-7.1224,-7.0578,-7.0009,-7.0009,-7.0009,-7.0009,-7.0009,-7.0009,-7.0009,-7.0009,-7.0009,-7.0009,-7.0009,-7.0009,-7.0009,-7.0009,-7.0009,-6.9705,-6.8946,-6.887,-6.8148,-6.6402,-6.6288,-6.5908,-6.4997,-6.4959,-6.4959,-6.4959,-6.4959,-6.4959,-6.4959,-6.4959,-6.5415,-6.6288,-6.6288,-6.5633,-8.0337,-8.1997,-8.39,-8.5365,-8.6243,-8.7219,-8.9025,-8.8928,-8.8928,-9.0685,-8.9953,-8.8726,-8.8034,-8.5297,-8.2874,-8.1809,-8.0396,-7.9389,-7.9171,-7.935,-7.8801,-7.703,-7.6812,-7.602,-7.3694,-7.1894,-7.0922,-7.1183,-6.842,-6.7123,-6.7798,-6.7969,-6.8206,-6.8764,-6.9085,-6.9477,-6.9976,-7.0261,-7.0368,-7.0368,-7.1125,-7.1557,-7.1557,-7.317,-7.3963,-7.407,-7.4743,-7.5153,-7.5179,-7.5166,-7.4792,-7.4527,-7.4527,-7.4033,-7.335,-7.3881,-7.3729,-7.3388,-7.4261,-7.4716,-7.4944,-7.464,-7.4754,-7.4982,-7.4982,-7.4982,-7.4982,-7.4982,-7.4982,-7.4982,-7.4982,-7.4754,-7.4261,-7.3198,-7.2476,-7.1755,-7.0692,-7.0236,-7.0009,-7.0009,-7.0009,-7.0009,-7.0009,-7.0009,-7.0009,-7.0009,-6.9591,-6.9439,-6.9971,-7.0009,-7.0009,-7.0009,-6.9553,-6.9135,-6.8832,-6.8262,-6.7427,-6.6288,-6.625,-6.587,-6.4997,-6.4959,-6.4959,-6.4959,-6.4959,-6.4959,-6.4959,-6.4959,-6.5415,-6.6212,-6.4453,-6.2668,-8.0581,-8.1411,-8.2875,-8.4681,-8.5413,-8.6438,-8.9367,-8.9464,-8.9562,-9.171,-9.0977,-9.0108,-9.0175,-8.721,-8.4246,-8.2764,-8.0828,-7.9102,-7.747,-7.7381,-7.6902,-7.5013,-7.5355,-7.4879,-7.2826,-7.0874,-6.9943,-7.0137,-6.7731,-6.6554,-6.7623,-6.7659,-6.8265,-6.9584,-6.962,-6.9869,-7.0368,-7.0368,-7.0548,-7.0837,-7.1269,-7.1844,-7.2418,-7.3741,-7.431,-7.431,-7.484,-7.4982,-7.4982,-7.4982,-7.4982,-7.4982,-7.4982,-7.464,-7.4223,-7.4792,-7.464,-7.4223,-7.4792,-7.4982,-7.4982,-7.4982,-7.4982,-7.4982,-7.4982,-7.4982,-7.4982,-7.4982,-7.4982,-7.4982,-7.4982,-7.4982,-7.464,-7.3236,-7.2704,-7.2135,-7.073,-7.0236,-7.0009,-7.0009,-7.0009,-7.0009,-7.0009,-7.0009,-6.9933,-6.9667,-6.9363,-6.9211,-6.9173,-6.9173,-6.9173,-6.9173,-6.868,-6.8224,-6.7958,-6.7389,-6.6706,-6.587,-6.5794,-6.5567,-6.4997,-6.4959,-6.4959,-6.4959,-6.4959,-6.4959,-6.4959,-6.4959,-6.5263,-6.5794,-6.2968,-6.0553,-8.3472,-8.2046,-8.1257,-8.4486,-8.4486,-8.4925,-8.9172,-9.0148,-9.0685,-9.2735,-9.3125,-9.2565,-9.0962,-8.9756,-8.7773,-8.4376,-8.2791,-8.0994,-7.8494,-7.6851,-7.6365,-7.7318,-7.5068,-7.4523,-7.7385,-7.2863,-6.9347,-6.8254,-6.7338,-6.7588,-6.9156,-6.9228,-6.9584,-7.0368,-7.0368,-7.0368,-7.0368,-7.0368,-7.0837,-7.1557,-7.1557,-7.2274,-7.3883,-7.4699,-7.4982,-7.4982,-7.4982,-7.4982,-7.4982,-7.4982,-7.4982,-7.4982,-7.4982,-7.4982,-7.4982,-7.4982,-7.4982,-7.4982,-7.4982,-7.4982,-7.4982,-7.4982,-7.4982,-7.4982,-7.4982,-7.4982,-7.4982,-7.4944,-7.4944,-7.4944,-7.4944,-7.4944,-7.4716,-7.3843,-7.3046,-7.2211,-7.1375,-7.0502,-6.9933,-6.9933,-6.9933,-6.9933,-6.9933,-6.9933,-6.9667,-6.887,-6.9439,-6.9325,-6.7617,-6.7427,-6.7465,-6.7465,-6.7427,-6.7085,-6.6288,-6.6212,-6.5832,-6.5035,-6.4959,-6.4959,-6.4959,-6.4959,-6.4959,-6.4959,-6.4959,-6.4959,-6.4959,-6.4959,-6.4921,-6.4799,-6.1971,-5.9187,-8.013,-8.3394,-8.639,-8.7317,-8.8439,-9.0099,-9.2832,-9.2832,-9.2442,-9.3027,-9.3125,-9.3223,-9.3554,-8.9866,-8.6296,-8.5365,-8.1206,-7.7576,-7.6055,-7.6466,-7.6338,-7.5008,-7.537,-7.5605,-7.5436,-7.1722,-6.9612,-7.0082,-6.8671,-6.8194,-6.9192,-6.9228,-6.9584,-7.0368,-7.0368,-7.0368,-7.0368,-7.0368,-7.0837,-7.1557,-7.1557,-7.2274,-7.3883,-7.4026,-7.4415,-7.4982,-7.4982,-7.4982,-7.4982,-7.4982,-7.4982,-7.4982,-7.4982,-7.4982,-7.4982,-7.4982,-7.4982,-7.4982,-7.4982,-7.4982,-7.4982,-7.4982,-7.4982,-7.4982,-7.4982,-7.4982,-7.4868,-7.4223,-7.4071,-7.4071,-7.4071,-7.4071,-7.3691,-7.2287,-7.1793,-7.1034,-6.8946,-6.8338,-6.8148,-6.8148,-6.8148,-6.8148,-6.8148,-6.8148,-6.8072,-6.7845,-6.7996,-6.7769,-6.6706,-6.7085,-6.7465,-6.7465,-6.6933,-6.6478,-6.625,-6.5681,-6.5225,-6.4997,-6.4959,-6.4959,-6.4959,-6.4959,-6.4959,-6.4959,-6.4959,-6.4959,-6.4959,-6.4352,-6.4086,-6.3927,-5.8727,-5.5906,-8.0613,-8.2748,-8.4486,-8.4925,-8.6975,-8.9123,-8.9904,-9.1661,-9.3027,-9.2588,-9.3223,-9.415,-9.5273,-9.2631,-8.9756,-8.857,-8.4143,-8.0166,-7.7959,-7.7125,-7.6055,-7.4579,-7.6298,-7.68,-7.4852,-7.1327,-6.9609,-7.0656,-6.9274,-6.8907,-6.9691,-6.9727,-6.9941,-7.0368,-7.0657,-7.0801,-7.0801,-7.1125,-7.17,-7.2561,-7.2561,-7.3133,-7.431,-7.431,-7.4594,-7.4982,-7.4982,-7.4982,-7.4982,-7.4982,-7.4982,-7.4982,-7.4982,-7.4982,-7.4982,-7.4982,-7.4982,-7.4982,-7.4982,-7.4754,-7.4527,-7.4868,-7.4527,-7.3995,-7.4375,-7.4223,-7.3843,-7.335,-7.3198,-7.3198,-7.3198,-7.3198,-7.278,-7.1148,-7.0768,-7.016,-6.7921,-6.7465,-6.7465,-6.7465,-6.7465,-6.7465,-6.7465,-6.7465,-6.7199,-6.6516,-6.6706,-6.663,-6.5794,-6.644,-6.682,-6.644,-6.5984,-6.5718,-6.5718,-6.5263,-6.4959,-6.4959,-6.4959,-6.4959,-6.4959,-6.4959,-6.4807,-6.4466,-6.4466,-6.4276,-6.3934,-6.3479,-6.3251,-6.3093,-5.7331,-5.4842,-8.2621,-8.0826,-7.8971,-8.0484,-8.3119,-8.5121,0.0,-8.8488,-9.2295,-9.127,-9.2588,-9.4199,-9.5126,-9.5224,-9.423,-9.1647,-8.8523,-8.5234,-8.1913,-7.8818,-7.6398,-7.5037,-7.6924,-7.7343,-7.4944,-7.1474,-6.9655,-7.0333,-6.9762,-6.9655,-7.0333,-7.0368,-7.0405,-7.055,-7.1268,-7.1555,-7.1693,-7.2414,-7.3027,-7.3883,-7.3883,-7.431,-7.4982,-7.4982,-7.4982,-7.4982,-7.4982,-7.4982,-7.4982,-7.4982,-7.4982,-7.4982,-7.4982,-7.4944,-7.483,-7.483,-7.4792,-7.4716,-7.4716,-7.4223,-7.3691,-7.4451,-7.3691,-7.2628,-7.335,-7.307,-7.2581,-7.2505,-7.2623,-7.2644,-7.2564,-7.239,-7.1835,-7.0198,-6.9819,-6.9249,-6.7541,-6.7161,-6.7161,-6.7161,-6.7161,-6.7161,-6.7161,-6.7161,-6.6668,-6.5187,-6.5605,-6.5832,-6.5073,-6.5605,-6.5794,-6.5035,-6.4959,-6.4959,-6.4959,-6.4959,-6.4959,-6.4959,-6.4959,-6.4921,-6.4845,-6.4845,-6.439,-6.3479,-6.3554,-6.3213,-6.2378,-6.2378,-6.2378,-6.226,-5.7154,-5.528,0.0,0.0,0.0,0.0,0.0,0.0,0.0,-8.8439,-8.9025,-8.7903,-8.8,-8.8391,-8.8586,-8.7903,-8.6832,-8.5455,-8.4704,-8.3684,-8.1948,-8.2882,-8.1381,-7.4693,-7.336,-7.292,-7.3096,-7.1268,-7.0226,-7.0368,-7.0261,-7.0226,-7.0368,-7.0368,-7.0862,-7.1793,-7.16,-7.1955,-7.2875,-7.2799,-7.3027,-7.3883,-7.3883,-7.431,-7.4982,-7.4982,-7.4982,-7.4982,-7.4982,-7.4982,-7.4982,-7.4982,-7.4982,-7.4982,-7.4982,-7.4564,-7.3957,-7.3957,-7.3539,-7.297,-7.297,-7.2856,-7.278,-7.2932,-7.278,-7.2514,-7.2704,-7.299,-7.3175,-7.2503,-7.2761,-7.3075,-7.2552,-7.184,-7.0894,-6.9428,-6.849,-6.7503,-6.5794,-6.5453,-6.5453,-6.5453,-6.5453,-6.5453,-6.5453,-6.5453,-6.5339,-6.4997,-6.5111,-6.5149,-6.4997,-6.5111,-6.5149,-6.4997,-6.4959,-6.4959,-6.4959,-6.4959,-6.4959,-6.4959,-6.4959,-6.4655,-6.401,-6.3972,-6.3289,-6.177,-6.2415,-6.234,-6.1504,-6.1504,-6.1504,-6.1388,-5.7584,-5.6269,0.0,0.0,0.0,0.0,0.0,0.0,0.0,0.0,0.0,0.0,0.0,-8.6292,-8.7366,0.0,-8.8184,-8.7614,-8.5794,-8.3951,-8.2492,-8.0689,-7.9443,-7.931,-7.6756,-7.44,-7.2715,-7.1574,-7.0513,-6.9798,-7.0154,-7.0368,-7.0368,-7.0889,-7.1503,-7.2105,-7.2696,-7.3317,-7.3873,-7.3792,-7.3988,-7.4452,-7.4452,-7.4736,-7.4982,-7.4982,-7.4982,-7.4982,-7.4982,-7.4982,-7.4982,-7.4982,-7.4982,-7.4906,-7.4071,-7.3501,-7.3146,-7.4091,-7.3551,-7.2636,-7.3428,-7.2931,-7.1945,-7.2362,-7.1945,-7.1337,-7.1755,-7.1799,-7.1696,-7.1307,-7.1426,-7.1548,-7.1176,-7.0527,-6.961,-6.8368,-6.7465,-6.6516,-6.5225,-6.4959,-6.4959,-6.4959,-6.4959,-6.4959,-6.4959,-6.4959,-6.4959,-6.4959,-6.4959,-6.4959,-6.4959,-6.4959,-6.4778,-6.4542,-6.3698,-6.386,-6.5425,-6.4566,-6.4838,-6.6796,-6.6483,-6.5537,-6.4089,-6.4642,-6.3786,-6.1277,-6.2238,-6.2046,-6.0669,-6.0669,-6.0669,-6.0631,-5.9042,-5.8479,0.0,0.0,0.0,0.0,0.0,0.0,0.0,0.0,0.0,0.0,0.0,0.0,0.0,0.0,0.0,-9.0294,-8.7644,-8.5343,-8.4576,-7.8839,-7.708,-8.3547,-8.0852,-7.7117,-7.3939,-7.2543,-7.1208,-6.9653,-7.0371,-7.0657,-7.0368,-7.1225,-7.1799,-7.2101,-7.3248,-7.3912,-7.4147,-7.4593,-7.4754,-7.4754,-7.4906,0.0,-7.4982,-7.4982,-7.5139,-7.5342,-7.5037,-7.5101,-7.5202,-7.4884,-7.4754,-7.4602,-7.336,-7.2887,-7.2968,-7.3965,-7.3636,-7.301,-7.3738,-7.3083,-7.1914,-7.1929,-7.111,-7.016,-7.0844,-7.0711,0.0,-7.0132,-7.0293,-7.0321,-6.9994,-6.9289,-6.8523,-6.7478,-6.6592,-6.5794,-6.5111,-6.4845,-6.4769,-6.4921,-6.4845,-6.4769,-6.4959,-6.4816,-6.4678,-6.4422,-6.4499,-6.4537,-6.4384,-6.4767,-6.5057,-6.4527,-6.3547,-6.381,-6.608,-6.4396,-6.4676,-6.8122,-6.7039,-6.5492,-6.3738,-6.4575,-6.3484,-6.0168,-6.1142,-6.1064,-5.9638,-5.9903,-6.0058,-6.0212,-5.9656,-5.9678,0.0,0.0,0.0,0.0,0.0,0.0,0.0,0.0,0.0,0.0,0.0,0.0,0.0,0.0,0.0,0.0,-8.6279,-8.7516,-9.0246,-8.4325,-8.0294,-8.2053,-7.9359,-7.7479,-7.7771,-7.5223,-7.2752,-7.1208,-7.1978,-7.1844,-7.0368,-7.0473,0.0,0.0,0.0,-7.2259,-7.3245,-7.3667,-7.3843,-7.3881,-7.464,-7.4982,-7.4982,-7.4982,-7.5494,-7.6153,-7.535,-7.5554,-7.6153,-7.4439,-7.3843,-7.3907,-7.419,-7.4385,-7.4268,-7.2394,-7.2725,-7.3578,-7.1327,0.0,0.0,-7.1031,-7.016,-7.0047,-7.0123,-7.0412,-7.0825,-7.0825,-7.1274,-7.142,-7.0089,-6.9159,-6.8072,-6.6712,-6.5718,-6.5073,-6.4997,-6.439,-6.4086,-6.4807,-6.439,-6.4124,-6.4845,-6.4585,-6.3747,-6.2407,-6.2836,-6.3075,-6.2209,-6.4341,-6.5928,-6.5844,-6.7202,0.0,-6.728,-6.4756,-6.4115,-6.6236,-6.3914,-6.2041,-6.1093,-6.116,-5.9679,-5.6179,-5.6856,-5.752,-5.7991,-5.9238,-6.0194,-6.0662,-5.7478,-5.6806,0.0,0.0,0.0,0.0,0.0,0.0,0.0,0.0,0.0,0.0,0.0,0.0,0.0,0.0,0.0,0.0,-8.3031,-8.455,-8.743,-8.332,-8.0863,-8.3059,-8.0805,-7.9178,-7.9359,-7.7076,-7.5743,-7.5797,-7.3757,-7.3047,-7.4318,-7.413,-7.357,-7.3104,-7.4438,-7.4689,-7.3817,-7.421,-7.4451,-7.4451,-7.4299,-7.4261,-7.4223,-7.3767,-7.3762,-7.4031,-7.3551,-7.3531,-7.3806,-7.3874,-7.4016,-7.4304,0.0,0.0,0.0,0.0,-7.7408,-7.7494,-7.7345,-7.5856,-7.3818,-7.2689,-7.1288,-7.0009,-7.0009,-7.0132,-7.0425,-7.0425,-7.056,-7.0566,-6.9475,-6.8523,-6.7575,-6.65,-6.5605,-6.4959,-6.4959,-6.4693,-6.4542,-6.4883,-6.4693,0.0,-6.5861,-6.5417,-6.4958,-6.5123,-6.4917,-6.4716,-6.4355,-6.5392,-6.6018,-6.5531,-6.5317,-6.5623,-6.7108,-6.5229,0.0,0.0,0.0,-6.5519,-6.5146,-6.4039,0.0,0.0,0.0,-5.8892,-5.8439,-5.7055,0.0,0.0,-5.6408,-5.5741,0.0,0.0,0.0,0.0,0.0,0.0,0.0,0.0,0.0,0.0,0.0,0.0,0.0,0.0,0.0,0.0,-8.0447,-8.0811,-8.2708,-8.1453,-8.1538,-8.4658,-8.2756,-8.1388,-8.2008,-8.0165,-7.9144,-7.9913,-7.7108,-7.6304,-7.8484,-7.8203,-7.741,-7.6107,-7.7916,-7.7658,-7.5243,-7.5872,-7.5827,-7.5211,-7.451,-7.418,-7.418,-7.3467,-7.3645,-7.4681,-7.4389,-7.4831,-7.5721,-7.6403,-7.6635,-7.6992,-7.9949,-8.1172,-8.1172,-8.0762,-8.025,-8.0013,-8.176,-7.9643,-7.6093,-7.4939,-7.2819,-7.0537,-7.0141,-7.0009,-6.9971,-6.9743,-6.9705,-6.9439,-6.8376,-6.7617,-6.6857,-6.5794,-6.5263,-6.4883,-6.4693,-6.4617,-6.4693,-6.4921,-6.4823,-6.5091,-6.6178,-6.5781,-6.5572,-6.6151,-6.5889,-6.5521,-6.5317,-6.5929,-6.6186,-6.5685,-6.4922,-6.5313,-6.7275,-6.5516,-6.5686,-6.8913,-6.7767,-6.7257,-6.8021,-6.5839,-6.4316,-6.3555,-6.1226,-5.951,0.0,0.0,0.0,0.0,0.0,0.0,0.0,0.0,0.0,0.0,0.0,0.0,0.0,0.0,0.0,0.0,0.0,0.0,0.0,0.0,0.0,0.0,0.0,0.0,-7.7409,-8.0045,-8.306,-8.6277,-8.4293,-8.3958,-8.7063,-8.4878,-8.2833,-8.1988,-8.2611,-8.2706,-8.1888,-8.1831,-8.1813,-8.1769,-8.1681,-8.0416,-7.7873,-7.8763,-7.7931,-7.5382,-7.5515,-7.5507,-7.5507,-7.4831,-7.6814,-8.0572,-7.9699,-8.1517,-8.5179,-8.3388,-8.27,-8.2515,-8.005,-7.9339,-7.9651,-7.8209,-7.8345,-7.9511,-8.1285,-8.1854,-8.1168,-7.7241,-7.4166,-7.1813,-7.0405,-7.0009,-6.9857,-6.9059,-6.8832,-6.8452,-6.6744,-6.6288,-6.587,-6.42,-6.4428,-6.4731,-6.3972,-6.3782,-6.401,-6.4807,-6.4628,-6.4596,-6.5131,-6.5135,-6.4664,-6.3296,-6.3799,0.0,-6.3163,-6.541,-6.7063,-6.7021,-6.8701,-6.938,-6.8488,-6.5856,-6.5092,-6.7087,-6.4624,-6.4327,-6.7045,-6.454,-6.2527,-6.1552,-5.8797,-5.7498,-5.7578,0.0,0.0,0.0,0.0,0.0,0.0,0.0,0.0,0.0,0.0,0.0,0.0,0.0,0.0,0.0,0.0,0.0,0.0,0.0,0.0,0.0,0.0,0.0,0.0,-7.8532,-8.024,-8.4144,-8.3293,-8.3272,-8.5725,-8.4217,-8.3645,-8.5015,-8.3549,-8.3343,-8.5318,-8.4279,-8.3148,-8.2107,-8.3165,-8.2278,-7.9131,-7.9952,-7.9614,-7.8,-7.7451,-7.7156,-7.7114,-7.6442,-7.6751,-7.793,-7.7741,-7.8341,-7.9488,-7.987,-8.23,-8.5563,-8.3833,-8.3224,-8.3335,-8.2843,-8.2923,-8.3402,-8.3933,-8.451,-8.4662,-8.1631,-7.9425,-7.7493,-7.5022,-7.444,-7.386,-7.0538,-6.9112,-6.793,-6.5251,-6.458,-6.4314,-6.3213,-6.3137,-6.3289,-6.2985,-6.2947,-6.3261,-6.4323,-6.5014,-6.5603,-6.5809,-6.604,-6.6502,-6.764,-6.8067,-6.8791,-6.9986,-7.0906,-7.1391,-7.1391,-7.2025,-7.2297,-7.1934,-7.1087,-7.077,-7.1345,-7.0588,-7.018,-7.0381,-6.9534,-6.7887,-6.5398,-6.5125,-6.2237,-5.6486,0.0,0.0,0.0,0.0,0.0,0.0,0.0,0.0,0.0,0.0,0.0,0.0,0.0,0.0,0.0,0.0,0.0,0.0,0.0,0.0,0.0,0.0,0.0,0.0,0.0,0.0,-8.2543,-8.2446,0.0,-8.4925,-8.4249,-8.4263,-8.588,-8.3665,-8.3702,-8.688,-8.5603,-8.4682,-8.4373,-8.5554,-8.463,-8.1568,-8.203,-8.1463,-7.9863,-7.9004,-7.8697,-7.8653,-7.7841,-7.8182,-7.913,-7.913,-7.9695,-8.0535,-7.9519,-8.1698,-8.5418,-8.3665,-8.3319,-8.3778,-8.2983,-8.3181,-8.3871,-8.403,-8.5045,-8.5804,-8.3282,-8.0096,-7.6721,-7.4053,-7.3014,-7.2267,-6.9318,-6.8682,-6.8516,-6.6593,-6.5896,-6.5585,-6.4715,-6.4213,-6.3825,-6.3398,-6.3628,-6.45,-6.6575,-6.7063,-6.7079,-6.7154,-6.7245,-6.7559,-6.835,-6.9185,-7.0397,-7.2249,-7.3207,-7.3675,-7.3675,-7.3675,-7.3535,-7.3161,-7.3161,-7.2872,-7.2498,-7.2451,-7.2218,-7.1464,-7.1464,-7.0168,-6.7306,-6.7168,-6.4192,0.0,0.0,0.0,0.0,0.0,0.0,0.0,0.0,0.0,0.0,0.0,0.0,0.0,0.0,0.0,0.0,0.0,0.0,0.0,0.0,0.0,0.0,0.0,0.0,0.0,0.0,0.0,-8.1126,-8.1867,0.0,0.0,0.0,0.0,-8.4541,-8.3552,-8.4161,-8.6679,-8.5682,-8.6081,-8.8173,-8.8223,-8.7062,-8.4484,-8.4532,-8.3388,-8.0837,-8.0206,-7.9971,-7.9971,-7.9263,-8.0675,-8.357,-8.357,-8.5326,-8.7814,-8.2275,-8.1042,-8.2199,-7.9518,-7.9376,-8.0479,-7.8408,-7.9002,-8.0883,-8.1393,-8.3092,-8.4565,-8.2191,-7.6732,-7.0726,-6.8319,-6.6708,0.0,0.0,-6.7648,-6.9726,-6.9813,-6.9568,-6.8971,-6.8318,-6.7191,-6.5977,-6.5129,-6.5603,-6.7158,-7.0834,-6.9961,-6.8514,-6.8332,0.0,-6.7777,-6.5685,-6.7314,-6.918,-7.0454,-7.2528,-7.3897,-7.3897,-7.3897,-7.3521,-7.2628,-7.2534,-7.2011,-7.088,-7.0786,-7.0786,-7.0739,-7.0693,-6.9661,-6.7364,-6.5171,0.0,0.0,0.0,0.0,0.0,0.0,0.0,0.0,0.0,0.0,0.0,0.0,0.0,0.0,0.0,0.0,0.0,0.0,0.0,0.0,0.0,0.0,0.0,0.0,0.0,0.0,-7.6129,-7.5652,-7.7119,-7.9206,-8.0754,0.0,0.0,0.0,0.0,0.0,0.0,-8.3422,-8.2177,-8.1834,-8.2422,-8.2422,-8.2103,-8.1414,-8.2298,-8.1974,-8.0447,-8.0231,-8.0183,-8.0231,-7.9967,-8.0447,-8.12,-8.12,-8.1628,-8.2177,-7.834,-7.707,-7.7267,-7.575,-7.4431,-7.3451,-7.3646,-7.3834,-7.4073,-7.5455,-7.7619,-7.9592,-7.8571,-7.7285,-7.5856,-7.5385,0.0,0.0,0.0,0.0,-6.4969,-6.6121,-6.6319,-6.6815,-6.9059,-6.8721,-6.7971,-6.8662,-6.6984,-6.5699,-6.6814,-6.7223,-6.675,-6.4757,-6.5112,0.0,-6.6779,-6.9044,-7.1335,-7.3286,-7.5614,-7.7119,-7.7119,-7.7729,-7.8095,-7.7788,-7.7788,-7.7685,-7.7327,-7.7327,-7.6969,-7.6048,-7.5139,-7.2543,-6.7867,0.0,0.0,0.0,0.0,0.0,0.0,0.0,0.0,0.0,0.0,0.0,0.0,0.0,0.0,0.0,0.0,0.0,0.0,0.0,0.0,0.0,0.0,0.0,0.0,0.0,0.0,0.0,-7.7042,-7.6938,-7.7772,-7.9693,-8.0818,0.0,0.0,0.0,0.0,0.0,0.0,0.0,0.0,0.0,-8.0149,-7.9752,-7.8753,-7.7507,-7.9068,-7.9556,-7.8971,-7.9794,-8.0233,-8.0233,-8.0233,-8.0233,-8.0184,-7.9258,-7.8434,-7.7412,-7.6228,-7.6118,-7.6476,0.0,0.0,0.0,0.0,-7.167,-7.0837,-7.1852,-7.2682,-7.3203,-7.3013,0.0,0.0,0.0,0.0,0.0,0.0,0.0,-6.5973,-6.741,-6.8292,-6.9388,-7.1202,-7.0026,-6.8628,-6.9318,-6.7626,-6.6365,-6.8149,-6.8184,-6.7151,-6.4955,-6.5176,0.0,0.0,0.0,-7.1816,-7.3551,-7.6776,-7.8951,-7.8951,-7.9406,-7.9504,-7.8977,-7.8977,-7.8767,-7.8292,-7.824,-7.7151,-7.4823,-7.5204,-7.2286,0.0,0.0,0.0,0.0,0.0,0.0,0.0,0.0,0.0,0.0,0.0,0.0,0.0,0.0,0.0,0.0,0.0,0.0,0.0,0.0,0.0,0.0,0.0,0.0,0.0,0.0,0.0,0.0,0.0,-7.8776,-8.0215,0.0,0.0,0.0,0.0,0.0,0.0,0.0,0.0,0.0,0.0,0.0,0.0,0.0,-7.6917,-7.4611,-7.6534,-7.7422,-7.7274,-7.8792,-7.9626,-7.9683,-7.9479,-7.9376,-7.9278,-7.7667,0.0,-7.4069,-7.5559,0.0,0.0,0.0,0.0,0.0,0.0,0.0,0.0,0.0,0.0,0.0,0.0,0.0,0.0,0.0,0.0,0.0,0.0,0.0,0.0,0.0,0.0,-7.3105,-7.3399,-7.1055,-6.8774,-6.8445,-6.7557,-6.7667,-7.0656,-6.9817,-6.8029,0.0,0.0,0.0,0.0,0.0,0.0,-7.2262,-7.6482,-7.9473,-7.9473,-7.9562,-7.9228,-7.817,-7.8064,-7.7728,-7.6774,-7.6297,-7.454,-7.1123,-7.3083,0.0,0.0,0.0,0.0,0.0,0.0,0.0,0.0,0.0,0.0,0.0,0.0,0.0,0.0,0.0,0.0,0.0,0.0,0.0,0.0,0.0,0.0,0.0,0.0,0.0,0.0,0.0,0.0,0.0,0.0,0.0,0.0,0.0,0.0,0.0,0.0,0.0,0.0,0.0,0.0,0.0,0.0,0.0,0.0,0.0,0.0,0.0,0.0,0.0,0.0,-7.6415,-7.6161,-7.6514,-7.5155,-7.4565,-7.4606,-7.587,-7.5584,-7.4321,-7.6309,0.0,0.0,0.0,0.0,0.0,0.0,0.0,0.0,0.0,0.0,0.0,0.0,0.0,0.0,0.0,0.0,0.0,0.0,0.0,0.0,0.0,0.0,-7.0007,-7.1823,-7.1018,-6.9326,-6.7278,0.0,0.0,0.0,0.0,0.0,0.0,0.0,0.0,0.0,0.0,0.0,-7.0859,-7.5107,-7.8079,-7.8079,-7.8816,-7.9131,-7.8914,-7.8914,-7.8806,-7.8589,-7.5766,-7.3867,0.0,0.0,0.0,0.0,0.0,0.0,0.0,0.0,0.0,0.0,0.0,0.0,0.0,0.0,0.0,0.0,0.0,0.0,0.0,0.0,0.0,0.0,0.0,0.0,0.0,0.0,0.0,0.0,0.0,0.0,0.0,0.0,0.0,0.0,0.0,0.0,0.0,0.0,0.0,0.0,0.0,0.0,0.0,0.0,0.0,0.0,0.0,0.0,0.0,0.0,0.0,0.0,0.0,0.0,0.0,0.0,0.0,0.0,-7.3277,-7.3718,0.0,0.0,0.0,0.0,0.0,0.0,0.0,0.0,0.0,0.0,0.0,0.0,0.0,0.0,0.0,0.0,0.0,0.0,0.0,0.0,0.0,0.0,0.0,0.0,0.0,0.0,0.0,0.0,0.0,0.0,0.0,0.0,0.0,0.0,0.0,0.0,0.0,0.0,0.0,0.0,-7.0966,-7.5361,-7.8421,-7.8421,-7.884,-7.909,-7.909,-7.909,-7.8874,-7.8338,-7.5333,0.0,0.0,0.0,0.0,0.0,0.0,0.0,0.0,0.0,0.0,0.0,0.0,0.0,0.0,0.0,0.0,0.0,0.0,0.0,0.0,0.0,0.0,0.0,0.0,0.0,0.0,0.0,0.0,0.0,0.0,0.0,0.0,0.0,0.0,0.0,0.0,0.0,0.0,0.0,0.0,0.0,0.0,0.0,0.0,0.0,0.0,0.0,0.0,0.0,0.0,0.0,0.0,0.0,0.0,0.0,0.0,0.0,0.0,0.0,-7.1968,-7.2631,0.0,0.0,0.0,0.0,0.0,0.0,0.0,0.0,0.0,0.0,0.0,0.0,0.0,0.0,0.0,0.0,0.0,0.0,0.0,0.0,0.0,0.0,0.0,0.0,0.0,0.0,0.0,0.0,0.0,0.0,0.0,0.0,0.0,0.0,0.0,0.0,0.0,0.0,0.0,0.0,-7.1195,-7.6006,-7.9423,-7.9451,-7.9781,-8.0028,-8.011,-8.011,-7.9622,-7.8269,-7.5576,0.0,0.0,0.0,0.0,0.0,0.0,0.0,0.0,0.0,0.0,0.0,0.0,0.0,0.0,0.0,0.0,0.0,0.0,0.0,0.0,0.0,0.0,0.0,0.0,0.0,0.0,0.0,0.0,0.0,0.0,0.0,0.0,0.0,0.0,0.0,0.0,0.0,0.0,0.0,0.0,0.0,0.0,0.0,0.0,0.0,0.0,0.0,0.0,0.0,0.0,0.0,0.0,0.0,0.0,0.0,0.0,0.0,0.0,0.0,0.0,0.0,0.0,0.0,0.0,0.0,0.0,0.0,0.0,0.0,0.0,0.0,0.0,0.0,0.0,0.0,0.0,0.0,0.0,0.0,0.0,0.0,0.0,0.0,0.0,0.0,0.0,0.0,0.0,0.0,0.0,0.0,0.0,0.0,0.0,0.0,0.0,0.0,0.0,0.0,0.0,0.0,-7.0943,-7.6326,-8.0326,-8.0652,-8.2097,-8.3121,-8.351,-8.351,-8.2565,-8.0328,0.0,0.0,0.0,0.0,0.0,0.0,0.0,0.0,0.0,0.0,0.0,0.0,0.0,0.0,0.0,0.0,0.0,0.0,0.0,0.0,0.0,0.0,0.0,0.0,0.0,0.0,0.0,0.0,0.0,0.0,0.0,0.0,0.0,0.0,0.0,0.0,0.0,0.0,0.0,0.0,0.0,0.0,0.0,0.0,0.0,0.0,0.0,0.0,0.0,0.0,0.0,0.0,0.0,0.0,0.0,0.0,0.0,0.0,0.0,0.0,0.0,0.0,0.0,0.0,0.0,0.0,0.0,0.0,0.0,0.0,0.0,0.0,0.0,0.0,0.0,0.0,0.0,0.0,0.0,0.0,0.0,0.0,0.0,0.0,0.0,0.0,0.0,0.0,0.0,0.0,0.0,0.0,0.0,0.0,0.0,0.0,0.0,0.0,0.0,0.0,0.0,0.0,-7.4106,-7.922,-8.3161,-8.3913,-8.4656,-8.5017,-8.5,-8.5167,-8.3761,-8.0083,0.0,0.0,0.0,0.0,0.0,0.0,0.0,0.0,0.0,0.0,0.0,0.0,0.0,0.0,0.0,0.0,0.0,0.0,0.0,0.0,0.0,0.0,0.0,0.0,0.0,0.0,0.0,0.0,0.0,0.0,0.0,0.0,0.0,0.0,0.0,0.0,0.0,0.0,0.0,0.0,0.0,0.0,0.0,0.0,0.0,0.0,0.0,0.0,0.0,0.0,0.0,0.0,0.0,0.0,0.0,0.0,0.0,0.0,0.0,0.0,0.0,0.0,0.0,0.0,0.0,0.0,0.0,0.0,0.0,0.0,0.0,0.0,0.0,0.0,0.0,0.0,0.0,0.0,0.0,0.0,0.0,0.0,0.0,0.0,0.0,0.0,0.0,0.0,0.0,0.0,0.0,0.0,0.0,0.0,0.0,0.0,0.0,0.0,0.0,0.0,0.0,0.0,-7.6326,-8.1542,-8.5541,-8.6235,-8.6951,-8.7229,-8.6987,-8.7229,-8.5411,-8.0635,0.0,0.0,0.0,0.0,0.0,0.0,0.0,0.0,0.0,0.0,0.0,0.0,0.0,0.0,0.0,0.0,0.0,0.0,0.0,0.0,0.0,0.0,0.0,0.0,0.0,0.0,0.0,0.0,0.0,0.0,0.0,0.0,0.0,0.0,0.0,0.0,0.0,0.0,0.0,0.0,0.0,0.0,0.0,0.0,0.0,0.0,0.0,0.0,0.0,0.0,0.0,0.0,0.0,0.0,0.0,0.0,0.0,0.0,0.0,0.0,0.0,0.0,0.0,0.0,0.0,0.0,0.0,0.0,0.0,0.0,0.0,0.0,0.0,0.0,0.0,0.0,0.0,0.0,0.0,0.0,0.0,0.0,0.0,0.0,0.0,0.0,0.0,0.0,0.0,0.0,0.0,0.0,0.0,0.0,0.0,0.0,0.0,0.0,0.0,0.0,0.0,0.0,-7.6338,-8.2422,-8.6867,-8.6867,-8.8766,-8.9934,-8.9927,-9.0276,-8.8167,0.0,0.0,0.0,0.0,0.0,0.0,0.0,0.0,0.0,0.0,0.0,0.0,0.0,0.0,0.0,0.0,0.0,0.0,0.0,0.0,0.0,0.0,0.0,0.0,0.0,0.0,0.0,0.0,0.0,0.0,0.0,0.0,0.0,0.0,0.0,0.0,0.0,0.0,0.0,0.0,0.0,0.0,0.0,0.0,0.0,0.0,0.0,0.0,0.0,0.0,0.0,0.0,0.0,0.0,0.0,0.0,0.0,0.0,0.0,0.0,0.0,0.0,0.0,0.0,0.0,0.0,0.0,0.0,0.0,0.0,0.0,0.0,0.0,0.0,0.0,0.0,0.0,0.0,0.0,0.0,0.0,0.0,0.0,0.0,0.0,0.0,0.0,0.0,0.0,0.0,0.0,0.0,0.0,0.0,0.0,0.0,0.0,0.0,0.0,0.0,0.0,0.0,0.0,-8.0723,-8.5858,-8.9809,-9.0761,-9.1289,-9.1552,-9.1615,-9.1883,-8.9471,-8.3466,0.0,0.0,0.0,0.0,0.0,0.0,0.0,0.0,0.0,0.0,0.0,0.0,0.0,0.0,0.0,0.0,0.0,0.0,0.0,0.0,0.0,0.0,0.0,0.0,0.0,0.0,0.0,0.0,0.0,0.0,0.0,0.0,0.0,0.0,0.0,0.0,0.0,0.0,0.0,0.0,0.0,0.0,0.0,0.0,0.0,0.0,0.0,0.0,0.0,0.0,0.0,0.0,0.0,0.0,0.0,0.0,0.0,0.0,0.0,0.0,0.0,0.0,0.0,0.0,0.0,0.0,0.0,0.0,0.0,0.0,0.0,0.0,0.0,0.0,0.0,0.0,0.0,0.0,0.0,0.0,0.0,0.0,0.0,0.0,0.0,0.0,0.0,0.0,0.0,0.0,0.0,0.0,0.0,0.0,0.0,0.0,0.0,0.0,0.0,0.0,0.0,0.0,0.0,-8.6808,-8.9964,-9.1447,-9.2021,-9.1892,-9.081,-9.1449,-8.9278,-8.3006,0.0,0.0,0.0,0.0,0.0,0.0,0.0,0.0,0.0,0.0,0.0,0.0,0.0,0.0,0.0,0.0,0.0,0.0,0.0,0.0,0.0,0.0,0.0,0.0,0.0,0.0,0.0,0.0,0.0,0.0,0.0,0.0,0.0,0.0,0.0,0.0,0.0,0.0,0.0,0.0,0.0,0.0,0.0,0.0,0.0,0.0,0.0,0.0,0.0,0.0,0.0,0.0,0.0,0.0,0.0,0.0,0.0,0.0,0.0,0.0,0.0,0.0,0.0,0.0,0.0,0.0,0.0,0.0,0.0,0.0,0.0,0.0,0.0,0.0,0.0,0.0,0.0,0.0,0.0,0.0,0.0,0.0,0.0,0.0,0.0,0.0,0.0,0.0,0.0,0.0,0.0,0.0,0.0,0.0,0.0,0.0,0.0,0.0,0.0,0.0,0.0,0.0,0.0,-8.5673,-8.8139,-8.9468,-9.1061,-9.0872,-8.8201,-8.9533,-8.7811,-8.1617,-7.8916,0.0,0.0,0.0,0.0,0.0,0.0,0.0,0.0,0.0,0.0,0.0,0.0,0.0,0.0,0.0,0.0,0.0,0.0,0.0,0.0,0.0,0.0,0.0,0.0,0.0,0.0,0.0,0.0,0.0,0.0,0.0,0.0,0.0,0.0,0.0,0.0,0.0,0.0,0.0,0.0,0.0,0.0,0.0,0.0,0.0,0.0,0.0,0.0,0.0,0.0,0.0,0.0,0.0,0.0,0.0,0.0,0.0,0.0,0.0,0.0,0.0,0.0,0.0,0.0,0.0,0.0,0.0,0.0,0.0,0.0,0.0,0.0,0.0,0.0,0.0,0.0,0.0,0.0,0.0,0.0,0.0,0.0,0.0,0.0,0.0,0.0,0.0,0.0,0.0,0.0,0.0,0.0,0.0,0.0,0.0,0.0,0.0,0.0,0.0,0.0,0.0,0.0,-8.561,-8.7883,-8.9468,-8.8833,-8.8201,-8.7822,-8.8138,-8.636,-8.1735,-7.8026,0.0,0.0,0.0,0.0,0.0,0.0,0.0,0.0,0.0,0.0,0.0,0.0,0.0,0.0,0.0,0.0,0.0,0.0,0.0,0.0,0.0,0.0,0.0,0.0,0.0,0.0,0.0,0.0,0.0,0.0,0.0,0.0,0.0,0.0,0.0,0.0,0.0,0.0,0.0,0.0,0.0,0.0,0.0,0.0,0.0,0.0,0.0,0.0,0.0,0.0,0.0,0.0,0.0,0.0,0.0,0.0,0.0,0.0,0.0,0.0,0.0,0.0,0.0,0.0,0.0,0.0,0.0,0.0,0.0,0.0,0.0,0.0,0.0,0.0,0.0,0.0,0.0,0.0,0.0,0.0,0.0,0.0,0.0,0.0,0.0,0.0,0.0,0.0,0.0,0.0,0.0,0.0,0.0,0.0,0.0,0.0,0.0,0.0,0.0,0.0,0.0,0.0,-8.164,-8.4414,-8.7442,-8.7505,-8.6936,-8.5981,-8.6487,-8.5029,-8.0725,-7.7161,0.0,0.0,0.0,0.0,0.0,0.0,0.0,0.0,0.0,0.0,0.0,0.0,0.0,0.0,0.0,0.0,0.0,0.0,0.0,0.0,0.0,0.0,0.0,0.0,0.0,0.0,0.0,0.0,0.0,0.0,0.0,0.0,0.0,0.0,0.0,0.0,0.0,0.0,0.0,0.0,0.0,0.0,0.0,0.0,0.0,0.0,0.0,0.0,0.0,0.0,0.0,0.0,0.0,0.0,0.0,0.0,0.0,0.0,0.0,0.0,0.0,0.0,0.0,0.0,0.0,0.0,0.0,0.0,0.0,0.0,0.0,0.0,0.0,0.0,0.0,0.0,0.0,0.0,0.0,0.0,0.0,0.0,0.0,0.0,0.0,0.0,0.0,0.0,0.0,0.0,0.0,0.0,0.0,0.0,0.0,0.0,0.0,0.0,0.0,0.0,0.0,0.0,0.0,-7.9875,-8.4658,-8.6177,-8.6048,-8.3817,-8.4706,-8.3566,-7.9211,0.0,0.0,0.0,0.0,0.0,0.0,0.0,0.0,0.0,0.0,0.0,0.0,0.0,0.0,0.0,0.0,0.0,0.0,0.0,0.0,0.0,0.0,0.0,0.0,0.0,0.0,0.0,0.0,0.0,0.0,0.0,0.0,0.0,0.0,0.0,0.0,0.0,0.0,0.0,0.0,0.0,0.0,0.0,0.0,0.0,0.0,0.0,0.0,0.0,0.0,0.0,0.0,0.0,0.0,0.0,0.0,0.0,0.0,0.0,0.0,0.0,0.0,0.0,0.0,0.0,0.0,0.0,0.0,0.0,0.0,0.0,0.0,0.0,0.0,0.0,0.0,0.0,0.0,0.0,0.0,0.0,0.0,0.0,0.0,0.0,0.0,0.0,0.0,0.0,0.0,0.0,0.0,0.0,0.0,0.0,0.0,0.0,0.0,0.0,0.0,0.0,0.0,0.0,0.0,-7.7302,-8.2653,-8.347,-8.3407,-8.3027,-8.3153,-8.1573,-7.7579,0.0,0.0,0.0,0.0,0.0,0.0,0.0,0.0,0.0,0.0,0.0,0.0,0.0,0.0]}],[{"header":{"parameterUnit":"kt","parameterCategory":2,"dx":1,"dy":1,"la1":29.285339999999998,"la2":30.599998999999997,"lo1":-89.70041500000002,"lo2":-87.6738589999976,"nx":112,"ny":82,"refTime":"2022-10-22T18:00:00:Z","depth":0,"parameterNumber":2,"parameterNumberName":"V-component_of_WINDS"},"data":[8.6848,8.7777,0.0,8.1528,7.9469,0.0,7.2605,0.0,6.6861,0.0,0.0,0.0,0.0,0.0,0.0,0.0,0.0,0.0,0.0,0.0,0.0,0.0,0.0,0.0,0.0,0.0,0.0,0.0,0.0,0.0,0.0,0.0,10.3362,10.3362,10.5922,10.7259,10.7259,10.7259,10.7259,10.7259,10.7259,10.7259,10.7358,10.8273,10.8696,10.8696,11.0121,11.1148,11.1854,11.222,11.2674,11.3366,11.3366,11.3366,11.3366,11.3366,11.3096,11.2674,11.1762,11.225,11.3422,11.5228,11.7154,11.8935,12.0798,12.1258,12.1258,12.1258,12.1258,12.1258,12.1258,12.1258,12.1258,12.1258,11.9417,11.751,11.6918,11.4946,11.317,11.2644,11.2513,11.3433,11.6327,11.6853,11.751,11.9615,12.0667,12.1258,12.1258,12.1258,12.1258,12.1258,12.1258,12.1061,12.0535,11.8234,11.659,11.6129,11.3828,11.2513,11.2513,11.2513,11.2513,11.2513,11.2513,11.2513,11.2513,11.2513,11.2513,11.2583,11.335,11.4106,0.0,0.0,8.1119,7.5125,0.0,0.0,0.0,0.0,0.0,0.0,0.0,0.0,0.0,0.0,0.0,0.0,0.0,0.0,0.0,0.0,0.0,0.0,0.0,0.0,0.0,0.0,0.0,0.0,0.0,0.0,0.0,10.2373,10.47,10.47,10.6387,10.7259,10.7259,10.7259,10.7259,10.7259,10.7259,10.7259,10.7259,10.7885,10.8176,10.8273,10.927,11.0121,11.0777,11.1486,11.222,11.2826,11.3186,11.3366,11.3366,11.3366,11.3186,11.3006,11.2037,11.1946,11.2613,11.5118,11.6673,11.8142,12.0577,12.1258,12.1258,12.1258,12.1258,12.1258,12.1258,12.1258,12.1193,12.0667,11.8628,11.6721,11.6195,11.4222,11.2513,11.2513,11.2513,11.3302,11.5735,11.6129,11.6787,11.8825,11.9943,12.0732,12.1193,12.1258,12.1258,12.1258,12.1258,12.1258,12.1258,11.9023,11.7181,11.6195,11.3894,11.2513,11.2513,11.2513,11.2513,11.2513,11.2513,11.2513,11.2513,11.2513,11.2513,11.2583,11.356,11.4242,0.0,0.0,0.0,6.5277,0.0,0.0,0.0,0.0,6.2207,0.0,0.0,0.0,0.0,0.0,0.0,0.0,0.0,0.0,0.0,0.0,0.0,0.0,0.0,0.0,0.0,0.0,0.0,0.0,0.0,0.0,10.3071,10.5863,10.7259,10.7259,10.7259,10.7259,10.7259,10.7259,10.7259,10.7259,10.7259,10.7259,10.7259,10.7259,10.7259,10.7358,10.8273,10.86,10.8792,11.087,11.1762,11.1854,11.2916,11.3276,11.3366,11.3366,11.3006,11.2493,11.1946,11.1208,11.1023,11.4621,11.5828,11.6505,12.0188,12.1258,12.1258,12.1258,12.1258,12.1258,12.1258,12.1258,12.093,11.9483,11.7971,11.6458,11.5011,11.3565,11.2513,11.2513,11.2513,11.2973,11.4485,11.4748,11.5735,11.8628,11.9154,11.968,12.1127,12.1258,12.1258,12.1258,12.1258,12.1258,12.1258,11.9943,11.7905,11.4946,11.3367,11.2513,11.2513,11.2513,11.2513,11.2513,11.2513,11.2513,11.2513,11.2513,11.2513,11.2583,11.4039,11.4711,6.6684,0.0,0.0,0.0,0.0,0.0,0.0,0.0,0.0,0.0,0.0,0.0,0.0,0.0,0.0,0.0,0.0,0.0,0.0,0.0,0.0,0.0,0.0,0.0,0.0,0.0,0.0,0.0,0.0,9.9581,10.3188,10.5863,10.7259,10.7259,10.7259,10.7259,10.7259,10.7259,10.7259,10.7259,10.7259,10.7259,10.7259,10.7259,10.7259,10.7259,10.7553,10.8079,10.8696,10.927,11.0403,11.1854,11.2128,11.2674,11.3366,11.3366,11.3276,11.3006,11.2128,11.1578,11.1885,11.4944,11.5828,11.6505,12.0188,12.1258,12.1258,12.1258,12.1258,12.1258,12.1258,12.1258,12.093,11.9483,11.7971,11.6458,11.5011,11.3565,11.2513,11.2513,11.2513,11.2973,11.4485,11.4748,11.534,11.7181,11.8431,11.968,12.1127,12.1258,12.1258,12.1258,12.1258,12.1258,12.1258,11.9943,11.8299,11.6392,11.3894,11.2513,11.2513,11.2513,11.2513,11.2513,11.2513,11.2513,11.2513,11.2513,11.2513,11.2583,11.4039,11.4711,0.0,0.0,0.0,0.0,0.0,0.0,6.2997,0.0,6.0323,0.0,0.0,0.0,0.0,0.0,0.0,0.0,6.5776,0.0,0.0,0.0,0.0,0.0,0.0,0.0,0.0,0.0,0.0,0.0,10.2141,10.1734,10.4816,10.6445,10.7259,10.7259,10.7259,10.7259,10.7259,10.7259,10.7259,10.7259,10.7259,10.7259,10.7259,10.7259,10.7259,10.7259,10.7259,10.7651,10.8176,10.8983,11.0027,11.1148,11.1578,11.2402,11.3366,11.3366,11.3366,11.3186,11.2402,11.1946,11.1976,11.336,11.4708,11.6337,11.9255,12.0655,12.1105,12.0344,12.072,12.1258,12.1258,12.1258,12.0732,11.8694,11.751,11.6261,11.4222,11.3104,11.2513,11.2513,11.2513,11.2776,11.3631,11.3828,11.4288,11.5735,11.6721,11.8036,12.0141,12.0404,12.0601,12.1193,12.1258,12.1258,12.1258,11.9943,11.876,11.7839,11.5077,11.3433,11.3433,11.2841,11.2513,11.2513,11.2513,11.2513,11.2513,11.2513,11.2513,11.2583,11.3698,11.4242,0.0,0.0,0.0,0.0,6.0082,0.0,0.0,0.0,6.2519,6.2801,0.0,0.0,0.0,0.0,0.0,0.0,0.0,0.0,7.6824,8.1248,0.0,0.0,0.0,0.0,0.0,10.1036,10.2664,10.6969,10.406,10.3653,10.7085,10.7259,10.7259,10.7259,10.7259,10.7259,10.7259,10.7259,10.7259,10.7259,10.7259,10.7259,10.7259,10.7259,10.7259,10.7259,10.7259,10.7259,10.7456,10.9329,11.0121,11.0309,11.1486,11.2493,11.3366,11.3366,11.3366,11.3276,11.2674,11.2128,11.167,11.1116,11.3002,11.5891,11.7486,11.9414,12.0655,11.903,11.9953,12.1258,12.1258,12.1258,12.0535,11.751,11.6853,11.6064,11.317,11.2513,11.2513,11.2513,11.2513,11.2513,11.2513,11.2513,11.3039,11.4485,11.4748,11.5735,11.8562,11.8891,11.9483,12.0864,12.0864,12.093,12.1258,11.9812,11.8957,11.9154,11.6524,11.488,11.4748,11.3433,11.271,11.2513,11.2513,11.2513,11.2513,11.2513,11.2513,11.2583,11.335,11.3696,0.0,0.0,0.0,0.0,0.0,5.97,0.0,0.0,0.0,0.0,7.3326,0.0,0.0,0.0,0.0,7.6075,0.0,0.0,0.0,9.2577,0.0,10.8823,11.1417,0.0,11.1971,11.0051,10.8365,10.7376,10.6561,10.6503,10.7259,10.7259,10.7259,10.7259,10.7259,10.7259,10.7259,10.7259,10.7259,10.7259,10.7259,10.7259,10.7259,10.7259,10.7259,10.7259,10.7259,10.7259,10.7358,10.8562,10.946,11.0403,11.2311,11.3186,11.3366,11.3366,11.3366,11.3186,11.222,11.1854,11.167,11.0804,11.1885,11.3716,11.407,11.6421,11.903,11.8629,11.9953,12.1258,12.1258,12.1258,12.0535,11.751,11.6853,11.6064,11.317,11.2513,11.2513,11.2513,11.2513,11.2513,11.2513,11.2513,11.3039,11.4485,11.4748,11.534,11.705,11.7247,11.7839,11.9417,11.8431,11.8694,12.1061,11.8825,11.7839,11.9088,11.7444,11.5932,11.4748,11.442,11.3762,11.2578,11.2513,11.2513,11.2513,11.2513,11.2513,11.2583,11.335,11.3696,0.0,0.0,0.0,5.8716,0.0,0.0,0.0,6.3962,6.6346,7.1322,7.4206,7.635,7.7836,7.9422,8.0792,8.2227,8.4716,8.8438,9.3937,10.2137,10.8749,11.1694,11.3716,11.4647,11.4007,11.2145,11.0226,10.8365,10.7667,10.7259,10.7259,10.7259,10.7259,10.7259,10.7259,10.7259,10.7259,10.7259,10.7259,10.7259,10.7259,10.7259,10.7259,10.7259,10.7259,10.7259,10.7259,10.7259,10.7358,10.8792,10.9744,11.0403,11.1946,11.2916,11.3366,11.3366,11.3366,11.3186,11.2402,11.2037,11.167,11.093,11.1793,11.3153,11.3153,11.4421,11.5998,11.6987,11.8548,12.0188,12.1105,12.1258,12.0535,11.751,11.6853,11.6064,11.317,11.2513,11.2513,11.2513,11.2513,11.2513,11.2513,11.2513,11.2776,11.3499,11.3631,11.4157,11.5603,11.5801,11.6655,11.8891,11.8431,11.8628,12.0075,11.8825,11.7971,11.7971,11.7247,11.6195,11.4748,11.4748,11.4025,11.2578,11.2513,11.2513,11.2513,11.2513,11.2513,11.2513,11.3001,11.3075,0.0,0.0,0.0,0.0,0.0,0.0,6.2468,6.3747,6.6406,7.3207,7.6489,7.9504,8.3747,8.6498,8.8087,8.7987,9.0495,9.5697,10.5088,10.9295,11.1098,11.04,11.3018,11.4414,11.3134,11.1738,11.0459,10.9395,10.8016,10.7259,10.7259,10.7259,10.7259,10.7259,10.7259,10.7259,10.7259,10.7259,10.7259,10.7259,10.7259,10.7259,10.7259,10.7259,10.7259,10.7259,10.7259,10.7259,10.7456,10.9174,11.0027,11.0309,11.1333,11.2402,11.3366,11.3366,11.3366,11.3276,11.2584,11.2128,11.167,11.1116,11.161,11.2613,11.2613,11.2613,11.3064,11.5228,11.7486,11.9414,12.0952,12.1061,12.0141,11.7444,11.659,11.5735,11.3104,11.2513,11.2513,11.2513,11.2513,11.2513,11.2513,11.2513,11.2513,11.2513,11.2513,11.2973,11.4157,11.4288,11.534,11.8036,11.8299,11.8431,11.8694,11.8694,11.8168,11.6918,11.6853,11.6327,11.5209,11.488,11.4157,11.2973,11.2644,11.2513,11.2513,11.2513,11.2513,11.2513,11.2513,11.2513,0.0,0.0,0.0,0.0,0.0,0.0,6.8358,7.2312,7.6728,8.5598,9.1182,9.4678,9.5283,9.5723,9.6576,9.8426,9.9169,10.191,10.9285,11.1738,11.3134,11.4123,11.4647,11.4414,11.3134,11.1738,11.0459,10.9395,10.8016,10.7259,10.7259,10.7259,10.7259,10.7259,10.7259,10.7259,10.7259,10.7259,10.7259,10.7259,10.7259,10.7259,10.7259,10.7259,10.7259,10.7259,10.7259,10.7259,10.7358,10.8466,10.9365,11.0309,11.1333,11.2402,11.3366,11.3366,11.3366,11.3186,11.222,11.1854,11.167,11.0804,11.0617,11.071,11.071,11.071,11.1486,11.4882,11.8305,12.1029,12.1258,12.0338,11.8957,11.7247,11.5866,11.4485,11.2907,11.2513,11.2513,11.2513,11.2513,11.2513,11.2513,11.2513,11.2513,11.2513,11.2513,11.2578,11.2776,11.2776,11.3367,11.5011,11.5209,11.5735,11.6984,11.705,11.705,11.6853,11.6853,11.6721,11.659,11.5406,11.4617,11.4485,11.317,11.2513,11.2513,11.2513,11.2513,11.2513,11.2513,11.2513,0.0,0.0,0.0,0.0,0.0,0.0,6.7186,7.2263,7.7372,8.254,9.0379,9.6532,9.7084,10.0444,10.3359,10.4306,10.5135,10.6874,11.0474,11.2145,11.3483,11.4763,11.4879,11.4065,11.2029,11.1331,11.0168,10.8248,10.6154,10.5689,10.7201,10.7259,10.7259,10.7259,10.7259,10.7259,10.7259,10.7259,10.7259,10.7259,10.7259,10.7259,10.7259,10.7259,10.7259,10.7259,10.7259,10.7259,10.7358,10.7749,10.8851,11.0215,11.0683,11.1854,11.3366,11.3366,11.3366,11.3186,11.2493,11.222,11.2037,11.1116,11.0744,11.065,11.0523,11.0429,11.093,11.3538,11.6083,11.8629,12.0798,12.0206,11.876,11.7181,11.5735,11.4288,11.2841,11.2513,11.2513,11.2513,11.2513,11.2513,11.2513,11.2513,11.2513,11.2513,11.2513,11.2513,11.2513,11.2513,11.3104,11.4551,11.4748,11.4946,11.5537,11.6327,11.6129,11.442,11.5866,11.6064,11.4354,11.534,11.5143,11.3499,11.3696,11.3367,11.2513,11.2513,11.2513,11.2513,11.2513,11.2513,5.8276,0.0,0.0,0.0,0.0,0.0,6.8023,7.375,7.9082,8.2309,9.1155,9.8534,9.9773,10.4057,10.7376,10.7783,10.8888,11.011,11.1389,11.2669,11.389,11.4763,11.4879,11.3832,11.1215,11.0982,10.9935,0.0,10.5514,10.5282,10.7201,10.7259,10.7259,10.7259,10.7259,10.7259,10.7259,10.7259,10.7259,10.7259,10.7259,10.7259,10.7259,10.7259,10.7259,10.7259,10.7259,10.7259,10.7259,10.7553,10.8659,11.0215,11.0497,11.1762,11.3366,11.3366,11.3366,11.3276,11.2674,11.2493,11.2402,11.1425,11.1148,11.1055,11.065,11.0557,11.1023,11.3333,11.4858,11.6673,12.0344,12.0206,11.876,11.7181,11.5735,11.4288,11.2841,11.2513,11.2513,11.2513,11.2513,11.2513,11.2513,11.2513,11.2513,11.2513,11.2513,11.2513,11.2513,11.2513,11.2907,11.4025,11.4485,11.4551,11.4157,11.5406,11.5143,11.271,11.4485,11.488,11.317,11.4748,11.5011,11.3762,11.3959,11.3762,11.3104,11.3104,11.2907,11.2513,11.2513,11.2513,0.0,0.0,0.0,0.0,0.0,0.0,7.3926,7.976,8.5237,9.1076,9.8375,10.421,10.6593,10.7103,10.7667,10.8946,11.0168,11.1389,11.2727,11.4007,11.4821,11.4879,11.4879,11.3832,11.1215,11.0982,10.9935,10.7492,10.7201,10.7201,10.7259,10.7259,10.7259,10.7259,10.7259,10.7259,10.7259,10.7259,10.7259,10.7259,10.7259,10.7259,10.7259,10.7259,10.7259,10.7259,10.7259,10.7259,10.7358,10.8273,10.927,11.0309,11.1333,11.2402,11.3366,11.3366,11.3366,11.3276,11.2674,11.2493,11.2402,11.1946,11.1762,11.167,11.1148,11.0963,11.1701,11.4882,11.5828,11.6673,12.0344,12.0206,11.876,11.7181,11.5735,11.4288,11.2841,11.2513,11.2513,11.2513,11.2513,11.2513,11.2513,11.2513,11.2513,11.2513,11.2513,11.2513,11.2513,11.2513,11.2578,11.2578,11.3894,11.4157,11.271,11.3959,11.4157,11.2644,11.2578,11.3236,11.4617,11.3367,11.3959,11.6655,11.3959,11.3236,11.4683,11.4683,11.3894,11.2513,11.2513,11.2513,6.3206,0.0,0.0,0.0,7.2428,7.2911,8.0121,8.5892,9.0204,9.1981,9.9734,10.5439,10.3184,10.5257,10.7725,10.9104,11.0226,11.1447,11.2785,11.4065,11.4879,11.4879,11.4879,11.4239,11.2494,11.1506,11.0284,10.8655,10.6154,0.0,10.7201,10.5631,10.5514,10.7201,10.7259,10.7259,10.7259,10.7259,10.7259,10.7259,10.7259,10.7259,10.7259,10.7259,10.7259,10.7259,10.7259,10.7651,10.8273,10.8504,10.9649,11.1148,11.087,11.1854,11.3276,11.2493,11.3422,11.4944,11.4771,11.4771,11.4683,11.4096,11.3182,11.2128,11.1241,11.1885,11.3271,11.5228,11.6673,11.8224,12.0655,12.093,11.9943,11.7444,11.5011,11.3104,11.2644,11.2513,11.2513,11.2513,11.2513,11.2513,11.2513,11.2513,11.2513,11.2513,11.2513,11.2513,11.2513,11.2513,11.2513,11.2513,11.2973,11.3039,11.2578,11.2973,11.3039,11.2578,11.2513,11.2776,11.3236,11.3696,11.442,11.5406,11.5406,11.5143,11.4748,11.4748,11.3959,11.2513,11.2513,11.2513,0.0,0.0,0.0,7.7959,7.8695,7.9001,8.6012,9.0247,9.3216,9.4835,10.1577,10.6344,10.3437,10.5719,10.8365,10.9644,11.0866,11.2145,11.3483,11.4356,11.4879,11.4879,11.4879,11.4414,11.3134,11.1738,11.0459,10.9395,10.6445,10.5514,10.7201,10.5689,10.5514,10.7201,10.7259,10.7259,10.7259,10.7259,10.7259,10.7259,10.7259,10.7259,10.7259,10.7259,10.7259,10.7259,10.7259,10.7651,10.8273,10.8888,11.0027,11.1148,11.087,11.1854,11.3186,11.2128,11.3538,11.5805,11.5118,11.5377,11.5657,11.4771,11.3689,11.2765,11.2341,11.3092,11.4421,11.6252,11.7733,11.9015,12.0875,12.1258,12.0667,11.8234,11.5801,11.3959,11.3433,11.2907,11.2513,11.2513,11.2513,11.2513,11.2513,11.2513,11.2513,11.2513,11.2513,11.2513,11.2513,11.2513,11.2513,11.2513,11.2513,11.2513,11.2513,11.2513,11.2513,11.2513,11.2513,11.2513,11.2513,11.3433,11.4157,11.4683,11.5603,11.6129,11.6327,11.5209,11.4222,11.3302,11.2776,11.2513,0.0,7.1385,0.0,8.3821,8.4368,8.4472,9.1651,9.3216,9.4542,9.9791,10.4346,10.7318,10.7376,10.8365,10.9586,11.0866,11.2145,11.3425,11.4705,11.4879,11.4879,11.4879,11.4879,11.4414,11.3192,11.1855,11.0575,10.9453,10.8074,10.7376,10.7259,10.7259,10.7259,10.7259,10.7259,10.7259,10.7259,10.7259,10.7259,10.7259,10.7259,10.7259,10.7259,10.7259,10.7259,10.7259,10.7259,10.7358,10.7553,10.9365,11.0215,11.0497,11.1333,11.2311,11.3186,11.2311,11.3627,11.5742,11.4194,11.4658,11.5657,11.4017,11.3456,11.3545,11.422,11.4509,11.5204,11.7815,11.8629,11.9175,12.0875,12.1258,12.0864,11.9417,11.7971,11.6524,11.4946,11.3565,11.2644,11.2513,11.2513,11.2513,11.2513,11.2513,11.2513,11.2513,11.2513,11.2513,11.2513,11.2513,11.2513,11.2513,11.2513,11.2513,11.2513,11.2513,11.2513,11.2513,11.2513,11.2513,11.2513,11.2513,11.3236,11.4814,11.4748,11.6129,11.8957,11.6195,11.4814,11.4683,11.3302,11.2578,7.4717,7.8443,8.1783,9.3708,9.3912,9.3028,0.0,9.9751,9.9832,10.456,10.65,10.755,10.8539,10.9104,10.9877,11.2145,11.2785,11.3425,11.4705,11.4879,11.4879,11.4879,11.4879,11.4763,11.4414,11.3251,11.1913,11.0633,10.9412,10.8306,10.7318,10.7259,10.7259,10.7259,10.7259,10.7259,10.7259,10.7259,10.7259,10.7259,10.7259,10.7259,10.7259,10.7259,10.7259,10.7259,10.7259,10.8138,10.946,10.9174,11.0403,11.2402,11.1055,11.1762,11.3305,11.3566,11.536,11.7687,11.7193,11.7358,11.7441,11.5742,11.4308,11.3545,11.422,11.5463,11.682,11.8142,11.9573,12.0655,12.1182,12.1258,12.0601,11.8036,11.8036,11.7576,11.3894,11.3631,11.3828,11.2776,11.2513,11.2513,11.2513,11.2513,11.2513,11.2513,11.2513,11.2513,11.2513,11.2513,11.2513,11.2513,11.2513,11.2513,11.2513,11.2513,11.2513,11.2513,11.2513,11.2513,11.2513,11.2513,11.3696,11.6261,11.5274,11.5077,11.5866,11.6129,11.5735,11.4748,11.4354,11.3565,7.4551,8.1165,8.7753,0.0,9.7184,9.7099,10.3858,10.2862,10.178,10.6344,10.7259,10.7667,10.9046,10.9644,11.0633,11.2669,11.3483,11.4065,11.4821,11.4879,11.4705,11.4123,11.453,11.4647,11.4123,11.3425,11.2436,11.1098,10.9877,10.8655,10.7376,10.7259,10.7259,10.7259,10.7259,10.7259,10.7259,10.7259,10.7259,10.7259,10.7259,10.7259,10.7259,10.7259,10.7259,10.7259,10.7749,10.8562,10.9555,10.9933,11.1055,11.2493,11.1394,11.1946,11.3394,11.4034,11.6041,11.8419,11.8419,11.8419,11.8095,11.6421,11.4746,11.3573,11.5267,11.64,11.7568,11.9334,12.05,12.1258,12.1258,12.1258,12.0535,11.751,11.8036,11.8102,11.4288,11.4617,11.5011,11.2907,11.2513,11.2513,11.2513,11.2513,11.2513,11.2513,11.2513,11.2513,11.2513,11.2513,11.2513,11.2513,11.2513,11.2513,11.2513,11.2513,11.2513,11.2513,11.2513,11.2513,11.2513,11.2513,11.3302,11.488,11.4157,11.4354,11.5603,11.5801,11.5472,11.4748,11.4748,11.3894,7.2468,8.1769,9.2121,9.6818,9.8067,9.9523,10.5514,10.3961,10.2473,10.65,10.7434,10.7957,10.9179,11.04,11.168,11.3018,11.4181,11.4879,11.4879,11.4879,11.4472,11.3367,11.4239,11.4472,11.3367,11.3076,11.2436,11.1098,10.9877,10.8655,10.7376,10.7259,10.7259,10.7259,10.7259,10.7259,10.7259,10.7259,10.7259,10.7259,10.7259,10.7259,10.7259,10.7259,10.7259,10.7358,10.8176,10.86,10.8983,11.0683,11.1578,11.2037,11.2068,11.2703,11.384,11.482,11.6713,11.8741,11.8741,11.8581,11.8095,11.6421,11.492,11.4105,11.6568,11.7486,11.8142,12.0655,12.1335,12.1335,12.1258,12.1258,12.0601,11.7773,11.8299,11.8562,11.5406,11.5801,11.5998,11.3104,11.2513,11.2513,11.2513,11.2513,11.2513,11.2513,11.2513,11.2513,11.2513,11.2513,11.2513,11.2513,11.2513,11.2513,11.2513,11.2513,11.2513,11.2513,11.2513,11.2513,11.2513,11.2513,11.2513,11.2513,11.2513,11.3828,11.6524,11.5472,11.5011,11.5011,11.5209,11.442,7.8293,8.5115,9.2503,10.0305,10.3968,10.5185,10.4351,10.5147,10.6344,10.7201,10.8132,10.9237,11.0459,11.1738,11.3076,11.4356,11.4763,11.4879,11.4879,11.4879,11.4821,11.4588,11.4763,11.4821,11.4588,11.36,11.2436,11.1098,10.9877,10.8655,10.7376,10.7259,10.7259,10.7259,10.7259,10.7259,10.7259,10.7259,10.7259,10.7259,10.7259,10.7259,10.7259,10.7259,10.7259,10.7259,10.7456,10.8466,10.9933,10.9365,11.0683,11.3125,11.3654,11.4472,11.5742,11.8821,12.0226,12.0613,12.0613,11.9679,11.8095,11.6421,11.572,11.572,11.7257,11.8725,12.0201,12.1411,12.178,12.1639,12.1335,12.1258,12.0864,11.9154,11.9878,11.9746,11.5603,11.5801,11.5998,11.3104,11.2513,11.2513,11.2513,11.2513,11.2513,11.2513,11.2513,11.2513,11.2513,11.2513,11.2513,11.2513,11.2513,11.2513,11.2513,11.2513,11.2513,11.2513,11.2513,11.2513,11.2513,11.2513,11.2513,11.2513,11.2513,11.3367,11.5077,11.5998,11.6458,11.6524,11.7773,11.6918,7.8125,8.266,8.7631,9.4,9.8462,10.2024,10.4758,10.534,10.5224,10.5224,10.6271,10.7957,11.0517,11.2087,11.3425,11.4705,11.4879,11.4879,11.4879,11.4879,11.4647,11.4007,11.4472,11.4356,11.3018,11.296,11.2145,11.0168,10.9528,10.8655,10.7376,10.7259,10.7259,10.7259,10.7259,10.7259,10.7259,10.7259,10.7259,10.7259,10.7259,10.7259,10.7259,10.7259,10.7259,10.7358,10.9246,11.019,11.0403,11.2729,11.4122,11.4833,11.5935,11.6713,11.7441,12.0149,12.0458,11.9993,12.1742,12.0613,11.8419,11.85,11.7933,11.7422,11.8806,11.9666,12.0435,12.1563,12.1714,12.1487,12.1335,12.1258,12.093,11.9483,12.0272,12.0535,11.7642,11.6918,11.6195,11.4091,11.3039,11.2513,11.2513,11.2513,11.2513,11.2513,11.2513,11.2513,11.2513,11.2513,11.2513,11.2513,11.2513,11.2513,11.2513,11.2513,11.2513,11.2513,11.2513,11.2513,11.2513,11.2513,11.2513,11.2513,11.2513,11.3236,11.4748,11.6129,11.6853,11.6853,11.8431,11.7576,7.7549,8.1039,8.483,8.9501,9.3016,9.7111,10.3362,10.3653,10.2955,10.4351,10.4991,10.662,11.0691,11.1796,11.2785,11.4588,11.4879,11.4821,11.453,11.4472,11.4007,11.2727,11.3425,11.3251,11.1157,11.168,11.1331,10.9453,10.9046,10.8365,10.7318,10.7259,10.7259,10.7259,10.7259,10.7259,10.7259,10.7259,10.7259,10.7259,10.7259,10.7259,10.7259,10.7749,10.8079,10.8696,11.1763,11.2188,11.118,11.6126,11.7193,11.6083,11.8177,11.8981,11.914,12.0536,12.0226,11.9378,12.2181,12.0995,11.8661,12.0458,12.0149,11.914,12.0292,12.0744,12.0897,12.179,12.179,12.1487,12.1335,12.1258,12.0995,11.9878,12.0469,12.0864,11.9483,11.7905,11.6392,11.5011,11.3499,11.2442,11.2085,11.2299,11.2442,11.2085,11.2299,11.2513,11.2513,11.2513,11.2513,11.2513,11.2513,11.2513,11.2513,11.2513,11.2513,11.2513,11.2513,11.2513,11.2513,11.2513,11.2513,11.2513,11.2513,11.3236,11.4748,11.6129,11.6984,11.7379,11.8891,11.8168,8.0302,8.5065,9.0332,9.6153,9.5882,9.4521,9.647,9.8418,10.1559,10.7434,10.691,10.691,11.1913,11.104,11.0691,11.4298,11.4879,11.4472,11.3309,11.3134,11.2669,11.1331,11.1273,11.1215,11.0982,11.011,10.9412,10.9337,10.8132,10.7376,10.7259,10.7259,10.7259,10.7259,10.7259,10.7259,10.7259,10.7259,10.7259,10.7259,10.7259,10.7259,10.7358,10.902,11.0689,11.2459,11.3646,11.3619,11.3092,11.5957,11.661,11.6168,11.9601,12.0843,12.0843,12.1061,12.0985,12.0908,12.1213,12.0071,11.8661,12.0458,12.0985,12.0908,12.1061,12.2106,12.3128,12.261,12.2388,12.2239,12.1487,12.1258,12.1258,12.1127,12.1193,12.0864,11.9483,11.7905,11.6392,11.5011,11.3499,11.2085,11.0496,11.1515,11.202,11.0496,11.1587,11.2513,11.2513,11.2513,11.2513,11.2513,11.2513,11.2513,11.2513,11.2513,11.2513,11.2513,11.2513,11.2513,11.2513,11.2513,11.2513,11.2513,11.2513,11.3236,11.4748,11.6129,11.7576,11.9023,12.0404,12.0272,7.238,7.737,8.2578,8.588,8.9736,9.2834,9.3358,9.423,9.6557,10.2257,10.3828,10.4293,10.4816,10.7841,10.9993,10.9295,11.1738,11.3309,11.1971,11.2494,11.2494,11.1157,11.0982,11.0691,10.9993,10.947,10.8888,10.8074,10.755,10.7259,10.7259,10.7259,10.7259,10.7259,10.7259,10.7259,10.7259,10.7259,10.7259,10.7259,10.7259,10.7885,10.8983,10.9625,11.106,11.2908,11.3353,11.4584,11.6546,11.9693,12.0226,11.9284,12.1667,12.2624,12.2624,12.2624,12.2032,12.1289,12.2255,12.1516,12.0304,12.2106,12.2624,12.2624,12.2624,12.2764,12.2903,12.2536,12.2164,12.1714,12.1335,12.1258,12.1258,12.1258,12.1258,12.1127,12.0535,11.9286,11.7773,11.6261,11.4814,11.335,11.179,11.2157,11.2299,11.166,11.2157,11.2513,11.2513,11.2513,11.2513,11.2513,11.2513,11.2513,11.2513,11.2513,11.2513,11.2513,11.2513,11.2513,11.2513,11.2513,11.2513,11.2513,11.2513,11.3236,11.4748,11.5274,11.6787,11.9154,11.9746,11.968,6.676,7.1816,7.6857,7.8519,8.409,8.9809,9.2485,9.1903,0.0,0.0,10.2141,10.2955,10.1559,10.4758,10.7085,10.5631,10.8714,11.1098,11.0517,11.1273,11.1389,11.0051,10.9877,10.9528,10.8714,10.8597,10.8248,10.7376,10.7259,10.7259,10.7259,10.7259,10.7259,10.7259,10.7259,10.7259,10.7259,10.7259,10.7259,10.7259,10.7259,10.8888,11.1703,11.1703,11.2908,11.5016,11.5016,11.6797,11.9771,12.1667,12.1891,12.1289,12.2983,12.3628,12.3556,12.3056,12.2181,12.1289,12.2477,12.2106,12.1365,12.3056,12.3628,12.3628,12.3628,12.3195,12.261,12.2536,12.2015,12.1411,12.1335,12.1258,12.1258,12.1258,12.1258,12.1258,12.1258,12.0141,11.8825,11.7708,11.6327,11.4735,11.2792,11.2884,11.2896,11.1941,11.2228,11.2513,11.2513,11.2513,11.2513,11.2513,11.2513,11.2513,11.2513,11.2513,11.2513,11.2513,11.2513,11.2513,11.2513,11.2513,11.2513,11.2513,11.2513,11.3236,11.4748,11.4748,11.6261,11.9154,11.9154,11.9417,6.6414,7.1229,7.6669,7.8655,8.085,8.4826,9.3792,9.1787,9.0973,10.121,10.3362,10.3769,10.5107,10.2199,10.0919,10.4758,10.6503,10.7783,10.9104,10.9337,10.8772,10.7492,10.7318,10.7318,10.7318,10.7318,10.7318,10.7259,10.7259,10.7259,10.7259,10.7259,10.7259,10.7259,10.7259,10.7259,10.7259,10.7259,10.7259,10.7259,10.7259,11.0343,11.5742,11.5742,11.732,11.9874,11.9874,12.0886,12.2247,12.0524,12.0304,12.1289,12.2983,12.3628,12.3484,12.1742,12.1137,12.1137,12.1137,12.1137,12.1365,12.3056,12.3628,12.3628,12.3628,12.334,12.2977,12.261,12.2164,12.179,12.1411,12.1258,12.1258,12.1258,12.1258,12.1258,12.1258,12.0141,11.9154,11.9154,11.7905,11.581,11.2748,11.3528,11.3577,11.0466,11.1442,11.2513,11.2513,11.2513,11.2513,11.2513,11.2513,11.2513,11.2513,11.2513,11.2513,11.2513,11.2513,11.2513,11.2513,11.2513,11.2513,11.2513,11.2513,11.3236,11.4748,11.4748,11.6261,11.9154,11.9154,11.9878,6.7199,7.1204,7.5811,8.0931,8.1636,8.372,9.3618,9.3125,9.2892,10.0512,9.9291,9.6731,9.6266,9.9465,10.2315,10.2664,10.6038,10.8423,10.7957,10.8655,10.8714,10.7434,10.7259,10.7259,10.7259,10.7259,10.7259,10.7259,10.7259,10.7259,10.7259,10.7259,10.7259,10.7259,10.7259,10.7259,10.7259,10.7259,10.7885,10.9115,10.9115,11.158,11.5828,11.5828,11.732,11.9953,11.9953,12.0886,12.2462,12.1874,12.2106,12.291,12.3417,12.3628,12.3556,12.3056,12.2837,12.2837,12.2837,12.2837,12.291,12.3417,12.3628,12.3628,12.3628,12.3195,12.261,12.2536,12.2015,12.1411,12.1335,12.1258,12.1258,12.1258,12.1258,12.1258,12.1258,12.093,12.0338,11.9351,11.876,11.7756,11.5662,11.4975,11.4334,11.3373,11.2884,11.2513,11.2513,11.2513,11.2513,11.2513,11.2513,11.2513,11.2513,11.2513,11.2513,11.2513,11.2513,11.2513,11.2513,11.2513,11.2513,11.2513,11.2513,11.2776,11.3236,11.3236,11.4748,11.7576,11.7576,11.8891,6.8921,7.2216,7.6055,8.2166,8.2083,8.2888,9.2194,9.0856,8.9809,9.772,9.6789,9.4637,9.4812,9.8302,10.1268,10.1443,10.4584,10.7085,10.7259,10.7957,10.819,10.7376,10.7259,10.7259,10.7259,10.7259,10.7259,10.7259,10.7259,10.7259,10.7259,10.7259,10.7259,10.7259,10.7259,10.7259,10.7259,10.7259,10.86,11.1152,11.1152,11.3148,11.6967,11.7237,11.8467,12.0422,12.0732,12.1648,12.2903,12.2903,12.3195,12.3628,12.3628,12.3628,12.3628,12.3628,12.3628,12.3628,12.3628,12.3628,12.3628,12.3628,12.3628,12.3628,12.3628,12.3122,12.2462,12.2462,12.194,12.1258,12.1258,12.1258,12.1258,12.1258,12.1258,12.1258,12.1258,12.1258,12.0995,12.0141,11.9943,11.9483,11.7971,11.6984,11.5998,11.488,11.3959,11.317,11.2578,11.2513,11.2513,11.2513,11.2513,11.2513,11.2513,11.2513,11.2513,11.2513,11.2513,11.2513,11.2513,11.2513,11.2513,11.2513,11.2513,11.2513,11.2513,11.2513,11.4025,11.6853,11.6853,11.8431,7.1025,7.3821,7.708,8.2504,8.2562,8.312,9.074,8.661,8.3935,9.3967,9.5714,9.615,9.8709,9.8095,9.8154,10.0919,10.2606,10.4409,10.6678,10.7027,10.7027,10.7027,10.7027,10.7027,10.7027,10.7143,10.7259,10.7259,10.7259,10.7259,10.7259,10.7259,10.7259,10.7259,10.7259,10.7259,10.7259,10.7259,10.9056,11.2483,11.3025,11.5016,11.8403,11.9493,12.05,12.1203,12.1684,12.2557,12.3561,12.3216,12.3283,12.3628,12.3628,12.3628,12.3628,12.3628,12.3628,12.3628,12.3628,12.3628,12.3628,12.3628,12.3628,12.3628,12.3628,12.305,12.2462,12.2462,12.1865,12.1258,12.1258,12.1258,12.1258,12.1258,12.1258,12.1258,12.1258,12.1258,12.1258,12.1258,12.1258,12.0864,11.9549,11.922,11.8234,11.5472,11.4946,11.4354,11.2841,11.271,11.2644,11.2513,11.2513,11.2513,11.2513,11.2513,11.2513,11.2513,11.2513,11.2513,11.2513,11.2513,11.2513,11.2513,11.2513,11.2513,11.2513,11.2644,11.4091,11.6853,11.6918,11.8562,7.0707,7.4006,7.7806,8.2101,8.5562,8.9519,9.6266,9.2601,8.9577,9.5917,9.4114,0.0,0.0,9.4928,9.5917,9.9407,10.3595,10.5863,10.4467,10.4293,10.4293,10.4293,10.4293,10.4293,10.4293,10.6096,10.7259,10.7259,10.7259,10.7259,10.7259,10.7259,10.7259,10.7259,10.7259,10.7259,10.7259,10.7259,10.7502,10.792,11.3438,11.5551,11.4759,11.8924,12.1345,12.1891,11.8091,11.9106,12.3355,11.9229,11.9985,12.3628,12.3628,12.3628,12.3628,12.3628,12.3628,12.3628,12.3628,12.3628,12.3628,12.3628,12.3412,12.3195,12.3195,12.261,12.2015,12.2015,12.1639,12.1258,12.1258,12.1258,12.1258,12.1258,12.1258,12.1258,12.1258,12.1258,12.1258,12.1258,12.1258,12.1193,12.0864,11.9878,11.8957,11.8234,11.7116,11.5801,11.442,11.4222,11.3762,11.2644,11.2513,11.2513,11.2513,11.2513,11.2513,11.2513,11.2513,11.2513,11.2513,11.2513,11.2513,11.2513,11.2513,11.2513,11.2513,11.3631,11.5077,11.6853,11.8036,11.9549,7.3783,7.7108,7.9916,8.0496,8.4418,8.8914,9.1761,8.9785,8.8739,0.0,0.0,0.0,0.0,9.7662,9.9523,9.8069,10.1152,10.3246,10.1792,10.2606,10.2955,10.1734,10.3711,10.47,10.3479,10.5747,10.7259,10.7259,10.7259,10.7259,10.7259,10.7259,10.755,10.8132,10.7608,10.755,10.819,10.847,10.7811,10.6387,11.3554,11.5663,11.3497,11.9138,12.2024,12.2329,11.9791,12.0582,12.3422,12.0536,12.1014,12.3628,12.3628,12.3628,12.3628,12.3628,12.3628,12.3628,12.3628,12.3484,12.334,12.334,12.3122,12.2757,12.2757,12.2313,12.1931,12.1931,12.1563,12.1258,12.1258,12.1258,12.1258,12.1258,12.1258,12.1258,12.1258,12.1258,12.1258,12.1258,12.1258,12.1258,12.1258,12.0667,11.9878,11.9286,11.8431,11.7379,11.5866,11.5143,11.442,11.3631,11.2907,11.2513,11.2513,11.2513,11.2513,11.2513,11.2513,11.2513,11.2513,11.2513,11.2513,11.2513,11.2513,11.2513,11.2513,11.4025,11.5472,11.6853,11.8431,11.9943,7.6545,8.0103,8.2074,7.9811,8.2525,8.5796,8.5427,8.502,0.0,0.0,0.0,0.0,0.0,10.0687,10.3304,9.6645,9.7429,9.9116,9.9523,10.1443,10.1966,9.9814,10.342,10.5398,10.3537,10.5747,10.7259,10.7259,10.7259,10.7259,10.7259,10.7492,10.8074,10.9179,10.8132,10.8388,10.9911,11.059,10.9517,10.6837,11.4148,11.6215,11.3735,11.9887,12.2683,12.2617,12.2516,12.2872,12.3561,12.2738,12.2872,12.3628,12.3628,12.3628,12.3628,12.3628,12.3628,12.3628,12.3628,12.334,12.2977,12.2977,12.2683,12.2388,12.2388,12.209,12.179,12.179,12.1563,12.1258,12.1258,12.1258,12.1258,12.1258,12.1258,12.1258,12.1258,12.1258,12.1258,12.1258,12.1258,12.1258,12.1258,12.1258,12.0864,11.968,11.9483,11.8957,11.7379,11.6129,11.5209,11.4748,11.3631,11.2776,11.2578,11.2513,11.2513,11.2513,11.2513,11.2513,11.2513,11.2513,11.2513,11.2513,11.2513,11.2513,11.2513,11.4222,11.5669,11.6853,11.8628,12.0141,7.2161,7.6851,8.2353,8.4372,8.4632,8.5543,8.9809,0.0,8.8297,9.1322,9.3997,9.484,9.1496,9.4521,9.6878,9.4521,9.5393,9.708,9.9232,9.9872,9.9989,9.9581,10.0279,10.1443,10.3188,10.5747,10.7259,10.7259,10.7259,10.7259,10.7259,10.8306,10.9004,10.9279,10.9104,11.0308,11.3162,11.4378,11.2905,10.8865,11.6747,11.8338,11.4467,12.0641,12.3484,12.3211,11.881,11.9434,12.3283,11.8744,11.9574,12.3628,12.3628,12.3628,12.3628,12.3628,12.3628,12.3628,12.3628,12.334,12.2977,12.2683,12.2313,12.2006,12.2006,12.1639,12.1335,12.1335,12.1335,12.1258,12.1258,12.1258,12.1258,12.1258,12.1258,12.1258,12.1258,12.1258,12.1258,12.1258,12.1258,12.1258,12.1258,12.1258,12.1193,12.0995,12.093,12.0404,11.9023,11.8628,11.751,11.5011,11.4551,11.3894,11.2644,11.2513,11.2513,11.2513,11.2513,11.2513,11.2513,11.2513,11.2513,11.2513,11.2513,11.2513,11.2513,11.5209,11.659,11.6918,11.968,12.1061,7.3236,7.7625,8.22,8.291,8.4691,8.6727,8.8413,8.9519,9.0915,9.3474,9.5015,9.5306,9.3474,9.5684,9.7197,9.5306,9.6557,9.8244,9.9407,10.0745,10.1094,9.9756,10.2024,10.3653,10.342,10.5747,10.7259,10.7259,10.7259,10.7259,10.7259,10.8481,10.957,11.011,11.0505,11.2246,11.5556,11.6499,11.4602,10.9941,11.7464,11.7492,11.1096,11.9699,12.2049,11.9295,11.9779,12.1359,12.3422,12.0947,12.1431,12.3628,12.3628,12.3628,12.3628,12.3628,12.3484,12.334,12.334,12.305,12.2683,12.2239,12.1865,12.1563,12.1563,12.1411,12.1258,12.1258,12.1258,12.1258,12.1258,12.1258,12.1258,12.1258,12.1258,12.1258,12.1258,12.1258,12.1258,12.1258,12.1258,12.1258,12.1258,12.1258,12.1258,12.1258,12.1258,12.1061,12.0404,11.9615,11.8628,11.7247,11.5669,11.442,11.3762,11.2973,11.2513,11.2513,11.2513,11.2513,11.2513,11.2513,11.2513,11.2513,11.2513,11.2907,11.3696,11.5801,11.7247,11.8168,12.0272,12.1182,7.6735,0.0,8.4535,8.3837,8.6087,8.8413,0.0,8.9809,9.2136,9.4405,9.5422,9.5655,9.5073,9.6964,9.7836,9.5277,9.7487,9.9349,9.8767,10.0861,10.1734,9.9814,10.3595,10.5805,10.4409,10.6096,10.7259,10.7259,10.7749,10.7885,10.7885,10.9937,11.1528,11.2373,11.3712,11.5451,11.7669,11.851,11.6822,11.272,11.8639,11.7177,10.9673,11.9221,12.0742,11.5989,12.1292,12.3628,12.3628,12.3628,12.3628,12.3628,12.3628,12.3628,12.3628,12.3628,12.3412,12.305,12.305,12.2757,12.2313,12.194,12.1563,12.1258,12.1258,12.1258,12.1258,12.1258,12.1258,12.1258,12.1258,12.1258,12.1258,12.1258,12.1258,12.1258,12.1258,12.1258,12.1258,12.1258,12.1258,12.1258,12.1258,12.1258,12.1258,12.1258,12.1258,12.1258,12.1258,12.0338,11.9549,11.922,11.6787,11.5077,11.4748,11.3696,11.3039,11.3039,11.271,11.2513,11.2513,11.2513,11.2513,11.2513,11.2513,11.3104,11.4222,11.5998,11.7642,11.922,12.0601,12.0963,0.0,8.713,9.1554,9.266,9.138,9.0507,9.2776,9.1671,0.0,9.1962,9.4114,9.5131,9.266,9.4288,9.5306,9.266,9.6382,9.8767,9.647,9.8244,9.9756,9.9581,10.1966,10.4526,10.6794,10.7143,10.7259,10.7259,10.8888,10.9814,10.9814,11.4039,11.6529,11.659,11.9671,12.0883,11.9717,12.1114,12.0936,11.9313,12.1365,11.9417,11.4221,12.0722,12.0742,11.5989,12.1292,12.3628,12.3628,12.3628,12.3628,12.3628,12.3628,12.3628,12.3628,12.3628,12.3412,12.305,12.305,12.2536,12.1865,12.1865,12.1563,12.1258,12.1258,12.1258,12.1258,12.1258,12.1258,12.1258,12.1258,12.1258,12.1258,12.1258,12.1258,12.1258,12.1258,12.1258,12.1258,12.1258,12.1258,12.1258,12.1258,12.1258,12.1258,12.1258,12.1258,12.1258,12.1258,12.1193,12.0601,11.9286,11.7642,11.6129,11.4814,11.4617,11.4551,11.4551,11.3302,11.2513,11.2513,11.2513,11.2513,11.2513,11.2513,11.2578,11.271,11.5472,11.7642,11.922,12.0601,12.0963,8.515,8.9425,9.3241,9.3765,9.4346,9.4551,9.3997,9.3707,9.3299,9.2194,9.2718,9.3125,9.2136,9.2718,9.359,9.423,9.5917,9.7953,10.0313,10.1326,10.2548,10.4177,10.5224,10.6638,10.8769,10.6517,10.651,11.0536,10.8877,10.8912,11.1672,11.5121,11.8698,12.2249,12.3896,12.4364,12.3445,12.2992,12.2407,12.1497,12.2164,11.9923,11.5397,12.1007,12.0742,11.5989,12.1292,12.1704,0.0,12.2254,12.1704,11.9023,12.2321,12.3628,12.3628,12.334,12.305,12.2683,12.2388,12.194,12.1487,12.1487,12.1411,12.1258,12.1258,12.1258,12.1258,12.1258,12.1258,12.1258,12.1258,12.1258,12.1258,12.1258,12.1258,12.1258,12.1258,12.1258,12.1258,12.1258,12.1258,12.1258,12.1258,12.1258,12.1258,12.1258,12.1258,12.1258,12.1258,12.1258,12.1061,12.0535,11.9154,11.8036,11.751,11.659,11.5669,11.4748,11.4222,11.3499,11.2578,11.2513,11.2513,11.2513,11.2513,11.2513,11.2513,11.5406,11.8102,12.0469,12.0995,12.0963,8.9457,9.3362,9.6848,9.6848,9.8185,9.8825,9.6266,9.5742,9.5131,9.2485,9.1962,9.1962,9.1962,9.1962,9.2776,9.5422,9.583,0.0,0.0,0.0,10.313,10.5747,10.6618,10.7524,10.9056,10.6949,10.7626,11.2516,11.0923,11.103,11.4111,11.7468,12.095,12.4321,12.5453,12.5681,12.4875,12.4122,12.3253,12.2462,12.2757,12.0295,11.5848,12.1153,12.0742,11.5989,12.1292,12.0602,11.6054,12.1431,12.0536,11.6194,12.1498,12.3556,12.3412,12.3122,12.2683,12.2239,12.194,12.1563,12.1258,12.1258,12.1258,12.1258,12.1258,12.1258,12.1258,12.1258,12.1258,12.1258,12.1258,12.1258,12.1258,12.1258,12.1258,12.1258,12.1258,12.1258,12.1258,12.1258,12.1258,12.1258,12.1258,12.1258,12.1258,12.1258,12.1258,12.1258,12.1258,12.1258,12.1258,12.1258,12.0009,11.9351,11.9812,11.8431,11.7116,11.6195,11.5209,11.4288,11.3236,11.2776,11.2513,11.2513,11.2513,11.2513,11.2513,11.5406,11.783,11.9726,12.0788,12.0963,9.5043,9.9614,10.3362,10.3362,10.342,10.2722,10.0163,9.7604,9.519,9.2485,9.1962,9.1962,9.1962,9.1962,9.2776,9.5422,0.0,0.0,9.9232,9.9581,10.057,10.313,10.517,10.6548,10.7164,10.8924,11.0814,11.2818,11.5468,11.6983,11.7046,12.16,12.3533,12.2166,12.419,12.4731,12.3285,12.4132,12.3923,12.2536,12.3268,12.0881,11.5923,12.1226,12.0742,11.5989,12.1292,12.0536,11.5989,12.1359,12.0397,11.6129,12.1498,12.3412,12.305,12.2977,12.2536,12.1931,12.1931,12.1563,12.1258,12.1258,12.1258,12.1258,12.1258,12.1258,12.1258,12.1258,12.1258,12.1258,12.1258,12.1258,12.1258,12.1258,12.1258,12.1258,12.1258,12.1258,12.1258,12.1258,12.1258,12.1258,12.1258,12.1258,12.1258,12.1258,12.1258,12.1258,12.1258,12.1258,12.1258,12.1258,12.0009,11.9746,12.1193,12.0009,11.9154,11.9154,11.6392,11.4748,11.4748,11.3302,11.2578,11.2578,11.2513,11.2513,11.2513,11.5406,11.6631,11.6315,11.9726,12.0963,9.5306,9.9614,10.3362,10.3362,10.4758,10.4991,10.057,9.9,9.7197,9.2834,9.1962,9.1962,9.1962,9.1962,9.2776,0.0,0.0,9.7344,10.1617,10.2257,10.3188,10.5805,10.78,10.7796,10.4833,10.7526,11.0492,11.3035,11.3937,11.58,11.8901,12.1884,12.3913,12.4662,12.4824,12.49,12.497,12.4331,12.3669,12.334,12.3556,12.2805,12.1292,12.2872,12.2805,12.1359,12.2944,11.8472,11.0814,11.9919,11.8045,11.048,11.9684,12.2977,12.261,12.2313,12.2015,12.179,12.1563,12.1335,12.1258,12.1258,12.1258,12.1258,12.1258,12.1258,12.1258,12.1258,12.1258,12.1258,12.1258,12.1258,12.1258,12.1258,12.1258,12.1258,12.1258,12.1258,12.1258,12.1258,12.1258,12.1258,12.1258,12.1258,12.1258,12.1258,12.1258,12.1258,12.1258,12.1258,12.1258,12.1258,12.0864,12.0798,12.1258,12.0864,12.0206,11.922,11.8365,11.7379,11.6261,11.4814,11.4091,11.4091,11.3039,11.2513,11.2513,11.5406,11.6779,11.6697,11.9802,12.1182,9.7546,10.0628,10.3479,10.406,10.5747,10.6212,10.2024,10.0279,9.8418,9.4346,9.266,9.2252,9.3299,9.3474,9.4288,0.0,0.0,0.0,10.1268,10.2533,10.3934,10.6583,10.854,10.9035,10.7301,10.9417,11.1948,11.458,11.575,11.7612,12.0292,12.1982,12.3423,12.4391,12.4244,12.4458,12.4902,12.403,12.3628,12.3628,12.3628,12.3628,12.3628,12.3628,12.3556,12.3412,12.3556,11.867,11.1276,11.9831,11.8168,11.1082,11.9519,12.2536,12.2164,12.194,12.179,12.1563,12.1335,12.1258,12.1258,12.1258,12.1258,12.1258,12.1258,12.1258,12.1258,12.1258,12.1258,12.1105,12.0422,12.0188,12.0032,11.9334,12.0266,12.1105,12.0344,12.0798,12.1258,12.1258,12.1258,12.1258,12.1258,12.1258,12.1258,12.1258,12.1258,12.1258,12.1258,12.1258,12.1258,12.1258,12.1258,12.1258,12.1258,12.1258,12.093,12.0075,11.9483,11.8431,11.6918,11.5472,11.442,11.3828,11.2973,11.2513,11.2513,11.5406,11.6779,11.6623,11.9802,12.1182,10.0628,10.2315,10.3711,10.5049,10.6329,10.6561,10.3653,10.121,9.8767,9.5975,9.359,9.266,9.5073,9.5481,9.6412,0.0,0.0,9.7318,9.9796,10.1706,10.369,10.6088,0.0,0.0,11.2471,11.3058,11.4311,11.672,11.9132,12.0711,12.1203,12.2024,12.2536,12.261,12.3268,12.3628,12.3628,12.3628,12.3628,12.3628,12.3628,12.3628,12.3628,12.3628,12.3412,12.305,12.3412,12.0243,11.5451,12.0839,11.98,11.5441,12.0394,12.2164,12.1856,12.1856,12.1563,12.1258,12.1258,12.1258,12.1258,12.1258,12.1258,12.1258,12.1258,12.1258,12.1258,12.1105,12.1029,12.0577,11.879,11.8467,11.8142,11.6505,11.8709,12.0875,11.9175,12.0188,12.1258,12.1258,12.1258,12.1258,12.1258,12.1258,12.1258,12.1258,12.1258,12.1258,12.1258,12.1258,12.1258,12.1258,12.1258,12.1258,12.1258,12.1258,12.1258,12.1258,12.0075,11.8628,11.7116,11.5669,11.4222,11.2776,11.2578,11.2513,11.2513,11.5274,11.65,11.639,11.9595,12.0908,9.9523,10.1617,10.3711,10.5049,10.6329,10.6038,10.1443,9.993,9.8244,9.3707,9.2311,9.2136,9.266,9.2776,9.4746,10.0843,10.1403,10.1939,10.4471,10.5279,10.5728,10.6237,10.8079,10.9739,11.0856,11.2335,11.4035,11.5808,11.5925,11.7732,12.1891,12.2388,12.2757,12.3412,12.3556,12.3628,12.3628,12.3628,12.3628,12.3628,12.3628,12.3628,12.3628,12.334,12.3122,12.2977,12.283,11.9642,11.5059,12.0394,11.9276,11.466,11.9933,12.1714,12.1411,12.1411,12.1335,12.1258,12.1258,12.1258,12.1258,12.1258,12.1258,12.1258,12.1258,12.1258,12.1029,11.9573,11.9175,11.8709,11.6924,11.7486,11.8467,11.8061,11.9652,12.1182,12.0732,12.1029,12.1258,12.1258,12.1258,12.1258,12.1258,12.1258,12.1258,12.1258,12.1258,12.1258,12.1258,12.1258,12.1258,12.1258,12.1258,12.1258,12.1258,12.1258,12.1258,12.1258,12.0995,12.0141,11.8694,11.7181,11.5735,11.4288,11.3104,11.2513,11.2513,11.4288,11.5662,11.6771,11.8685,12.0131,10.0105,10.1908,10.3828,10.5805,10.6794,10.6561,10.3886,10.2315,10.0279,9.6382,9.4637,9.3765,9.3765,9.3765,9.5678,10.1486,10.1704,10.1351,10.2464,10.5564,10.7241,10.5993,10.8605,11.1679,11.4736,11.4375,11.5293,11.8703,11.8535,11.9708,12.2843,12.2683,12.3097,12.4634,12.4634,12.4969,12.5773,12.5773,12.5371,12.4634,12.4634,12.4298,12.3628,12.3195,12.3303,12.3748,12.3599,12.178,11.9258,12.2044,12.1016,11.7971,12.0591,12.1487,12.1258,12.1258,12.1258,12.1258,12.1258,12.1258,12.1258,12.1258,12.1258,12.1258,12.1258,12.1258,12.0952,11.903,11.8548,11.7979,11.529,11.5913,11.732,11.732,11.7979,11.9175,12.0952,12.1258,12.1258,12.1258,12.1258,12.1258,12.1258,12.1258,12.1258,12.1258,12.1258,12.1258,12.1258,12.1258,12.1258,12.1258,12.1258,12.1258,12.1258,12.1258,12.0995,12.0272,12.0272,11.9286,11.7116,11.6261,11.5143,11.3696,11.2907,11.2513,11.2513,11.4025,11.5472,11.6853,11.8431,11.9943,10.1326,10.2548,10.4002,10.662,10.7259,10.7143,10.6736,10.4933,10.2664,10.0105,9.7895,9.6354,9.5946,9.583,9.726,10.1665,10.1085,9.9961,9.9864,10.496,10.792,10.5821,10.9077,11.3566,11.8852,11.6989,11.7373,12.2114,12.1709,12.1598,12.2254,12.1598,12.2543,12.5304,12.5639,12.6511,12.8053,12.8053,12.7449,12.6176,12.6176,12.5572,12.4365,12.3857,12.3607,12.3404,12.4351,12.398,12.2717,12.3815,12.343,12.211,12.1806,12.1522,12.1258,12.1258,12.1258,12.1258,12.1258,12.1258,12.1324,12.1587,12.185,12.2048,12.2048,12.2048,12.1673,11.9806,11.9321,11.8519,11.5193,11.5531,11.6716,11.6716,11.6779,11.7651,12.0655,12.1258,12.1258,12.1258,12.1258,12.1258,12.1258,12.1258,12.1258,12.1258,12.1258,12.1258,12.1258,12.1258,12.1258,12.1258,12.1258,12.1258,12.1258,12.1258,12.0667,11.9286,11.9154,11.7839,11.4814,11.4748,11.4025,11.2578,11.2513,11.2513,11.2513,11.3762,11.5209,11.6853,11.8168,11.968,10.2199,10.3246,10.4002,10.662,10.7259,10.6678,10.4409,10.3653,10.2664,10.0105,9.9291,9.836,9.6238,9.583,9.726,10.1665,10.217,10.28,10.4979,10.6087,10.6567,10.6266,10.8272,11.1653,11.6874,11.8483,12.012,12.2321,11.8777,11.6671,11.6745,11.6605,11.8802,12.3757,12.5103,12.6511,12.8053,12.8053,12.7986,12.7785,12.7785,12.765,12.7449,12.6627,12.3298,11.8428,12.3338,12.2252,11.7514,12.3077,12.4559,12.3243,12.3165,12.2376,12.1258,12.1258,12.1258,12.1258,12.1258,12.1258,12.1522,12.2771,12.402,12.5007,12.5007,12.5007,12.4625,12.2798,12.2302,12.1736,11.9766,11.9656,12.0104,12.0104,12.0337,12.072,12.1182,12.1258,12.1258,12.1258,12.1258,12.1258,12.1258,12.1258,12.1258,12.1258,12.1258,12.1258,12.1258,12.1258,12.1258,12.1258,12.1258,12.1258,12.1258,12.1258,12.0667,11.9286,11.9154,11.7839,11.4814,11.4748,11.4025,11.2578,11.2513,11.2513,11.2513,11.271,11.4222,11.6853,11.705,11.8628,9.9523,10.121,10.2955,10.5573,10.6212,10.6096,10.5689,10.5573,10.4816,10.2257,10.057,9.8767,9.6296,9.4666,9.5989,10.2908,10.1001,10.122,10.8472,10.6392,10.5443,10.9074,11.0257,11.2826,11.8146,11.9888,11.9792,11.8091,11.8891,11.961,12.0051,12.0125,12.1552,12.4768,12.631,12.7785,12.926,13.0064,13.0064,12.926,12.926,12.8857,12.8053,12.716,12.5654,12.3835,12.5941,12.5201,12.2782,12.5609,12.5927,12.4678,12.4678,12.3757,12.2574,12.3363,12.3165,12.2508,12.2508,12.3034,12.3823,12.4415,12.5072,12.5599,12.5599,12.5599,12.5215,12.338,12.2882,12.2398,12.0597,12.1016,12.1722,12.0884,12.166,12.2245,12.1456,12.1258,12.1258,12.1258,12.1258,12.1258,12.1258,12.1258,12.1258,12.1258,12.1258,12.1258,12.1258,12.1258,12.1258,12.1258,12.1258,12.1258,12.1258,12.1258,12.0272,11.7971,11.7839,11.6524,11.3631,11.3499,11.317,11.2513,11.2513,11.2513,11.2513,11.2513,11.4025,11.6853,11.6853,11.8883,9.7514,9.9523,10.1617,10.4235,10.4875,10.5224,10.6503,10.6794,10.6329,10.47,10.2839,10.1045,9.9341,9.7493,9.8618,10.6189,10.3424,10.3232,11.1551,10.8817,10.7121,11.0155,11.1115,11.2588,11.5205,11.7636,11.7805,11.4686,11.8394,12.1178,12.2098,12.2237,12.3456,12.631,12.7852,12.9125,13.0198,13.1673,13.1807,13.0734,13.0726,13.0047,12.9042,12.8139,12.7453,12.6916,12.7863,12.733,12.5942,12.7607,12.7374,12.6125,12.6125,12.527,12.4152,12.5204,12.4875,12.4086,12.4415,12.5467,12.6585,12.6256,12.6388,12.6651,12.6651,12.6651,12.6411,12.4978,12.4647,12.4313,12.2977,12.3317,12.3805,12.2703,12.3022,12.3165,12.2048,12.1522,12.1258,12.1258,12.1258,12.1258,12.1258,12.1258,12.1258,12.1258,12.1258,12.1258,12.1258,12.1258,12.1258,12.1258,12.1258,12.1127,12.0798,12.0732,11.9483,11.6458,11.6261,11.5143,11.2644,11.2513,11.2513,11.2513,11.2513,11.2513,11.2513,11.2513,11.3828,11.6261,11.6261,11.8653,9.8476,9.9581,10.0279,10.2839,10.3479,10.3828,10.5165,10.5456,10.5805,10.6852,10.6969,10.7124,10.7665,10.7674,10.8764,11.2321,11.2621,11.3025,11.4715,11.5282,11.3353,10.7288,10.894,10.8635,10.3813,10.9635,11.3892,11.448,11.5462,11.6642,11.8233,11.8298,12.1243,12.7785,12.9327,13.0131,13.0198,13.1673,13.2344,13.2276,13.1891,13.1736,13.1591,13.0724,12.7133,12.1813,12.7332,12.6335,12.1142,12.7234,12.8886,12.7571,12.7571,12.6716,12.5467,12.5533,12.5533,12.5664,12.6979,12.8426,12.9413,12.8032,12.8492,12.9676,12.9676,12.9676,12.9594,12.9512,12.9512,12.9446,12.9364,12.8461,12.7425,12.7359,12.5322,12.3428,12.3363,12.2245,12.1258,12.1258,12.1258,12.1258,12.1258,12.1258,12.1258,12.1258,12.1258,12.1258,12.1258,12.1258,12.1258,12.1258,12.1258,12.0732,11.9417,11.9286,11.8036,11.5011,11.4814,11.4157,11.2578,11.2513,11.2513,11.2513,11.2513,11.2513,11.2513,11.2513,11.3302,11.4814,11.4814,11.7196,9.5742,9.772,9.9989,10.1734,10.2781,10.3944,10.6096,10.598,10.598,10.8074,10.7201,10.6445,10.7509,10.7473,10.8493,11.2601,11.1935,11.3116,11.9331,11.5454,11.3064,11.6105,11.1762,11.0095,11.4023,11.5614,11.4609,11.0402,11.6736,12.1406,12.2942,12.2935,12.497,12.9327,12.993,13.0667,13.1606,13.2142,13.2344,13.2344,13.2025,13.1791,13.1791,13.0989,12.9408,12.733,12.9134,12.8544,12.6678,12.8888,12.9544,12.9084,12.9084,12.8229,12.7045,12.7966,12.7703,12.7111,12.8623,12.9413,12.9807,12.9281,12.9478,12.9873,12.9873,12.9873,12.9873,12.9873,12.9873,12.9873,12.9873,12.9478,12.8623,12.6782,12.5533,12.4283,12.2442,12.1653,12.1258,12.1258,12.1258,12.1258,12.1258,12.1258,12.1258,12.1258,12.0535,12.0272,12.1193,12.1258,12.1258,12.1258,12.0469,11.9746,11.922,11.8234,11.6787,11.4814,11.4748,11.4091,11.2578,11.2513,11.2513,11.2513,11.2513,11.2513,11.2513,11.2513,11.3302,11.4683,11.568,11.7862,9.6033,9.7022,9.8767,10.0919,10.1792,10.3013,10.6503,10.662,10.6736,10.9295,10.8423,10.7863,10.9878,10.9638,11.0789,11.603,11.5167,11.6176,12.2783,11.8872,11.6462,11.9754,11.4935,11.2064,11.4039,11.6509,11.6982,11.4735,12.0633,12.517,12.7181,12.7248,12.8388,13.0869,13.0936,13.1405,13.2344,13.2344,13.2334,13.2179,13.1947,13.1635,13.132,13.0669,13.0346,13.0346,12.9955,12.9873,12.9873,12.9873,12.9873,12.9873,12.9873,12.9281,12.8558,12.9544,12.9281,12.8558,12.9544,12.9873,12.9873,12.9873,12.9873,12.9873,12.9873,12.9873,12.9873,12.9873,12.9873,12.9873,12.9873,12.9873,12.9281,12.6848,12.5927,12.4941,12.2508,12.1653,12.1258,12.1258,12.1258,12.1258,12.1258,12.1258,12.1127,12.0667,12.0141,11.9878,11.9812,11.9812,11.9812,11.9812,11.8957,11.8168,11.7708,11.6721,11.5537,11.4091,11.3959,11.3565,11.2578,11.2513,11.2513,11.2513,11.2513,11.2513,11.2513,11.2513,11.3039,11.3959,11.5372,11.7256,9.9258,9.7778,9.7053,10.0687,10.0687,10.121,10.6271,10.7434,10.8074,11.0517,11.0982,11.2041,11.5384,11.4883,11.6215,12.3056,12.3031,12.2951,12.501,12.6026,12.4009,11.7371,11.7833,11.4209,10.246,11.1666,12.1026,12.7361,12.6645,12.7114,13.0064,13.0198,13.0869,13.2344,13.2344,13.2344,13.2344,13.2344,13.2179,13.1791,13.1791,13.1399,13.0588,13.0036,12.9873,12.9873,12.9873,12.9873,12.9873,12.9873,12.9873,12.9873,12.9873,12.9873,12.9873,12.9873,12.9873,12.9873,12.9873,12.9873,12.9873,12.9873,12.9873,12.9873,12.9873,12.9873,12.9873,12.9807,12.9807,12.9807,12.9807,12.9807,12.9413,12.79,12.6519,12.5072,12.3626,12.2113,12.1127,12.1127,12.1127,12.1127,12.1127,12.1127,12.0667,11.9286,12.0272,12.0075,11.7116,11.6787,11.6853,11.6853,11.6787,11.6195,11.4814,11.4683,11.4025,11.2644,11.2513,11.2513,11.2513,11.2513,11.2513,11.2513,11.2513,11.2513,11.2513,11.2513,11.2447,11.2518,11.384,11.5227,9.4028,9.8727,10.2955,10.406,10.5398,10.7376,11.0633,11.0633,11.0168,11.0866,11.0982,11.1593,11.349,11.2473,11.4,12.1631,12.1534,12.2357,12.7836,12.821,12.7047,12.4835,12.15,11.8391,11.5608,12.237,12.5583,12.2618,12.5495,12.8254,13.0131,13.0198,13.0869,13.2344,13.2344,13.2344,13.2344,13.2344,13.2179,13.1791,13.1791,13.1399,13.0588,13.0508,13.0199,12.9873,12.9873,12.9873,12.9873,12.9873,12.9873,12.9873,12.9873,12.9873,12.9873,12.9873,12.9873,12.9873,12.9873,12.9873,12.9873,12.9873,12.9873,12.9873,12.9873,12.9873,12.9676,12.8558,12.8295,12.8295,12.8295,12.8295,12.7637,12.5204,12.4349,12.3034,11.9417,11.8365,11.8036,11.8036,11.8036,11.8036,11.8036,11.8036,11.7905,11.751,11.7773,11.7379,11.5537,11.6195,11.6853,11.6853,11.5932,11.5143,11.4748,11.3762,11.2973,11.2578,11.2513,11.2513,11.2513,11.2513,11.2513,11.2513,11.2513,11.2513,11.2513,11.146,11.1,11.1004,11.2215,11.3054,9.5013,9.818,10.0687,10.121,10.3653,10.6212,10.7143,10.9237,11.0866,11.0342,11.1098,11.2204,11.3541,11.2872,11.4111,11.9695,11.9891,12.1405,12.7218,12.7726,12.7836,12.8527,12.5119,12.3204,12.4574,12.8018,12.8874,12.5522,12.7587,12.9595,13.107,13.1137,13.1539,13.2344,13.219,13.2113,13.2113,13.2025,13.1713,13.1241,13.1241,13.0923,13.0346,13.0346,13.0183,12.9873,12.9873,12.9873,12.9873,12.9873,12.9873,12.9873,12.9873,12.9873,12.9873,12.9873,12.9873,12.9873,12.9873,12.9478,12.9084,12.9676,12.9084,12.8163,12.8821,12.8558,12.79,12.7045,12.6782,12.6782,12.6782,12.6782,12.6059,12.3231,12.2574,12.1522,11.7642,11.6853,11.6853,11.6853,11.6853,11.6853,11.6853,11.6853,11.6392,11.5209,11.5537,11.5406,11.3959,11.5077,11.5735,11.5077,11.4288,11.3828,11.3828,11.3039,11.2513,11.2513,11.2513,11.2513,11.2513,11.2513,11.225,11.1658,11.1658,11.1329,11.0737,10.9948,10.9553,10.9557,11.1314,11.1208,9.8683,9.6324,9.4114,9.5917,9.9058,10.1443,0.0,10.5456,10.9993,10.8772,11.0342,11.2262,11.3367,11.3483,11.431,11.6777,11.7741,11.977,12.4346,12.5524,12.6834,12.9315,12.8024,12.7771,12.9807,13.0279,13.1003,13.2276,13.1204,13.1003,13.2276,13.2344,13.2066,13.1299,13.1602,13.1446,13.0679,13.0975,13.1069,13.0588,13.0588,13.0346,12.9873,12.9873,12.9873,12.9873,12.9873,12.9873,12.9873,12.9873,12.9873,12.9873,12.9873,12.9807,12.961,12.961,12.9544,12.9413,12.9413,12.8558,12.7637,12.8952,12.7637,12.5796,12.7045,12.6242,12.477,12.4639,12.4218,12.3942,12.4428,12.4442,12.3798,12.1587,12.093,11.9943,11.6984,11.6327,11.6327,11.6327,11.6327,11.6327,11.6327,11.6327,11.5472,11.2907,11.3631,11.4025,11.271,11.3631,11.3959,11.2644,11.2513,11.2513,11.2513,11.2513,11.2513,11.2513,11.2513,11.2447,11.2315,11.2315,11.1526,10.9948,11.008,10.9488,10.8041,10.8041,10.8041,10.8109,11.038,10.9377,0.0,0.0,0.0,0.0,0.0,0.0,0.0,10.5398,10.6096,10.4758,10.4875,10.534,10.5573,10.4758,10.604,11.1872,11.2917,11.5181,12.1493,12.2878,12.4422,12.7758,12.8353,12.9214,13.0857,13.1602,13.2075,13.2344,13.2142,13.2075,13.2344,13.2344,12.9835,12.4349,12.9169,12.9145,12.3718,12.8672,13.1069,13.0588,13.0588,13.0346,12.9873,12.9873,12.9873,12.9873,12.9873,12.9873,12.9873,12.9873,12.9873,12.9873,12.9873,12.9149,12.8097,12.8097,12.7374,12.6388,12.6388,12.619,12.6059,12.6322,12.6059,12.5599,12.5927,12.3297,11.9997,11.8895,11.5878,11.388,11.7529,11.752,11.7118,11.905,11.8628,11.6918,11.3959,11.3367,11.3367,11.3367,11.3367,11.3367,11.3367,11.3367,11.317,11.2578,11.2776,11.2841,11.2578,11.2776,11.2841,11.2578,11.2513,11.2513,11.2513,11.2513,11.2513,11.2513,11.2513,11.1987,11.0869,11.0803,10.9619,10.6989,10.8107,10.7975,10.6529,10.6529,10.6529,10.6596,10.689,10.6387,0.0,0.0,0.0,0.0,0.0,0.0,0.0,0.0,0.0,0.0,0.0,10.2839,10.4118,0.0,10.6501,10.9899,11.2569,11.5549,11.9467,12.1331,12.2332,12.2418,12.4036,12.5992,12.8196,12.9791,13.0888,13.1271,13.1941,13.2344,13.2344,12.9214,12.574,12.2409,12.4967,12.4779,12.1439,12.7491,13.0442,13.0265,13.0265,13.0102,12.9873,12.9873,12.9873,12.9873,12.9873,12.9873,12.9873,12.9873,12.9873,12.9741,12.8295,12.7308,12.6374,12.3614,12.3936,12.5177,12.2507,12.2891,12.4612,12.5335,12.4612,12.356,12.4283,12.2501,11.9915,11.9263,11.7417,11.6186,11.8456,11.7959,11.7004,11.7822,11.6853,11.5209,11.2973,11.2513,11.2513,11.2513,11.2513,11.2513,11.2513,11.2513,11.2513,11.2513,11.2513,11.2513,11.2513,11.2513,11.1916,11.012,10.8679,10.8143,10.9155,10.7988,10.8444,11.1167,11.0646,10.9885,10.8801,10.8385,10.7481,10.6134,10.6454,10.6126,10.5082,10.5082,10.5082,10.5016,10.3827,10.3098,0.0,0.0,0.0,0.0,0.0,0.0,0.0,0.0,0.0,0.0,0.0,0.0,0.0,0.0,0.0,10.7608,11.1425,11.4809,11.6409,11.855,11.8977,11.659,11.9026,12.1929,12.4589,12.7245,12.9126,12.9971,13.1309,13.219,13.2344,12.6857,12.3116,12.1794,12.1906,12.1504,12.0113,12.6319,12.9478,12.9478,12.9741,0.0,12.9873,12.9873,12.9167,12.7905,12.9315,12.9102,12.7987,12.9052,12.9478,12.9215,12.6425,12.5295,12.4808,12.0404,12.105,12.3638,11.9742,12.0142,12.2697,12.4271,12.3165,12.1522,12.2705,12.1554,0.0,11.9957,11.9334,11.8789,11.9422,11.8515,11.7204,11.6582,11.534,11.3959,11.2776,11.2315,11.2184,11.2447,11.2315,11.2184,11.2513,11.1982,11.1184,11.019,11.0321,11.0387,11.0125,11.078,11.017,10.7392,10.55,10.4897,10.6265,10.3556,10.4008,10.9018,10.7546,10.6093,10.5296,10.4607,10.3851,10.2914,10.2515,10.2385,10.252,10.2717,10.3242,10.3767,9.9777,9.8345,0.0,0.0,0.0,0.0,0.0,0.0,0.0,0.0,0.0,0.0,0.0,0.0,0.0,0.0,0.0,0.0,10.374,10.6166,10.9721,11.1396,11.2568,11.3456,11.7103,12.0166,12.1783,12.5502,12.8262,12.9126,13.0522,13.1635,13.2344,13.0133,0.0,0.0,0.0,12.2671,11.665,12.4132,12.79,12.7966,12.9281,12.9873,12.9873,12.9873,12.6579,12.128,12.7283,12.6366,12.128,12.6057,12.79,12.7688,12.5323,12.4411,12.4216,12.3208,12.1334,11.9483,12.0488,0.0,0.0,12.1191,12.1522,12.1324,12.1456,11.8647,11.5293,11.5293,11.2417,10.9978,11.2713,11.2306,11.1903,11.4393,11.3828,11.271,11.2578,11.1526,11.1,11.225,11.1526,11.1066,11.2315,10.9918,10.6355,10.1839,10.2289,10.2677,10.1516,10.4483,10.6538,10.6143,10.807,0.0,10.7932,10.4137,10.3105,10.6257,10.2783,10.0013,9.8725,9.8594,9.6206,9.1229,9.2328,9.4325,9.7233,9.8345,10.0428,10.3241,9.2657,9.0032,0.0,0.0,0.0,0.0,0.0,0.0,0.0,0.0,0.0,0.0,0.0,0.0,0.0,0.0,0.0,0.0,10.1399,10.4178,10.4658,10.5454,10.7065,10.9974,11.2763,11.5204,11.7103,12.0695,12.2698,12.2486,12.5842,12.7482,12.6481,12.3679,12.0646,11.7276,12.0291,12.0403,11.7277,12.5046,12.8952,12.8952,12.8689,12.8623,12.8558,12.7769,12.5223,12.1699,12.4554,12.3594,12.0146,12.2947,12.4101,12.3663,0.0,0.0,0.0,0.0,11.6674,11.5704,11.333,11.5151,11.8709,11.9493,12.0422,12.1258,12.1258,11.9957,11.8374,11.8374,11.7143,11.5719,11.62,11.5176,11.415,11.4604,11.3631,11.2513,11.2513,11.2052,11.1789,11.2381,11.2052,0.0,11.1811,10.9956,10.7576,10.4982,10.4395,10.4072,10.3492,10.4904,10.5139,10.3112,10.2528,10.2513,10.3091,9.9965,0.0,0.0,0.0,10.041,9.9838,9.956,0.0,0.0,0.0,9.3565,9.4206,9.2651,0.0,0.0,8.8757,8.666,0.0,0.0,0.0,0.0,0.0,0.0,0.0,0.0,0.0,0.0,0.0,0.0,0.0,0.0,0.0,0.0,9.8902,10.0463,9.9006,10.0139,10.2507,10.6429,10.8583,11.0745,11.3394,11.6368,11.7889,11.7093,12.1035,12.2707,12.1144,11.8151,11.6126,11.5532,11.6609,11.7328,11.7541,12.351,12.6823,12.7365,12.6809,12.6562,12.6562,12.566,12.3173,11.9514,12.1391,12.0047,11.66,11.8782,11.9716,11.9125,11.365,11.1468,11.1468,11.1671,11.2507,11.2954,10.9241,11.1914,11.7174,11.7915,11.9414,12.0952,12.1182,12.1258,12.1193,12.0798,12.0732,12.0272,11.8431,11.7116,11.5801,11.3959,11.3039,11.2381,11.2052,11.1921,11.2052,11.2447,11.1714,11.0502,10.879,10.7608,10.6222,10.4337,10.3424,10.2848,10.2528,10.3488,10.3144,10.0664,9.9258,9.8911,9.9975,9.7132,9.7383,10.2168,10.0468,9.9713,10.0846,9.9473,9.8566,9.8335,9.4054,9.1637,0.0,0.0,0.0,0.0,0.0,0.0,0.0,0.0,0.0,0.0,0.0,0.0,0.0,0.0,0.0,0.0,0.0,0.0,0.0,0.0,0.0,0.0,0.0,0.0,9.2252,9.5393,9.9207,10.3049,10.5262,10.7946,11.1687,11.3925,11.5327,11.5743,11.7162,11.8116,11.8316,11.6597,11.5495,11.5433,11.3723,11.3786,11.5724,11.7322,11.9148,12.1224,12.2928,12.3822,12.3822,12.4232,11.942,11.1153,11.7881,11.5611,10.7566,11.295,11.5142,11.462,11.0687,10.8951,10.863,10.9392,11.06,11.1728,11.2136,11.2662,11.3531,11.6147,11.8403,12.011,12.1029,12.1258,12.0995,11.9615,11.922,11.8562,11.5603,11.4814,11.4091,11.1197,11.1592,11.2118,11.0803,11.0474,11.0869,11.225,10.9717,10.593,10.1745,10.1021,9.9336,9.4507,9.4809,0.0,9.3864,9.7203,9.966,9.9597,10.1853,10.286,10.1538,9.7635,9.6502,9.9461,9.581,9.5369,9.9398,9.5684,9.2919,9.147,8.7376,8.6052,8.7821,0.0,0.0,0.0,0.0,0.0,0.0,0.0,0.0,0.0,0.0,0.0,0.0,0.0,0.0,0.0,0.0,0.0,0.0,0.0,0.0,0.0,0.0,0.0,0.0,9.359,9.5626,10.0279,10.0594,10.1693,10.4689,10.7551,10.8763,10.7599,11.1885,11.3926,11.2454,11.3897,11.4443,11.3791,11.4994,11.535,11.4868,11.6331,11.6929,11.6736,11.6463,11.6294,11.6231,11.5492,11.2724,10.8751,11.1026,10.9578,10.5724,10.8185,10.7498,10.4724,10.2607,10.1634,10.1543,10.1847,10.2173,10.2763,10.4578,10.577,10.7394,11.2355,11.4757,11.5431,11.4427,11.4082,11.3735,11.2611,11.2781,11.3054,11.2168,11.1855,11.1395,10.9488,10.9356,10.9619,10.9093,10.9027,10.9021,10.8927,10.5317,10.1261,9.849,10.025,9.9762,9.2673,9.4334,9.5777,9.4151,9.5171,9.604,9.604,9.6893,9.7259,9.6771,9.5414,9.4988,9.5979,9.4744,9.4196,9.4898,9.3542,9.2586,9.2322,9.0464,8.786,8.4537,0.0,0.0,0.0,0.0,0.0,0.0,0.0,0.0,0.0,0.0,0.0,0.0,0.0,0.0,0.0,0.0,0.0,0.0,0.0,0.0,0.0,0.0,0.0,0.0,0.0,0.0,9.8154,9.8037,0.0,10.121,10.3346,10.3824,10.1895,10.5181,10.6893,10.6099,10.7618,10.8632,10.8969,11.0744,11.1546,11.099,11.1875,11.2382,11.2223,11.1529,11.1096,11.1034,11.0398,10.8851,10.6938,10.6938,10.5759,10.3778,10.2932,10.1114,9.8696,9.7099,9.6696,9.6801,9.5882,9.6112,9.7122,9.8387,10.0016,10.2257,10.6836,10.8491,10.8307,10.6747,10.5988,10.5396,10.4728,10.5509,10.652,10.6571,10.727,10.755,10.6124,10.6606,10.7281,10.6828,10.5895,10.4742,10.3255,9.966,9.6244,9.4147,9.6036,9.5815,8.9681,9.1811,9.3845,9.31,9.3701,9.4299,9.4299,9.4299,9.412,9.3641,9.3641,9.3481,9.3002,9.2942,9.2643,9.1883,9.1883,9.1445,9.0751,8.9337,8.6159,0.0,0.0,0.0,0.0,0.0,0.0,0.0,0.0,0.0,0.0,0.0,0.0,0.0,0.0,0.0,0.0,0.0,0.0,0.0,0.0,0.0,0.0,0.0,0.0,0.0,0.0,0.0,9.6468,9.7135,0.0,0.0,0.0,0.0,9.8549,9.7396,9.7674,9.9713,9.8566,9.9025,10.1432,10.1489,10.2387,10.4329,10.4388,10.5304,10.7275,10.7653,10.7828,10.7828,10.8349,10.7302,10.5062,10.5062,10.374,10.1241,9.7188,9.5943,9.6455,9.4348,9.3971,9.4229,9.1804,9.2296,9.4284,9.4045,9.5586,9.7927,9.9928,9.9999,9.9154,9.8711,9.7515,0.0,0.0,9.7514,9.9118,9.9242,10.0986,10.2495,10.1286,10.3218,10.5075,10.3725,10.1261,9.8404,9.5508,9.2842,9.051,8.8451,0.0,8.7535,8.4834,8.6742,8.8946,8.9974,9.2208,9.3739,9.3739,9.3739,9.3261,9.2129,9.2009,9.1551,9.0316,9.0196,9.0196,9.0136,9.0077,8.8763,8.6222,8.3791,0.0,0.0,0.0,0.0,0.0,0.0,0.0,0.0,0.0,0.0,0.0,0.0,0.0,0.0,0.0,0.0,0.0,0.0,0.0,0.0,0.0,0.0,0.0,0.0,0.0,0.0,8.8157,9.0158,9.1703,9.1519,9.1477,0.0,0.0,0.0,0.0,0.0,0.0,9.8107,9.7072,9.6666,9.7361,9.7361,9.7631,9.8107,9.8953,9.9221,9.8902,9.9077,9.9018,9.9077,9.9193,9.8902,9.8285,9.8285,9.793,9.7072,9.3156,9.1645,9.1677,9.0076,8.8507,8.7148,8.738,8.7023,8.692,8.8934,9.1081,9.319,9.4053,9.5014,9.5578,9.3719,0.0,0.0,0.0,0.0,8.8606,9.2272,9.3623,9.476,9.7265,9.769,9.7751,9.8288,9.5662,9.2107,8.8464,8.5464,8.2246,7.8382,8.1128,0.0,7.5149,8.0129,8.4264,8.3383,8.5278,8.6785,8.6785,8.6137,8.56,8.5263,8.5263,8.5151,8.4758,8.4758,8.4366,8.3356,8.254,8.1099,7.8938,0.0,0.0,0.0,0.0,0.0,0.0,0.0,0.0,0.0,0.0,0.0,0.0,0.0,0.0,0.0,0.0,0.0,0.0,0.0,0.0,0.0,0.0,0.0,0.0,0.0,0.0,0.0,8.2437,8.4702,8.5996,8.64,8.6288,0.0,0.0,0.0,0.0,0.0,0.0,0.0,0.0,0.0,9.2812,9.2352,9.2208,9.2369,9.423,9.4812,9.4114,9.5306,9.583,9.583,9.583,9.583,9.5772,9.4666,9.3474,9.2052,8.8272,8.7564,8.8559,0.0,0.0,0.0,0.0,8.1366,8.1489,8.3021,8.4912,8.6662,8.6821,0.0,0.0,0.0,0.0,0.0,0.0,0.0,8.2384,8.551,8.8001,9.0225,9.2374,9.2507,9.2323,9.3039,8.8132,8.3432,8.2671,8.0365,7.7249,7.3418,7.5142,0.0,0.0,0.0,7.8891,7.8529,8.1438,8.3561,8.3561,8.313,8.2509,8.1962,8.1962,8.1743,8.1251,8.1197,8.0242,7.8161,7.8217,7.6174,0.0,0.0,0.0,0.0,0.0,0.0,0.0,0.0,0.0,0.0,0.0,0.0,0.0,0.0,0.0,0.0,0.0,0.0,0.0,0.0,0.0,0.0,0.0,0.0,0.0,0.0,0.0,0.0,0.0,7.7244,8.0215,0.0,0.0,0.0,0.0,0.0,0.0,0.0,0.0,0.0,0.0,0.0,0.0,0.0,8.6558,8.7358,8.961,9.065,9.0476,9.3073,9.4058,9.3711,9.3884,9.3971,9.3855,9.1339,0.0,8.6723,8.3184,0.0,0.0,0.0,0.0,0.0,0.0,0.0,0.0,0.0,0.0,0.0,0.0,0.0,0.0,0.0,0.0,0.0,0.0,0.0,0.0,0.0,0.0,8.6546,8.6894,8.7161,8.7239,8.6628,7.9802,7.4659,7.7277,7.6192,7.3916,0.0,0.0,0.0,0.0,0.0,0.0,7.483,7.92,8.2117,8.2117,8.203,8.1508,8.0419,8.031,7.979,7.8811,7.8321,7.6852,7.4135,7.5515,0.0,0.0,0.0,0.0,0.0,0.0,0.0,0.0,0.0,0.0,0.0,0.0,0.0,0.0,0.0,0.0,0.0,0.0,0.0,0.0,0.0,0.0,0.0,0.0,0.0,0.0,0.0,0.0,0.0,0.0,0.0,0.0,0.0,0.0,0.0,0.0,0.0,0.0,0.0,0.0,0.0,0.0,0.0,0.0,0.0,0.0,0.0,0.0,0.0,0.0,8.4868,8.4585,8.2411,8.3652,8.428,8.4142,8.2076,8.1409,8.1642,7.9366,0.0,0.0,0.0,0.0,0.0,0.0,0.0,0.0,0.0,0.0,0.0,0.0,0.0,0.0,0.0,0.0,0.0,0.0,0.0,0.0,0.0,0.0,7.8782,8.0825,8.0625,7.8877,7.5213,0.0,0.0,0.0,0.0,0.0,0.0,0.0,0.0,0.0,0.0,0.0,7.1636,7.5765,7.8592,7.8592,7.7961,7.7424,7.7211,7.7211,7.7105,7.6893,7.4131,7.2273,0.0,0.0,0.0,0.0,0.0,0.0,0.0,0.0,0.0,0.0,0.0,0.0,0.0,0.0,0.0,0.0,0.0,0.0,0.0,0.0,0.0,0.0,0.0,0.0,0.0,0.0,0.0,0.0,0.0,0.0,0.0,0.0,0.0,0.0,0.0,0.0,0.0,0.0,0.0,0.0,0.0,0.0,0.0,0.0,0.0,0.0,0.0,0.0,0.0,0.0,0.0,0.0,0.0,0.0,0.0,0.0,0.0,0.0,7.5221,7.3397,0.0,0.0,0.0,0.0,0.0,0.0,0.0,0.0,0.0,0.0,0.0,0.0,0.0,0.0,0.0,0.0,0.0,0.0,0.0,0.0,0.0,0.0,0.0,0.0,0.0,0.0,0.0,0.0,0.0,0.0,0.0,0.0,0.0,0.0,0.0,0.0,0.0,0.0,0.0,0.0,7.0349,7.4219,7.7064,7.7064,7.6635,7.6377,7.6377,7.6377,7.5506,7.3533,7.1958,0.0,0.0,0.0,0.0,0.0,0.0,0.0,0.0,0.0,0.0,0.0,0.0,0.0,0.0,0.0,0.0,0.0,0.0,0.0,0.0,0.0,0.0,0.0,0.0,0.0,0.0,0.0,0.0,0.0,0.0,0.0,0.0,0.0,0.0,0.0,0.0,0.0,0.0,0.0,0.0,0.0,0.0,0.0,0.0,0.0,0.0,0.0,0.0,0.0,0.0,0.0,0.0,0.0,0.0,0.0,0.0,0.0,0.0,0.0,6.9651,6.6847,0.0,0.0,0.0,0.0,0.0,0.0,0.0,0.0,0.0,0.0,0.0,0.0,0.0,0.0,0.0,0.0,0.0,0.0,0.0,0.0,0.0,0.0,0.0,0.0,0.0,0.0,0.0,0.0,0.0,0.0,0.0,0.0,0.0,0.0,0.0,0.0,0.0,0.0,0.0,0.0,7.0116,7.3559,7.6031,7.5892,7.5544,7.5283,7.5195,7.5195,7.3602,7.0012,6.9253,0.0,0.0,0.0,0.0,0.0,0.0,0.0,0.0,0.0,0.0,0.0,0.0,0.0,0.0,0.0,0.0,0.0,0.0,0.0,0.0,0.0,0.0,0.0,0.0,0.0,0.0,0.0,0.0,0.0,0.0,0.0,0.0,0.0,0.0,0.0,0.0,0.0,0.0,0.0,0.0,0.0,0.0,0.0,0.0,0.0,0.0,0.0,0.0,0.0,0.0,0.0,0.0,0.0,0.0,0.0,0.0,0.0,0.0,0.0,0.0,0.0,0.0,0.0,0.0,0.0,0.0,0.0,0.0,0.0,0.0,0.0,0.0,0.0,0.0,0.0,0.0,0.0,0.0,0.0,0.0,0.0,0.0,0.0,0.0,0.0,0.0,0.0,0.0,0.0,0.0,0.0,0.0,0.0,0.0,0.0,0.0,0.0,0.0,0.0,0.0,0.0,7.048,7.3226,7.4742,7.4391,7.2793,7.1621,7.1167,7.1167,7.0051,6.7403,0.0,0.0,0.0,0.0,0.0,0.0,0.0,0.0,0.0,0.0,0.0,0.0,0.0,0.0,0.0,0.0,0.0,0.0,0.0,0.0,0.0,0.0,0.0,0.0,0.0,0.0,0.0,0.0,0.0,0.0,0.0,0.0,0.0,0.0,0.0,0.0,0.0,0.0,0.0,0.0,0.0,0.0,0.0,0.0,0.0,0.0,0.0,0.0,0.0,0.0,0.0,0.0,0.0,0.0,0.0,0.0,0.0,0.0,0.0,0.0,0.0,0.0,0.0,0.0,0.0,0.0,0.0,0.0,0.0,0.0,0.0,0.0,0.0,0.0,0.0,0.0,0.0,0.0,0.0,0.0,0.0,0.0,0.0,0.0,0.0,0.0,0.0,0.0,0.0,0.0,0.0,0.0,0.0,0.0,0.0,0.0,0.0,0.0,0.0,0.0,0.0,0.0,6.6579,6.9627,7.1341,7.01,6.9321,6.8999,6.9139,6.8813,6.6926,6.3133,0.0,0.0,0.0,0.0,0.0,0.0,0.0,0.0,0.0,0.0,0.0,0.0,0.0,0.0,0.0,0.0,0.0,0.0,0.0,0.0,0.0,0.0,0.0,0.0,0.0,0.0,0.0,0.0,0.0,0.0,0.0,0.0,0.0,0.0,0.0,0.0,0.0,0.0,0.0,0.0,0.0,0.0,0.0,0.0,0.0,0.0,0.0,0.0,0.0,0.0,0.0,0.0,0.0,0.0,0.0,0.0,0.0,0.0,0.0,0.0,0.0,0.0,0.0,0.0,0.0,0.0,0.0,0.0,0.0,0.0,0.0,0.0,0.0,0.0,0.0,0.0,0.0,0.0,0.0,0.0,0.0,0.0,0.0,0.0,0.0,0.0,0.0,0.0,0.0,0.0,0.0,0.0,0.0,0.0,0.0,0.0,0.0,0.0,0.0,0.0,0.0,0.0,6.3904,6.6771,6.8348,6.7223,6.6419,6.618,6.6747,6.618,6.3925,5.9531,0.0,0.0,0.0,0.0,0.0,0.0,0.0,0.0,0.0,0.0,0.0,0.0,0.0,0.0,0.0,0.0,0.0,0.0,0.0,0.0,0.0,0.0,0.0,0.0,0.0,0.0,0.0,0.0,0.0,0.0,0.0,0.0,0.0,0.0,0.0,0.0,0.0,0.0,0.0,0.0,0.0,0.0,0.0,0.0,0.0,0.0,0.0,0.0,0.0,0.0,0.0,0.0,0.0,0.0,0.0,0.0,0.0,0.0,0.0,0.0,0.0,0.0,0.0,0.0,0.0,0.0,0.0,0.0,0.0,0.0,0.0,0.0,0.0,0.0,0.0,0.0,0.0,0.0,0.0,0.0,0.0,0.0,0.0,0.0,0.0,0.0,0.0,0.0,0.0,0.0,0.0,0.0,0.0,0.0,0.0,0.0,0.0,0.0,0.0,0.0,0.0,0.0,6.3772,6.5561,6.6655,6.6655,6.4492,6.3118,6.326,6.2627,6.0737,0.0,0.0,0.0,0.0,0.0,0.0,0.0,0.0,0.0,0.0,0.0,0.0,0.0,0.0,0.0,0.0,0.0,0.0,0.0,0.0,0.0,0.0,0.0,0.0,0.0,0.0,0.0,0.0,0.0,0.0,0.0,0.0,0.0,0.0,0.0,0.0,0.0,0.0,0.0,0.0,0.0,0.0,0.0,0.0,0.0,0.0,0.0,0.0,0.0,0.0,0.0,0.0,0.0,0.0,0.0,0.0,0.0,0.0,0.0,0.0,0.0,0.0,0.0,0.0,0.0,0.0,0.0,0.0,0.0,0.0,0.0,0.0,0.0,0.0,0.0,0.0,0.0,0.0,0.0,0.0,0.0,0.0,0.0,0.0,0.0,0.0,0.0,0.0,0.0,0.0,0.0,0.0,0.0,0.0,0.0,0.0,0.0,0.0,0.0,0.0,0.0,0.0,0.0,5.838,6.1384,6.3031,6.1652,6.1142,6.0884,6.0927,6.0384,5.88,5.5902,0.0,0.0,0.0,0.0,0.0,0.0,0.0,0.0,0.0,0.0,0.0,0.0,0.0,0.0,0.0,0.0,0.0,0.0,0.0,0.0,0.0,0.0,0.0,0.0,0.0,0.0,0.0,0.0,0.0,0.0,0.0,0.0,0.0,0.0,0.0,0.0,0.0,0.0,0.0,0.0,0.0,0.0,0.0,0.0,0.0,0.0,0.0,0.0,0.0,0.0,0.0,0.0,0.0,0.0,0.0,0.0,0.0,0.0,0.0,0.0,0.0,0.0,0.0,0.0,0.0,0.0,0.0,0.0,0.0,0.0,0.0,0.0,0.0,0.0,0.0,0.0,0.0,0.0,0.0,0.0,0.0,0.0,0.0,0.0,0.0,0.0,0.0,0.0,0.0,0.0,0.0,0.0,0.0,0.0,0.0,0.0,0.0,0.0,0.0,0.0,0.0,0.0,0.0,5.8553,6.0254,5.9245,5.9616,5.9675,5.8972,5.8681,5.7425,5.4811,0.0,0.0,0.0,0.0,0.0,0.0,0.0,0.0,0.0,0.0,0.0,0.0,0.0,0.0,0.0,0.0,0.0,0.0,0.0,0.0,0.0,0.0,0.0,0.0,0.0,0.0,0.0,0.0,0.0,0.0,0.0,0.0,0.0,0.0,0.0,0.0,0.0,0.0,0.0,0.0,0.0,0.0,0.0,0.0,0.0,0.0,0.0,0.0,0.0,0.0,0.0,0.0,0.0,0.0,0.0,0.0,0.0,0.0,0.0,0.0,0.0,0.0,0.0,0.0,0.0,0.0,0.0,0.0,0.0,0.0,0.0,0.0,0.0,0.0,0.0,0.0,0.0,0.0,0.0,0.0,0.0,0.0,0.0,0.0,0.0,0.0,0.0,0.0,0.0,0.0,0.0,0.0,0.0,0.0,0.0,0.0,0.0,0.0,0.0,0.0,0.0,0.0,0.0,5.711,5.8338,5.9218,5.956,5.9154,5.7552,5.759,5.6618,5.4021,5.1494,0.0,0.0,0.0,0.0,0.0,0.0,0.0,0.0,0.0,0.0,0.0,0.0,0.0,0.0,0.0,0.0,0.0,0.0,0.0,0.0,0.0,0.0,0.0,0.0,0.0,0.0,0.0,0.0,0.0,0.0,0.0,0.0,0.0,0.0,0.0,0.0,0.0,0.0,0.0,0.0,0.0,0.0,0.0,0.0,0.0,0.0,0.0,0.0,0.0,0.0,0.0,0.0,0.0,0.0,0.0,0.0,0.0,0.0,0.0,0.0,0.0,0.0,0.0,0.0,0.0,0.0,0.0,0.0,0.0,0.0,0.0,0.0,0.0,0.0,0.0,0.0,0.0,0.0,0.0,0.0,0.0,0.0,0.0,0.0,0.0,0.0,0.0,0.0,0.0,0.0,0.0,0.0,0.0,0.0,0.0,0.0,0.0,0.0,0.0,0.0,0.0,0.0,5.7203,5.8722,5.9218,5.9076,5.8656,5.7853,5.7786,5.662,5.3843,5.0913,0.0,0.0,0.0,0.0,0.0,0.0,0.0,0.0,0.0,0.0,0.0,0.0,0.0,0.0,0.0,0.0,0.0,0.0,0.0,0.0,0.0,0.0,0.0,0.0,0.0,0.0,0.0,0.0,0.0,0.0,0.0,0.0,0.0,0.0,0.0,0.0,0.0,0.0,0.0,0.0,0.0,0.0,0.0,0.0,0.0,0.0,0.0,0.0,0.0,0.0,0.0,0.0,0.0,0.0,0.0,0.0,0.0,0.0,0.0,0.0,0.0,0.0,0.0,0.0,0.0,0.0,0.0,0.0,0.0,0.0,0.0,0.0,0.0,0.0,0.0,0.0,0.0,0.0,0.0,0.0,0.0,0.0,0.0,0.0,0.0,0.0,0.0,0.0,0.0,0.0,0.0,0.0,0.0,0.0,0.0,0.0,0.0,0.0,0.0,0.0,0.0,0.0,5.4808,5.667,5.7877,5.8193,5.7815,5.6506,5.6704,5.588,5.3304,5.0709,0.0,0.0,0.0,0.0,0.0,0.0,0.0,0.0,0.0,0.0,0.0,0.0,0.0,0.0,0.0,0.0,0.0,0.0,0.0,0.0,0.0,0.0,0.0,0.0,0.0,0.0,0.0,0.0,0.0,0.0,0.0,0.0,0.0,0.0,0.0,0.0,0.0,0.0,0.0,0.0,0.0,0.0,0.0,0.0,0.0,0.0,0.0,0.0,0.0,0.0,0.0,0.0,0.0,0.0,0.0,0.0,0.0,0.0,0.0,0.0,0.0,0.0,0.0,0.0,0.0,0.0,0.0,0.0,0.0,0.0,0.0,0.0,0.0,0.0,0.0,0.0,0.0,0.0,0.0,0.0,0.0,0.0,0.0,0.0,0.0,0.0,0.0,0.0,0.0,0.0,0.0,0.0,0.0,0.0,0.0,0.0,0.0,0.0,0.0,0.0,0.0,0.0,0.0,5.3623,5.6167,5.7174,5.6819,5.4822,5.5404,5.4788,5.2428,0.0,0.0,0.0,0.0,0.0,0.0,0.0,0.0,0.0,0.0,0.0,0.0,0.0,0.0,0.0,0.0,0.0,0.0,0.0,0.0,0.0,0.0,0.0,0.0,0.0,0.0,0.0,0.0,0.0,0.0,0.0,0.0,0.0,0.0,0.0,0.0,0.0,0.0,0.0,0.0,0.0,0.0,0.0,0.0,0.0,0.0,0.0,0.0,0.0,0.0,0.0,0.0,0.0,0.0,0.0,0.0,0.0,0.0,0.0,0.0,0.0,0.0,0.0,0.0,0.0,0.0,0.0,0.0,0.0,0.0,0.0,0.0,0.0,0.0,0.0,0.0,0.0,0.0,0.0,0.0,0.0,0.0,0.0,0.0,0.0,0.0,0.0,0.0,0.0,0.0,0.0,0.0,0.0,0.0,0.0,0.0,0.0,0.0,0.0,0.0,0.0,0.0,0.0,0.0,5.2141,5.575,5.6169,5.6126,5.5739,5.5824,5.4634,5.1592,0.0,0.0,0.0,0.0,0.0,0.0,0.0,0.0,0.0,0.0,0.0,0.0,0.0,0.0]}]]]